Wetterdaten: Mittwoch, 26.04.2017
Datum Zeit Temp. A. Pool Temp. Feuchte A. Luftdruck Regen Wind Richtung Richtung Sonnenschein ET UV Solar Taupunkt Windchill Windben Empfang
26.04.2017 00:00 10,1 C 10,0 C 96 % 1005,7 hPa 0,0 l/m 2,3 km/h (1 Bft) S-SW 196 0 min 0,000 mm 0,0 UV-I 0 W/m 9,5 C 10,1 C 3,2 km/h (1 Bft) 97,73 %
26.04.2017 00:02 10,1 C 10,0 C 96 % 1005,7 hPa 0,0 l/m 2,8 km/h (1 Bft) S-SW 196 0 min 0,000 mm 0,0 UV-I 0 W/m 9,5 C 10,1 C 4,8 km/h (1 Bft) 97,56 %
26.04.2017 00:04 10,1 C 10,0 C 96 % 1005,7 hPa 0,0 l/m 2,1 km/h (1 Bft) S-SW 196 0 min 0,000 mm 0,0 UV-I 0 W/m 9,5 C 10,1 C 3,2 km/h (1 Bft) 100,00 %
26.04.2017 00:06 10,1 C 10,0 C 96 % 1005,7 hPa 0,0 l/m 1,1 km/h (1 Bft) S-SW 196 0 min 0,000 mm 0,0 UV-I 0 W/m 9,5 C 10,1 C 3,2 km/h (1 Bft) 100,00 %
26.04.2017 00:08 10,1 C 10,0 C 96 % 1005,8 hPa 0,0 l/m 0,3 km/h (0 Bft) S-SW 196 0 min 0,000 mm 0,0 UV-I 0 W/m 9,5 C 10,1 C 1,6 km/h (1 Bft) 100,00 %
26.04.2017 00:10 10,1 C 10,0 C 96 % 1005,7 hPa 0,0 l/m 1,5 km/h (1 Bft) S-SW 196 0 min 0,000 mm 0,0 UV-I 0 W/m 9,5 C 10,1 C 3,2 km/h (1 Bft) 94,74 %
26.04.2017 00:12 10,1 C 10,0 C 96 % 1005,7 hPa 0,0 l/m 0,9 km/h (0 Bft) S-SW 196 0 min 0,000 mm 0,0 UV-I 0 W/m 9,5 C 10,1 C 3,2 km/h (1 Bft) 100,00 %
26.04.2017 00:14 10,1 C 10,0 C 96 % 1005,7 hPa 0,0 l/m 0,4 km/h (0 Bft) S-SW 196 0 min 0,000 mm 0,0 UV-I 0 W/m 9,5 C 10,1 C 1,6 km/h (1 Bft) 100,00 %
26.04.2017 00:16 10,1 C 10,0 C 96 % 1005,6 hPa 0,0 l/m 0,0 km/h (0 Bft) S-SW 196 0 min 0,000 mm 0,0 UV-I 0 W/m 9,5 C 10,1 C 0,0 km/h (0 Bft) 100,00 %
26.04.2017 00:18 10,1 C 10,0 C 96 % 1005,5 hPa 0,0 l/m 0,0 km/h (0 Bft) S-SW 196 0 min 0,000 mm 0,0 UV-I 0 W/m 9,5 C 10,1 C 0,0 km/h (0 Bft) 100,00 %
26.04.2017 00:20 10,0 C 10,0 C 96 % 1005,5 hPa 0,0 l/m 0,0 km/h (0 Bft) S-SW 196 0 min 0,000 mm 0,0 UV-I 0 W/m 9,4 C 10,0 C 0,0 km/h (0 Bft) 97,87 %
26.04.2017 00:22 10,0 C 10,0 C 96 % 1005,5 hPa 0,0 l/m 0,0 km/h (0 Bft) S-SW 196 0 min 0,000 mm 0,0 UV-I 0 W/m 9,4 C 10,0 C 0,0 km/h (0 Bft) 97,87 %
26.04.2017 00:24 10,0 C 10,0 C 96 % 1005,5 hPa 0,0 l/m 0,0 km/h (0 Bft) S-SW 196 0 min 0,000 mm 0,0 UV-I 0 W/m 9,4 C 10,0 C 0,0 km/h (0 Bft) 95,74 %
26.04.2017 00:26 10,0 C 10,0 C 96 % 1005,4 hPa 0,0 l/m 0,0 km/h (0 Bft) S-SW 196 0 min 0,000 mm 0,0 UV-I 0 W/m 9,4 C 10,0 C 0,0 km/h (0 Bft) 97,14 %
26.04.2017 00:28 10,1 C 10,0 C 96 % 1005,4 hPa 0,0 l/m 0,6 km/h (0 Bft) S-SW 196 0 min 0,000 mm 0,0 UV-I 0 W/m 9,5 C 10,1 C 3,2 km/h (1 Bft) 96,43 %
26.04.2017 00:30 10,1 C 10,0 C 96 % 1005,4 hPa 0,0 l/m 1,7 km/h (1 Bft) S-SW 196 0 min 0,000 mm 0,0 UV-I 0 W/m 9,5 C 10,1 C 3,2 km/h (1 Bft) 97,56 %
26.04.2017 00:32 10,0 C 10,0 C 96 % 1005,5 hPa 0,0 l/m 0,1 km/h (0 Bft) S-SW 196 0 min 0,000 mm 0,0 UV-I 0 W/m 9,4 C 10,0 C 1,6 km/h (1 Bft) 97,87 %
26.04.2017 00:34 10,0 C 10,0 C 96 % 1005,6 hPa 0,0 l/m 0,0 km/h (0 Bft) S-SW 196 0 min 0,000 mm 0,0 UV-I 0 W/m 9,4 C 10,0 C 0,0 km/h (0 Bft) 98,00 %
26.04.2017 00:36 9,9 C 10,0 C 96 % 1005,7 hPa 0,0 l/m 0,0 km/h (0 Bft) S-SW 196 0 min 0,000 mm 0,0 UV-I 0 W/m 9,3 C 9,9 C 0,0 km/h (0 Bft) 97,87 %
26.04.2017 00:38 9,8 C 10,0 C 96 % 1005,6 hPa 0,0 l/m 0,3 km/h (0 Bft) S-SW 196 0 min 0,000 mm 0,0 UV-I 0 W/m 9,2 C 9,8 C 1,6 km/h (1 Bft) 95,83 %
26.04.2017 00:40 9,8 C 10,0 C 96 % 1005,6 hPa 0,0 l/m 2,5 km/h (1 Bft) NW 325 0 min 0,000 mm 0,0 UV-I 0 W/m 9,2 C 9,8 C 6,4 km/h (2 Bft) 97,87 %
26.04.2017 00:42 9,8 C 10,0 C 96 % 1005,7 hPa 0,0 l/m 3,1 km/h (1 Bft) N-NW 339 0 min 0,000 mm 0,0 UV-I 0 W/m 9,2 C 9,8 C 6,4 km/h (2 Bft) 98,00 %
26.04.2017 00:44 9,8 C 10,0 C 96 % 1005,7 hPa 0,0 l/m 1,6 km/h (1 Bft) NW 324 0 min 0,000 mm 0,0 UV-I 0 W/m 9,2 C 9,8 C 4,8 km/h (1 Bft) 95,74 %
26.04.2017 00:46 9,8 C 10,0 C 96 % 1005,7 hPa 0,0 l/m 2,1 km/h (1 Bft) N-NW 328 0 min 0,000 mm 0,0 UV-I 0 W/m 9,2 C 9,8 C 4,8 km/h (1 Bft) 97,37 %
26.04.2017 00:48 9,8 C 10,0 C 96 % 1005,7 hPa 0,0 l/m 2,2 km/h (1 Bft) N-NW 328 0 min 0,000 mm 0,0 UV-I 0 W/m 9,2 C 9,8 C 4,8 km/h (1 Bft) 96,00 %
26.04.2017 00:50 9,7 C 10,0 C 96 % 1005,6 hPa 0,0 l/m 1,8 km/h (1 Bft) N-NW 337 0 min 0,000 mm 0,0 UV-I 0 W/m 9,1 C 9,7 C 4,8 km/h (1 Bft) 96,00 %
26.04.2017 00:52 9,7 C 10,0 C 96 % 1005,6 hPa 0,0 l/m 3,7 km/h (1 Bft) NW 315 0 min 0,000 mm 0,0 UV-I 0 W/m 9,1 C 9,7 C 11,3 km/h (2 Bft) 93,62 %
26.04.2017 00:54 9,6 C 10,0 C 96 % 1005,6 hPa 0,0 l/m 3,2 km/h (1 Bft) N-NO 19 0 min 0,000 mm 0,0 UV-I 0 W/m 9,0 C 9,6 C 8,0 km/h (2 Bft) 100,00 %
26.04.2017 00:56 9,6 C 10,0 C 96 % 1005,7 hPa 0,0 l/m 2,2 km/h (1 Bft) N-NO 12 0 min 0,000 mm 0,0 UV-I 0 W/m 9,0 C 9,6 C 8,0 km/h (2 Bft) 100,00 %
26.04.2017 00:58 9,6 C 10,0 C 96 % 1005,6 hPa 0,0 l/m 2,2 km/h (1 Bft) N-NO 13 0 min 0,000 mm 0,0 UV-I 0 W/m 9,0 C 9,6 C 8,0 km/h (2 Bft) 98,00 %
26.04.2017 01:00 9,6 C 10,0 C 95 % 1005,6 hPa 0,0 l/m 4,2 km/h (1 Bft) N 10 0 min 0,000 mm 0,0 UV-I 0 W/m 8,8 C 9,6 C 12,9 km/h (3 Bft) 100,00 %
26.04.2017 01:02 9,6 C 10,0 C 95 % 1005,6 hPa 0,0 l/m 0,9 km/h (0 Bft) N-NW 343 0 min 0,000 mm 0,0 UV-I 0 W/m 8,8 C 9,6 C 3,2 km/h (1 Bft) 100,00 %
26.04.2017 01:04 9,5 C 10,0 C 95 % 1005,6 hPa 0,0 l/m 2,1 km/h (1 Bft) N-NO 18 0 min 0,000 mm 0,0 UV-I 0 W/m 8,7 C 9,5 C 6,4 km/h (2 Bft) 100,00 %
26.04.2017 01:06 9,6 C 10,0 C 95 % 1005,6 hPa 0,0 l/m 3,7 km/h (1 Bft) N-NO 19 0 min 0,000 mm 0,0 UV-I 0 W/m 8,8 C 9,6 C 8,0 km/h (2 Bft) 100,00 %
26.04.2017 01:08 9,6 C 10,0 C 95 % 1005,6 hPa 0,0 l/m 3,6 km/h (1 Bft) N-NO 18 0 min 0,000 mm 0,0 UV-I 0 W/m 8,8 C 9,6 C 8,0 km/h (2 Bft) 97,14 %
26.04.2017 01:10 9,5 C 10,0 C 95 % 1005,6 hPa 0,0 l/m 2,7 km/h (1 Bft) N-NO 19 0 min 0,000 mm 0,0 UV-I 0 W/m 8,7 C 9,5 C 6,4 km/h (2 Bft) 100,00 %
26.04.2017 01:12 9,5 C 10,0 C 94 % 1005,5 hPa 0,0 l/m 2,0 km/h (1 Bft) N 10 0 min 0,000 mm 0,0 UV-I 0 W/m 8,6 C 9,5 C 4,8 km/h (1 Bft) 100,00 %
26.04.2017 01:14 9,5 C 10,0 C 94 % 1005,6 hPa 0,0 l/m 2,2 km/h (1 Bft) N 5 0 min 0,000 mm 0,0 UV-I 0 W/m 8,6 C 9,5 C 6,4 km/h (2 Bft) 98,21 %
26.04.2017 01:16 9,4 C 10,0 C 94 % 1005,5 hPa 0,0 l/m 2,5 km/h (1 Bft) N-NO 13 0 min 0,000 mm 0,0 UV-I 0 W/m 8,5 C 9,4 C 4,8 km/h (1 Bft) 100,00 %
26.04.2017 01:18 9,4 C 10,0 C 94 % 1005,5 hPa 0,0 l/m 4,4 km/h (1 Bft) N-NO 17 0 min 0,000 mm 0,0 UV-I 0 W/m 8,5 C 9,4 C 11,3 km/h (2 Bft) 100,00 %
26.04.2017 01:20 9,4 C 10,0 C 94 % 1005,5 hPa 0,0 l/m 8,2 km/h (2 Bft) NO 36 0 min 0,000 mm 0,0 UV-I 0 W/m 8,5 C 8,1 C 12,9 km/h (3 Bft) 100,00 %
26.04.2017 01:22 9,4 C 9,4 C 94 % 1005,3 hPa 0,0 l/m 6,4 km/h (2 Bft) NO 37 0 min 0,000 mm 0,0 UV-I 0 W/m 8,5 C 9,4 C 12,9 km/h (3 Bft) 97,37 %
26.04.2017 01:24 9,4 C 9,4 C 94 % 1005,2 hPa 0,0 l/m 7,4 km/h (2 Bft) N-NO 18 0 min 0,000 mm 0,0 UV-I 0 W/m 8,5 C 8,7 C 11,3 km/h (2 Bft) 100,00 %
26.04.2017 01:26 9,4 C 9,4 C 93 % 1005,3 hPa 0,0 l/m 9,0 km/h (2 Bft) N-NO 28 0 min 0,000 mm 0,0 UV-I 0 W/m 8,3 C 7,6 C 12,9 km/h (3 Bft) 100,00 %
26.04.2017 01:28 9,3 C 9,4 C 93 % 1005,3 hPa 0,0 l/m 10,2 km/h (2 Bft) NO 43 0 min 0,000 mm 0,0 UV-I 0 W/m 8,2 C 6,7 C 16,1 km/h (3 Bft) 100,00 %
26.04.2017 01:30 9,3 C 9,4 C 93 % 1005,3 hPa 0,0 l/m 7,8 km/h (2 Bft) NO 55 0 min 0,000 mm 0,0 UV-I 0 W/m 8,2 C 8,3 C 11,3 km/h (2 Bft) 100,00 %
26.04.2017 01:32 9,3 C 9,4 C 92 % 1005,2 hPa 0,0 l/m 7,3 km/h (2 Bft) N-NO 33 0 min 0,000 mm 0,0 UV-I 0 W/m 8,1 C 8,6 C 12,9 km/h (3 Bft) 100,00 %
26.04.2017 01:34 9,3 C 9,4 C 92 % 1005,2 hPa 0,0 l/m 7,8 km/h (2 Bft) NO 34 0 min 0,000 mm 0,0 UV-I 0 W/m 8,1 C 8,3 C 14,5 km/h (3 Bft) 100,00 %
26.04.2017 01:36 9,2 C 9,4 C 92 % 1005,2 hPa 0,0 l/m 8,9 km/h (2 Bft) NO 41 0 min 0,000 mm 0,0 UV-I 0 W/m 8,0 C 7,4 C 12,9 km/h (3 Bft) 100,00 %
26.04.2017 01:38 9,2 C 9,4 C 92 % 1005,1 hPa 0,0 l/m 3,5 km/h (1 Bft) N-NO 22 0 min 0,000 mm 0,0 UV-I 0 W/m 8,0 C 9,2 C 8,0 km/h (2 Bft) 97,73 %
26.04.2017 01:40 9,2 C 9,4 C 92 % 1005,1 hPa 0,0 l/m 1,8 km/h (1 Bft) N-NO 20 0 min 0,000 mm 0,0 UV-I 0 W/m 8,0 C 9,2 C 4,8 km/h (1 Bft) 100,00 %
26.04.2017 01:42 9,2 C 9,4 C 92 % 1005,0 hPa 0,0 l/m 2,8 km/h (1 Bft) N-NO 19 0 min 0,000 mm 0,0 UV-I 0 W/m 8,0 C 9,2 C 6,4 km/h (2 Bft) 100,00 %
26.04.2017 01:44 9,2 C 9,4 C 92 % 1005,0 hPa 0,0 l/m 3,4 km/h (1 Bft) N 9 0 min 0,000 mm 0,0 UV-I 0 W/m 8,0 C 9,2 C 6,4 km/h (2 Bft) 100,00 %
26.04.2017 01:46 9,1 C 9,4 C 92 % 1004,9 hPa 0,0 l/m 6,9 km/h (2 Bft) N-NO 30 0 min 0,000 mm 0,0 UV-I 0 W/m 7,9 C 8,7 C 9,7 km/h (2 Bft) 98,00 %
26.04.2017 01:48 9,1 C 9,4 C 92 % 1004,9 hPa 0,0 l/m 8,1 km/h (2 Bft) N-NO 17 0 min 0,000 mm 0,0 UV-I 0 W/m 7,9 C 7,8 C 12,9 km/h (3 Bft) 100,00 %
26.04.2017 01:50 9,0 C 9,4 C 92 % 1004,8 hPa 0,0 l/m 7,5 km/h (2 Bft) N-NO 30 0 min 0,000 mm 0,0 UV-I 0 W/m 7,8 C 8,2 C 16,1 km/h (3 Bft) 98,11 %
26.04.2017 01:52 8,9 C 9,4 C 91 % 1004,8 hPa 0,0 l/m 11,2 km/h (2 Bft) N-NO 14 0 min 0,000 mm 0,0 UV-I 0 W/m 7,5 C 5,7 C 14,5 km/h (3 Bft) 100,00 %
26.04.2017 01:54 8,9 C 9,4 C 91 % 1004,8 hPa 0,0 l/m 11,1 km/h (2 Bft) NO 49 0 min 0,000 mm 0,0 UV-I 0 W/m 7,5 C 5,7 C 16,1 km/h (3 Bft) 100,00 %
26.04.2017 01:56 8,9 C 9,4 C 90 % 1004,7 hPa 0,0 l/m 8,8 km/h (2 Bft) N 11 0 min 0,000 mm 0,0 UV-I 0 W/m 7,4 C 7,1 C 12,9 km/h (3 Bft) 100,00 %
26.04.2017 01:58 8,9 C 9,4 C 90 % 1004,6 hPa 0,0 l/m 10,9 km/h (2 Bft) N-NO 30 0 min 0,000 mm 0,0 UV-I 0 W/m 7,4 C 5,9 C 17,7 km/h (3 Bft) 100,00 %
26.04.2017 02:00 8,9 C 9,4 C 89 % 1004,7 hPa 0,0 l/m 10,3 km/h (2 Bft) NO 34 0 min 0,000 mm 0,0 UV-I 0 W/m 7,2 C 6,2 C 16,1 km/h (3 Bft) 98,21 %
26.04.2017 02:02 8,8 C 9,4 C 88 % 1004,6 hPa 0,0 l/m 10,5 km/h (2 Bft) O-NO 58 0 min 0,000 mm 0,0 UV-I 0 W/m 6,9 C 6,0 C 16,1 km/h (3 Bft) 97,37 %
26.04.2017 02:04 8,8 C 9,4 C 88 % 1004,6 hPa 0,0 l/m 12,8 km/h (3 Bft) NO 49 0 min 0,000 mm 0,0 UV-I 0 W/m 6,9 C 4,7 C 19,3 km/h (3 Bft) 98,00 %
26.04.2017 02:06 8,8 C 10,0 C 88 % 1004,6 hPa 0,0 l/m 7,5 km/h (2 Bft) O-NO 65 0 min 0,000 mm 0,0 UV-I 0 W/m 6,9 C 8,0 C 11,3 km/h (2 Bft) 97,87 %
26.04.2017 02:08 8,8 C 10,0 C 87 % 1004,5 hPa 0,0 l/m 12,1 km/h (2 Bft) NO 44 0 min 0,000 mm 0,0 UV-I 0 W/m 6,8 C 5,1 C 19,3 km/h (3 Bft) 97,87 %
26.04.2017 02:10 8,8 C 10,0 C 87 % 1004,4 hPa 0,0 l/m 12,5 km/h (3 Bft) NO 55 0 min 0,000 mm 0,0 UV-I 0 W/m 6,8 C 4,9 C 16,1 km/h (3 Bft) 97,73 %
26.04.2017 02:12 8,7 C 10,0 C 87 % 1004,5 hPa 0,0 l/m 10,3 km/h (2 Bft) NO 54 0 min 0,000 mm 0,0 UV-I 0 W/m 6,7 C 6,0 C 16,1 km/h (3 Bft) 94,34 %
26.04.2017 02:14 8,7 C 10,0 C 87 % 1004,5 hPa 0,0 l/m 6,8 km/h (2 Bft) NO 38 0 min 0,000 mm 0,0 UV-I 0 W/m 6,7 C 8,4 C 9,7 km/h (2 Bft) 98,00 %
26.04.2017 02:16 8,7 C 10,0 C 87 % 1004,5 hPa 0,0 l/m 7,4 km/h (2 Bft) O-NO 63 0 min 0,000 mm 0,0 UV-I 0 W/m 6,7 C 7,9 C 12,9 km/h (3 Bft) 97,44 %
26.04.2017 02:18 8,7 C 10,6 C 87 % 1004,5 hPa 0,0 l/m 5,1 km/h (1 Bft) O-NO 59 0 min 0,000 mm 0,0 UV-I 0 W/m 6,7 C 8,7 C 8,0 km/h (2 Bft) 96,23 %
26.04.2017 02:20 8,7 C 10,6 C 87 % 1004,5 hPa 0,0 l/m 5,3 km/h (1 Bft) NO 39 0 min 0,000 mm 0,0 UV-I 0 W/m 6,7 C 8,7 C 8,0 km/h (2 Bft) 94,74 %
26.04.2017 02:22 8,7 C 10,6 C 87 % 1004,4 hPa 0,0 l/m 4,7 km/h (1 Bft) NO 39 0 min 0,000 mm 0,0 UV-I 0 W/m 6,7 C 8,7 C 6,4 km/h (2 Bft) 95,74 %
26.04.2017 02:24 8,7 C 10,6 C 87 % 1004,4 hPa 0,0 l/m 5,4 km/h (1 Bft) NO 52 0 min 0,000 mm 0,0 UV-I 0 W/m 6,7 C 8,7 C 8,0 km/h (2 Bft) 98,00 %
26.04.2017 02:26 8,6 C 10,6 C 87 % 1004,4 hPa 0,0 l/m 4,5 km/h (1 Bft) NO 44 0 min 0,000 mm 0,0 UV-I 0 W/m 6,6 C 8,6 C 6,4 km/h (2 Bft) 97,56 %
26.04.2017 02:28 8,6 C 10,6 C 87 % 1004,3 hPa 0,0 l/m 6,6 km/h (2 Bft) O-NO 64 0 min 0,000 mm 0,0 UV-I 0 W/m 6,6 C 8,5 C 9,7 km/h (2 Bft) 94,64 %
26.04.2017 02:30 8,7 C 10,6 C 87 % 1004,4 hPa 0,0 l/m 3,8 km/h (1 Bft) O-NO 59 0 min 0,000 mm 0,0 UV-I 0 W/m 6,7 C 8,7 C 6,4 km/h (2 Bft) 88,00 %
26.04.2017 02:32 8,7 C 10,6 C 87 % 1004,4 hPa 0,0 l/m 2,8 km/h (1 Bft) O-NO 58 0 min 0,000 mm 0,0 UV-I 0 W/m 6,7 C 8,7 C 4,8 km/h (1 Bft) 92,31 %
26.04.2017 02:34 8,7 C 10,6 C 88 % 1004,3 hPa 0,0 l/m 3,1 km/h (1 Bft) O-NO 58 0 min 0,000 mm 0,0 UV-I 0 W/m 6,8 C 8,7 C 4,8 km/h (1 Bft) 95,74 %
26.04.2017 02:36 8,7 C 10,6 C 88 % 1004,4 hPa 0,0 l/m 2,3 km/h (1 Bft) O-NO 58 0 min 0,000 mm 0,0 UV-I 0 W/m 6,8 C 8,7 C 4,8 km/h (1 Bft) 96,00 %
26.04.2017 02:38 8,7 C 10,6 C 88 % 1004,4 hPa 0,0 l/m 2,2 km/h (1 Bft) O-NO 58 0 min 0,000 mm 0,0 UV-I 0 W/m 6,8 C 8,7 C 3,2 km/h (1 Bft) 92,31 %
26.04.2017 02:40 8,6 C 10,6 C 89 % 1004,3 hPa 0,0 l/m 3,4 km/h (1 Bft) O-NO 61 0 min 0,000 mm 0,0 UV-I 0 W/m 6,9 C 8,6 C 4,8 km/h (1 Bft) 95,83 %
26.04.2017 02:42 8,6 C 10,6 C 90 % 1004,3 hPa 0,0 l/m 1,3 km/h (1 Bft) O-NO 61 0 min 0,000 mm 0,0 UV-I 0 W/m 7,1 C 8,6 C 3,2 km/h (1 Bft) 97,14 %
26.04.2017 02:44 8,6 C 10,6 C 90 % 1004,2 hPa 0,0 l/m 3,3 km/h (1 Bft) O-NO 60 0 min 0,000 mm 0,0 UV-I 0 W/m 7,1 C 8,6 C 4,8 km/h (1 Bft) 92,45 %
26.04.2017 02:46 8,5 C 10,6 C 90 % 1004,2 hPa 0,0 l/m 5,1 km/h (1 Bft) NO 40 0 min 0,000 mm 0,0 UV-I 0 W/m 7,0 C 8,5 C 12,9 km/h (3 Bft) 93,62 %
26.04.2017 02:48 8,5 C 10,6 C 89 % 1004,1 hPa 0,0 l/m 9,5 km/h (2 Bft) N-NO 21 0 min 0,000 mm 0,0 UV-I 0 W/m 6,8 C 6,3 C 14,5 km/h (3 Bft) 96,00 %
26.04.2017 02:50 8,5 C 10,6 C 88 % 1004,2 hPa 0,0 l/m 7,5 km/h (2 Bft) N-NO 15 0 min 0,000 mm 0,0 UV-I 0 W/m 6,6 C 7,6 C 14,5 km/h (3 Bft) 95,12 %
26.04.2017 02:52 8,4 C 10,6 C 88 % 1004,2 hPa 0,0 l/m 6,7 km/h (2 Bft) N-NO 32 0 min 0,000 mm 0,0 UV-I 0 W/m 6,5 C 8,2 C 11,3 km/h (2 Bft) 96,23 %
26.04.2017 02:54 8,5 C 10,6 C 88 % 1004,3 hPa 0,0 l/m 6,7 km/h (2 Bft) NO 39 0 min 0,000 mm 0,0 UV-I 0 W/m 6,6 C 8,3 C 11,3 km/h (2 Bft) 94,74 %
26.04.2017 02:56 8,5 C 10,6 C 88 % 1004,3 hPa 0,0 l/m 8,4 km/h (2 Bft) NO 43 0 min 0,000 mm 0,0 UV-I 0 W/m 6,6 C 7,0 C 14,5 km/h (3 Bft) 93,62 %
26.04.2017 02:58 8,4 C 10,6 C 88 % 1004,3 hPa 0,0 l/m 7,5 km/h (2 Bft) N 11 0 min 0,000 mm 0,0 UV-I 0 W/m 6,5 C 7,5 C 9,7 km/h (2 Bft) 96,43 %
26.04.2017 03:00 8,4 C 10,6 C 88 % 1004,3 hPa 0,0 l/m 6,1 km/h (2 Bft) N-NO 21 0 min 0,000 mm 0,0 UV-I 0 W/m 6,5 C 8,4 C 8,0 km/h (2 Bft) 95,45 %
26.04.2017 03:02 8,4 C 10,6 C 88 % 1004,3 hPa 0,0 l/m 3,9 km/h (1 Bft) N-NO 28 0 min 0,000 mm 0,0 UV-I 0 W/m 6,5 C 8,4 C 8,0 km/h (2 Bft) 91,49 %
26.04.2017 03:04 8,4 C 10,6 C 88 % 1004,3 hPa 0,0 l/m 7,9 km/h (2 Bft) N-NO 19 0 min 0,000 mm 0,0 UV-I 0 W/m 6,5 C 7,2 C 12,9 km/h (3 Bft) 98,00 %
26.04.2017 03:06 8,4 C 10,6 C 87 % 1004,3 hPa 0,0 l/m 6,7 km/h (2 Bft) N-NO 14 0 min 0,000 mm 0,0 UV-I 0 W/m 6,4 C 8,2 C 11,3 km/h (2 Bft) 100,00 %
26.04.2017 03:08 8,4 C 10,6 C 88 % 1004,3 hPa 0,0 l/m 7,1 km/h (2 Bft) N-NO 22 0 min 0,000 mm 0,0 UV-I 0 W/m 6,5 C 7,9 C 9,7 km/h (2 Bft) 94,87 %
26.04.2017 03:10 8,4 C 10,6 C 88 % 1004,3 hPa 0,0 l/m 4,6 km/h (1 Bft) N-NO 14 0 min 0,000 mm 0,0 UV-I 0 W/m 6,5 C 8,4 C 9,7 km/h (2 Bft) 100,00 %
26.04.2017 03:12 8,4 C 10,6 C 88 % 1004,4 hPa 0,0 l/m 3,3 km/h (1 Bft) N-NO 19 0 min 0,000 mm 0,0 UV-I 0 W/m 6,5 C 8,4 C 6,4 km/h (2 Bft) 100,00 %
26.04.2017 03:14 8,4 C 10,6 C 88 % 1004,5 hPa 0,0 l/m 3,4 km/h (1 Bft) NO 47 0 min 0,000 mm 0,0 UV-I 0 W/m 6,5 C 8,4 C 6,4 km/h (2 Bft) 98,28 %
26.04.2017 03:16 8,4 C 10,6 C 88 % 1004,5 hPa 0,0 l/m 6,2 km/h (2 Bft) N-NO 19 0 min 0,000 mm 0,0 UV-I 0 W/m 6,5 C 8,4 C 11,3 km/h (2 Bft) 97,62 %
26.04.2017 03:18 8,4 C 10,6 C 88 % 1004,5 hPa 0,0 l/m 6,2 km/h (2 Bft) NO 36 0 min 0,000 mm 0,0 UV-I 0 W/m 6,5 C 8,4 C 12,9 km/h (3 Bft) 97,56 %
26.04.2017 03:20 8,3 C 10,6 C 88 % 1004,6 hPa 0,0 l/m 4,4 km/h (1 Bft) N-NO 26 0 min 0,000 mm 0,0 UV-I 0 W/m 6,4 C 8,3 C 8,0 km/h (2 Bft) 98,11 %
26.04.2017 03:22 8,3 C 10,6 C 88 % 1004,6 hPa 0,0 l/m 12,4 km/h (3 Bft) N-NO 26 0 min 0,000 mm 0,0 UV-I 0 W/m 6,4 C 4,3 C 19,3 km/h (3 Bft) 100,00 %
26.04.2017 03:24 8,4 C 10,6 C 88 % 1004,6 hPa 0,0 l/m 8,8 km/h (2 Bft) N 5 0 min 0,000 mm 0,0 UV-I 0 W/m 6,5 C 6,6 C 14,5 km/h (3 Bft) 100,00 %
26.04.2017 03:26 8,4 C 10,6 C 87 % 1004,6 hPa 0,0 l/m 7,2 km/h (2 Bft) N-NO 28 0 min 0,000 mm 0,0 UV-I 0 W/m 6,4 C 7,8 C 12,9 km/h (3 Bft) 100,00 %
26.04.2017 03:28 8,4 C 10,6 C 88 % 1004,5 hPa 0,0 l/m 5,3 km/h (1 Bft) N-NO 14 0 min 0,000 mm 0,0 UV-I 0 W/m 6,5 C 8,4 C 12,9 km/h (3 Bft) 98,21 %
26.04.2017 03:30 8,4 C 10,6 C 88 % 1004,6 hPa 0,0 l/m 4,9 km/h (1 Bft) N-NO 24 0 min 0,000 mm 0,0 UV-I 0 W/m 6,5 C 8,4 C 12,9 km/h (3 Bft) 100,00 %
26.04.2017 03:32 8,4 C 10,6 C 88 % 1004,6 hPa 0,0 l/m 4,8 km/h (1 Bft) NO 43 0 min 0,000 mm 0,0 UV-I 0 W/m 6,5 C 8,4 C 8,0 km/h (2 Bft) 100,00 %
26.04.2017 03:34 8,3 C 10,6 C 88 % 1004,6 hPa 0,0 l/m 1,7 km/h (1 Bft) N-NO 26 0 min 0,000 mm 0,0 UV-I 0 W/m 6,4 C 8,3 C 4,8 km/h (1 Bft) 100,00 %
26.04.2017 03:36 8,3 C 10,6 C 88 % 1004,6 hPa 0,0 l/m 1,0 km/h (0 Bft) NO 34 0 min 0,000 mm 0,0 UV-I 0 W/m 6,4 C 8,3 C 3,2 km/h (1 Bft) 100,00 %
26.04.2017 03:38 8,3 C 10,6 C 88 % 1004,6 hPa 0,0 l/m 2,0 km/h (1 Bft) N-NO 20 0 min 0,000 mm 0,0 UV-I 0 W/m 6,4 C 8,3 C 9,7 km/h (2 Bft) 97,73 %
26.04.2017 03:40 8,3 C 10,6 C 88 % 1004,6 hPa 0,0 l/m 1,1 km/h (1 Bft) N 11 0 min 0,000 mm 0,0 UV-I 0 W/m 6,4 C 8,3 C 3,2 km/h (1 Bft) 100,00 %
26.04.2017 03:42 8,3 C 10,6 C 87 % 1004,6 hPa 0,0 l/m 3,5 km/h (1 Bft) NO 35 0 min 0,000 mm 0,0 UV-I 0 W/m 6,3 C 8,3 C 6,4 km/h (2 Bft) 100,00 %
26.04.2017 03:44 8,3 C 10,6 C 87 % 1004,6 hPa 0,0 l/m 4,3 km/h (1 Bft) N-NO 22 0 min 0,000 mm 0,0 UV-I 0 W/m 6,3 C 8,3 C 8,0 km/h (2 Bft) 100,00 %
26.04.2017 03:46 8,3 C 10,6 C 87 % 1004,6 hPa 0,0 l/m 2,4 km/h (1 Bft) N-NO 19 0 min 0,000 mm 0,0 UV-I 0 W/m 6,3 C 8,3 C 4,8 km/h (1 Bft) 100,00 %
26.04.2017 03:48 8,3 C 10,6 C 88 % 1004,6 hPa 0,0 l/m 5,4 km/h (1 Bft) N-NO 22 0 min 0,000 mm 0,0 UV-I 0 W/m 6,4 C 8,3 C 12,9 km/h (3 Bft) 98,21 %
26.04.2017 03:50 8,3 C 10,6 C 87 % 1004,6 hPa 0,0 l/m 5,7 km/h (1 Bft) N-NO 14 0 min 0,000 mm 0,0 UV-I 0 W/m 6,3 C 8,3 C 11,3 km/h (2 Bft) 100,00 %
26.04.2017 03:52 8,3 C 10,6 C 87 % 1004,6 hPa 0,0 l/m 4,6 km/h (1 Bft) NO 40 0 min 0,000 mm 0,0 UV-I 0 W/m 6,3 C 8,3 C 9,7 km/h (2 Bft) 100,00 %
26.04.2017 03:54 8,3 C 10,6 C 87 % 1004,6 hPa 0,0 l/m 4,2 km/h (1 Bft) N-NO 16 0 min 0,000 mm 0,0 UV-I 0 W/m 6,3 C 8,3 C 14,5 km/h (3 Bft) 98,00 %
26.04.2017 03:56 8,3 C 10,6 C 87 % 1004,6 hPa 0,0 l/m 5,7 km/h (1 Bft) N 5 0 min 0,000 mm 0,0 UV-I 0 W/m 6,3 C 8,3 C 12,9 km/h (3 Bft) 100,00 %
26.04.2017 03:58 8,3 C 10,6 C 87 % 1004,6 hPa 0,0 l/m 6,0 km/h (2 Bft) NO 44 0 min 0,000 mm 0,0 UV-I 0 W/m 6,3 C 8,3 C 9,7 km/h (2 Bft) 100,00 %
26.04.2017 04:00 8,3 C 10,6 C 87 % 1004,6 hPa 0,0 l/m 4,5 km/h (1 Bft) N-NO 28 0 min 0,000 mm 0,0 UV-I 0 W/m 6,3 C 8,3 C 8,0 km/h (2 Bft) 94,87 %
26.04.2017 04:02 8,3 C 10,6 C 87 % 1004,6 hPa 0,0 l/m 4,6 km/h (1 Bft) N-NO 23 0 min 0,000 mm 0,0 UV-I 0 W/m 6,3 C 8,3 C 4,8 km/h (1 Bft) 100,00 %
26.04.2017 04:04 8,3 C 10,6 C 88 % 1004,6 hPa 0,0 l/m 6,8 km/h (2 Bft) N-NO 24 0 min 0,000 mm 0,0 UV-I 0 W/m 6,4 C 8,0 C 12,9 km/h (3 Bft) 100,00 %
26.04.2017 04:06 8,3 C 10,6 C 88 % 1004,6 hPa 0,0 l/m 4,0 km/h (1 Bft) N-NO 30 0 min 0,000 mm 0,0 UV-I 0 W/m 6,4 C 8,3 C 8,0 km/h (2 Bft) 100,00 %
26.04.2017 04:08 8,3 C 10,6 C 88 % 1004,6 hPa 0,0 l/m 3,6 km/h (1 Bft) N-NO 26 0 min 0,000 mm 0,0 UV-I 0 W/m 6,4 C 8,3 C 6,4 km/h (2 Bft) 97,87 %
26.04.2017 04:10 8,3 C 10,6 C 88 % 1004,6 hPa 0,0 l/m 3,5 km/h (1 Bft) N-NO 26 0 min 0,000 mm 0,0 UV-I 0 W/m 6,4 C 8,3 C 4,8 km/h (1 Bft) 100,00 %
26.04.2017 04:12 8,2 C 10,6 C 88 % 1004,6 hPa 0,0 l/m 2,6 km/h (1 Bft) N-NO 25 0 min 0,000 mm 0,0 UV-I 0 W/m 6,3 C 8,2 C 6,4 km/h (2 Bft) 98,00 %
26.04.2017 04:14 8,2 C 10,6 C 88 % 1004,7 hPa 0,0 l/m 1,8 km/h (1 Bft) N-NO 25 0 min 0,000 mm 0,0 UV-I 0 W/m 6,3 C 8,2 C 6,4 km/h (2 Bft) 100,00 %
26.04.2017 04:16 8,2 C 10,6 C 88 % 1004,7 hPa 0,0 l/m 1,0 km/h (0 Bft) N-NO 25 0 min 0,000 mm 0,0 UV-I 0 W/m 6,3 C 8,2 C 3,2 km/h (1 Bft) 97,14 %
26.04.2017 04:18 8,2 C 10,6 C 88 % 1004,7 hPa 0,0 l/m 1,4 km/h (1 Bft) N-NO 25 0 min 0,000 mm 0,0 UV-I 0 W/m 6,3 C 8,2 C 4,8 km/h (1 Bft) 98,11 %
26.04.2017 04:20 8,2 C 10,6 C 88 % 1004,7 hPa 0,0 l/m 2,3 km/h (1 Bft) N-NO 25 0 min 0,000 mm 0,0 UV-I 0 W/m 6,3 C 8,2 C 4,8 km/h (1 Bft) 100,00 %
26.04.2017 04:22 8,2 C 10,6 C 88 % 1004,7 hPa 0,0 l/m 2,9 km/h (1 Bft) N-NO 25 0 min 0,000 mm 0,0 UV-I 0 W/m 6,3 C 8,2 C 4,8 km/h (1 Bft) 100,00 %
26.04.2017 04:24 8,2 C 10,6 C 88 % 1004,6 hPa 0,0 l/m 3,2 km/h (1 Bft) N-NO 25 0 min 0,000 mm 0,0 UV-I 0 W/m 6,3 C 8,2 C 4,8 km/h (1 Bft) 100,00 %
26.04.2017 04:26 8,2 C 10,6 C 88 % 1004,5 hPa 0,0 l/m 4,5 km/h (1 Bft) N-NO 25 0 min 0,000 mm 0,0 UV-I 0 W/m 6,3 C 8,2 C 6,4 km/h (2 Bft) 100,00 %
26.04.2017 04:28 8,2 C 10,6 C 88 % 1004,5 hPa 0,0 l/m 4,7 km/h (1 Bft) N-NO 28 0 min 0,000 mm 0,0 UV-I 0 W/m 6,3 C 8,2 C 6,4 km/h (2 Bft) 100,00 %
26.04.2017 04:30 8,2 C 10,6 C 88 % 1004,5 hPa 0,0 l/m 3,7 km/h (1 Bft) N-NO 28 0 min 0,000 mm 0,0 UV-I 0 W/m 6,3 C 8,2 C 4,8 km/h (1 Bft) 100,00 %
26.04.2017 04:32 8,2 C 10,6 C 88 % 1004,5 hPa 0,0 l/m 4,0 km/h (1 Bft) N-NO 28 0 min 0,000 mm 0,0 UV-I 0 W/m 6,3 C 8,2 C 6,4 km/h (2 Bft) 100,00 %
26.04.2017 04:34 8,2 C 10,6 C 89 % 1004,5 hPa 0,0 l/m 4,6 km/h (1 Bft) N-NO 32 0 min 0,000 mm 0,0 UV-I 0 W/m 6,5 C 8,2 C 8,0 km/h (2 Bft) 100,00 %
26.04.2017 04:36 8,2 C 10,6 C 89 % 1004,5 hPa 0,0 l/m 5,3 km/h (1 Bft) N-NO 30 0 min 0,000 mm 0,0 UV-I 0 W/m 6,5 C 8,2 C 8,0 km/h (2 Bft) 98,11 %
26.04.2017 04:38 8,2 C 10,6 C 89 % 1004,5 hPa 0,0 l/m 4,3 km/h (1 Bft) N-NO 30 0 min 0,000 mm 0,0 UV-I 0 W/m 6,5 C 8,2 C 6,4 km/h (2 Bft) 96,00 %
26.04.2017 04:40 8,2 C 10,6 C 89 % 1004,4 hPa 0,0 l/m 4,3 km/h (1 Bft) N-NO 29 0 min 0,000 mm 0,0 UV-I 0 W/m 6,5 C 8,2 C 6,4 km/h (2 Bft) 97,37 %
26.04.2017 04:42 8,2 C 10,6 C 89 % 1004,4 hPa 0,0 l/m 3,2 km/h (1 Bft) N-NO 29 0 min 0,000 mm 0,0 UV-I 0 W/m 6,5 C 8,2 C 4,8 km/h (1 Bft) 97,87 %
26.04.2017 04:44 8,2 C 10,6 C 89 % 1004,4 hPa 0,0 l/m 3,7 km/h (1 Bft) N-NO 29 0 min 0,000 mm 0,0 UV-I 0 W/m 6,5 C 8,2 C 4,8 km/h (1 Bft) 95,74 %
26.04.2017 04:46 8,2 C 10,6 C 89 % 1004,3 hPa 0,0 l/m 3,2 km/h (1 Bft) N-NO 29 0 min 0,000 mm 0,0 UV-I 0 W/m 6,5 C 8,2 C 4,8 km/h (1 Bft) 98,11 %
26.04.2017 04:48 8,2 C 10,6 C 89 % 1004,3 hPa 0,0 l/m 4,3 km/h (1 Bft) N-NO 32 0 min 0,000 mm 0,0 UV-I 0 W/m 6,5 C 8,2 C 6,4 km/h (2 Bft) 93,62 %
26.04.2017 04:50 8,2 C 10,6 C 88 % 1004,3 hPa 0,0 l/m 4,4 km/h (1 Bft) NO 37 0 min 0,000 mm 0,0 UV-I 0 W/m 6,3 C 8,2 C 6,4 km/h (2 Bft) 95,74 %
26.04.2017 04:52 8,2 C 10,6 C 88 % 1004,3 hPa 0,0 l/m 5,3 km/h (1 Bft) N-NO 31 0 min 0,000 mm 0,0 UV-I 0 W/m 6,3 C 8,2 C 8,0 km/h (2 Bft) 97,73 %
26.04.2017 04:54 8,3 C 10,6 C 88 % 1004,3 hPa 0,0 l/m 4,1 km/h (1 Bft) O-NO 61 0 min 0,000 mm 0,0 UV-I 0 W/m 6,4 C 8,3 C 8,0 km/h (2 Bft) 97,73 %
26.04.2017 04:56 8,3 C 10,6 C 87 % 1004,3 hPa 0,0 l/m 5,6 km/h (1 Bft) NO 54 0 min 0,000 mm 0,0 UV-I 0 W/m 6,3 C 8,3 C 8,0 km/h (2 Bft) 96,43 %
26.04.2017 04:58 8,3 C 10,6 C 87 % 1004,3 hPa 0,0 l/m 4,9 km/h (1 Bft) NO 52 0 min 0,000 mm 0,0 UV-I 0 W/m 6,3 C 8,3 C 6,4 km/h (2 Bft) 97,37 %
26.04.2017 05:00 8,4 C 10,6 C 86 % 1004,2 hPa 0,0 l/m 7,2 km/h (2 Bft) O-NO 60 0 min 0,000 mm 0,0 UV-I 0 W/m 6,2 C 7,8 C 11,3 km/h (2 Bft) 95,74 %
26.04.2017 05:02 8,4 C 10,6 C 86 % 1004,2 hPa 0,0 l/m 6,7 km/h (2 Bft) NO 54 0 min 0,000 mm 0,0 UV-I 0 W/m 6,2 C 8,2 C 9,7 km/h (2 Bft) 98,00 %
26.04.2017 05:04 8,4 C 10,6 C 86 % 1004,2 hPa 0,0 l/m 6,7 km/h (2 Bft) O-NO 57 0 min 0,000 mm 0,0 UV-I 0 W/m 6,2 C 8,2 C 12,9 km/h (3 Bft) 97,37 %
26.04.2017 05:06 8,4 C 10,6 C 86 % 1004,3 hPa 0,0 l/m 7,0 km/h (2 Bft) O-NO 62 0 min 0,000 mm 0,0 UV-I 0 W/m 6,2 C 7,9 C 9,7 km/h (2 Bft) 94,64 %
26.04.2017 05:08 8,4 C 10,6 C 86 % 1004,3 hPa 0,0 l/m 6,3 km/h (2 Bft) NO 55 0 min 0,000 mm 0,0 UV-I 0 W/m 6,2 C 8,4 C 8,0 km/h (2 Bft) 97,44 %
26.04.2017 05:10 8,4 C 10,6 C 86 % 1004,3 hPa 0,0 l/m 5,8 km/h (2 Bft) O-NO 65 0 min 0,000 mm 0,0 UV-I 0 W/m 6,2 C 8,4 C 8,0 km/h (2 Bft) 96,36 %
26.04.2017 05:12 8,4 C 10,6 C 86 % 1004,3 hPa 0,0 l/m 5,0 km/h (1 Bft) NO 50 0 min 0,000 mm 0,0 UV-I 0 W/m 6,2 C 8,4 C 8,0 km/h (2 Bft) 96,00 %
26.04.2017 05:14 8,4 C 10,6 C 86 % 1004,3 hPa 0,0 l/m 6,5 km/h (2 Bft) O-NO 61 0 min 0,000 mm 0,0 UV-I 0 W/m 6,2 C 8,3 C 9,7 km/h (2 Bft) 100,00 %
26.04.2017 05:16 8,4 C 10,6 C 86 % 1004,4 hPa 0,0 l/m 6,7 km/h (2 Bft) O-NO 68 0 min 0,000 mm 0,0 UV-I 0 W/m 6,2 C 8,2 C 9,7 km/h (2 Bft) 100,00 %
26.04.2017 05:18 8,4 C 10,6 C 86 % 1004,4 hPa 0,0 l/m 4,4 km/h (1 Bft) O-NO 60 0 min 0,000 mm 0,0 UV-I 0 W/m 6,2 C 8,4 C 6,4 km/h (2 Bft) 95,74 %
26.04.2017 05:20 8,4 C 10,6 C 86 % 1004,4 hPa 0,0 l/m 4,9 km/h (1 Bft) O-NO 61 0 min 0,000 mm 0,0 UV-I 0 W/m 6,2 C 8,4 C 8,0 km/h (2 Bft) 100,00 %
26.04.2017 05:22 8,4 C 10,6 C 86 % 1004,3 hPa 0,0 l/m 4,2 km/h (1 Bft) O-NO 61 0 min 0,000 mm 0,0 UV-I 0 W/m 6,2 C 8,4 C 6,4 km/h (2 Bft) 100,00 %
26.04.2017 05:24 8,4 C 10,6 C 86 % 1004,3 hPa 0,0 l/m 4,6 km/h (1 Bft) NO 50 0 min 0,000 mm 0,0 UV-I 0 W/m 6,2 C 8,4 C 6,4 km/h (2 Bft) 100,00 %
26.04.2017 05:26 8,4 C 10,6 C 86 % 1004,3 hPa 0,0 l/m 5,6 km/h (1 Bft) O-NO 65 0 min 0,000 mm 0,0 UV-I 0 W/m 6,2 C 8,4 C 8,0 km/h (2 Bft) 100,00 %
26.04.2017 05:28 8,4 C 10,6 C 87 % 1004,3 hPa 0,0 l/m 4,7 km/h (1 Bft) O-NO 65 0 min 0,000 mm 0,0 UV-I 0 W/m 6,4 C 8,4 C 6,4 km/h (2 Bft) 96,43 %
26.04.2017 05:30 8,4 C 10,6 C 87 % 1004,2 hPa 0,0 l/m 4,7 km/h (1 Bft) O-NO 65 0 min 0,000 mm 0,0 UV-I 0 W/m 6,4 C 8,4 C 6,4 km/h (2 Bft) 100,00 %
26.04.2017 05:32 8,3 C 10,6 C 87 % 1004,1 hPa 0,0 l/m 4,8 km/h (1 Bft) O-NO 63 0 min 0,000 mm 0,0 UV-I 0 W/m 6,3 C 8,3 C 6,4 km/h (2 Bft) 100,00 %
26.04.2017 05:34 8,3 C 10,6 C 87 % 1004,3 hPa 0,0 l/m 4,9 km/h (1 Bft) O-NO 65 0 min 0,000 mm 0,0 UV-I 0 W/m 6,3 C 8,3 C 6,4 km/h (2 Bft) 100,00 %
26.04.2017 05:36 8,3 C 10,6 C 87 % 1004,3 hPa 0,0 l/m 5,4 km/h (1 Bft) O-NO 66 0 min 0,000 mm 0,0 UV-I 0 W/m 6,3 C 8,3 C 8,0 km/h (2 Bft) 100,00 %
26.04.2017 05:38 8,3 C 10,6 C 88 % 1004,4 hPa 0,0 l/m 2,3 km/h (1 Bft) O-NO 66 0 min 0,000 mm 0,0 UV-I 0 W/m 6,4 C 8,3 C 4,8 km/h (1 Bft) 97,37 %
26.04.2017 05:40 8,3 C 10,6 C 88 % 1004,4 hPa 0,0 l/m 3,9 km/h (1 Bft) O-NO 66 0 min 0,000 mm 0,0 UV-I 0 W/m 6,4 C 8,3 C 6,4 km/h (2 Bft) 100,00 %
26.04.2017 05:42 8,3 C 10,6 C 88 % 1004,3 hPa 0,0 l/m 4,3 km/h (1 Bft) O 82 0 min 0,000 mm 0,0 UV-I 0 W/m 6,4 C 8,3 C 8,0 km/h (2 Bft) 97,56 %
26.04.2017 05:44 8,3 C 10,6 C 88 % 1004,3 hPa 0,0 l/m 4,0 km/h (1 Bft) O 80 0 min 0,000 mm 0,0 UV-I 0 W/m 6,4 C 8,3 C 6,4 km/h (2 Bft) 100,00 %
26.04.2017 05:46 8,2 C 10,6 C 88 % 1004,4 hPa 0,0 l/m 3,6 km/h (1 Bft) O 80 0 min 0,000 mm 0,0 UV-I 0 W/m 6,3 C 8,2 C 6,4 km/h (2 Bft) 100,00 %
26.04.2017 05:48 8,3 C 10,6 C 88 % 1004,4 hPa 0,0 l/m 2,6 km/h (1 Bft) O 80 0 min 0,000 mm 0,0 UV-I 0 W/m 6,4 C 8,3 C 4,8 km/h (1 Bft) 97,37 %
26.04.2017 05:50 8,2 C 10,6 C 88 % 1004,2 hPa 0,0 l/m 4,6 km/h (1 Bft) O-NO 60 0 min 0,000 mm 0,0 UV-I 0 W/m 6,3 C 8,2 C 6,4 km/h (2 Bft) 97,01 %
26.04.2017 05:52 8,2 C 10,6 C 87 % 1004,1 hPa 0,0 l/m 6,5 km/h (2 Bft) O-NO 59 0 min 0,000 mm 0,0 UV-I 0 W/m 6,2 C 8,1 C 8,0 km/h (2 Bft) 95,24 %
26.04.2017 05:54 8,2 C 10,6 C 87 % 1004,1 hPa 0,0 l/m 6,8 km/h (2 Bft) NO 51 0 min 0,000 mm 0,0 UV-I 0 W/m 6,2 C 7,9 C 9,7 km/h (2 Bft) 97,87 %
26.04.2017 05:56 8,2 C 10,6 C 87 % 1004,1 hPa 0,0 l/m 5,3 km/h (1 Bft) O-NO 57 0 min 0,000 mm 0,0 UV-I 0 W/m 6,2 C 8,2 C 6,4 km/h (2 Bft) 98,11 %
26.04.2017 05:58 8,2 C 10,6 C 88 % 1004,1 hPa 0,0 l/m 3,5 km/h (1 Bft) O-NO 58 0 min 0,000 mm 0,0 UV-I 0 W/m 6,3 C 8,2 C 6,4 km/h (2 Bft) 95,74 %
26.04.2017 06:00 8,2 C 10,6 C 88 % 1004,2 hPa 0,0 l/m 3,8 km/h (1 Bft) NO 55 0 min 0,000 mm 0,0 UV-I 3 W/m 6,3 C 8,2 C 4,8 km/h (1 Bft) 97,87 %
26.04.2017 06:02 8,1 C 10,6 C 88 % 1004,2 hPa 0,0 l/m 3,2 km/h (1 Bft) NO 55 0 min 0,000 mm 0,0 UV-I 5 W/m 6,2 C 8,1 C 4,8 km/h (1 Bft) 97,37 %
26.04.2017 06:04 8,1 C 10,6 C 88 % 1004,1 hPa 0,0 l/m 3,6 km/h (1 Bft) NO 55 0 min 0,000 mm 0,0 UV-I 5 W/m 6,2 C 8,1 C 4,8 km/h (1 Bft) 95,74 %
26.04.2017 06:06 8,1 C 10,6 C 88 % 1004,1 hPa 0,0 l/m 3,4 km/h (1 Bft) NO 55 0 min 0,000 mm 0,0 UV-I 5 W/m 6,2 C 8,1 C 4,8 km/h (1 Bft) 97,87 %
26.04.2017 06:08 8,0 C 10,6 C 89 % 1004,1 hPa 0,0 l/m 4,5 km/h (1 Bft) NO 53 0 min 0,000 mm 0,0 UV-I 7 W/m 6,3 C 8,0 C 6,4 km/h (2 Bft) 98,11 %
26.04.2017 06:10 7,9 C 10,6 C 89 % 1004,1 hPa 0,0 l/m 5,0 km/h (1 Bft) NO 47 0 min 0,000 mm 0,0 UV-I 7 W/m 6,2 C 7,9 C 8,0 km/h (2 Bft) 97,14 %
26.04.2017 06:12 7,9 C 10,6 C 89 % 1004,1 hPa 0,0 l/m 2,7 km/h (1 Bft) NO 47 0 min 0,000 mm 0,0 UV-I 9 W/m 6,2 C 7,9 C 6,4 km/h (2 Bft) 94,34 %
26.04.2017 06:14 7,8 C 10,6 C 89 % 1004,1 hPa 0,0 l/m 4,3 km/h (1 Bft) NO 45 0 min 0,000 mm 0,0 UV-I 11 W/m 6,1 C 7,8 C 8,0 km/h (2 Bft) 96,00 %
26.04.2017 06:16 7,8 C 10,6 C 89 % 1004,1 hPa 0,0 l/m 4,1 km/h (1 Bft) NO 41 0 min 0,000 mm 0,0 UV-I 12 W/m 6,1 C 7,8 C 8,0 km/h (2 Bft) 97,73 %
26.04.2017 06:18 7,8 C 10,6 C 89 % 1004,2 hPa 0,0 l/m 3,8 km/h (1 Bft) NO 41 0 min 0,000 mm 0,0 UV-I 13 W/m 6,1 C 7,8 C 4,8 km/h (1 Bft) 97,87 %
26.04.2017 06:20 7,8 C 10,6 C 89 % 1004,2 hPa 0,0 l/m 2,8 km/h (1 Bft) NO 41 0 min 0,000 mm 0,0 UV-I 16 W/m 6,1 C 7,8 C 4,8 km/h (1 Bft) 97,87 %
26.04.2017 06:22 7,8 C 10,6 C 89 % 1004,2 hPa 0,0 l/m 2,3 km/h (1 Bft) NO 41 0 min 0,000 mm 0,0 UV-I 18 W/m 6,1 C 7,8 C 4,8 km/h (1 Bft) 98,00 %
26.04.2017 06:24 7,8 C 10,6 C 89 % 1004,2 hPa 0,0 l/m 2,5 km/h (1 Bft) NO 41 0 min 0,000 mm 0,0 UV-I 19 W/m 6,1 C 7,8 C 4,8 km/h (1 Bft) 95,45 %
26.04.2017 06:26 7,8 C 10,6 C 89 % 1004,3 hPa 0,0 l/m 0,6 km/h (0 Bft) NO 41 0 min 0,000 mm 0,0 UV-I 18 W/m 6,1 C 7,8 C 3,2 km/h (1 Bft) 97,87 %
26.04.2017 06:28 7,8 C 10,6 C 89 % 1004,3 hPa 0,0 l/m 0,8 km/h (0 Bft) NO 41 0 min 0,000 mm 0,0 UV-I 18 W/m 6,1 C 7,8 C 3,2 km/h (1 Bft) 97,87 %
26.04.2017 06:30 7,8 C 10,6 C 89 % 1004,3 hPa 0,0 l/m 0,0 km/h (0 Bft) NO 41 0 min 0,000 mm 0,0 UV-I 18 W/m 6,1 C 7,8 C 0,0 km/h (0 Bft) 97,87 %
26.04.2017 06:32 7,9 C 10,6 C 90 % 1004,3 hPa 0,0 l/m 0,0 km/h (0 Bft) NO 41 0 min 0,000 mm 0,0 UV-I 18 W/m 6,4 C 7,9 C 0,0 km/h (0 Bft) 97,96 %
26.04.2017 06:34 7,8 C 10,6 C 90 % 1004,3 hPa 0,0 l/m 0,9 km/h (0 Bft) NO 41 0 min 0,000 mm 0,0 UV-I 19 W/m 6,3 C 7,8 C 6,4 km/h (2 Bft) 95,92 %
26.04.2017 06:36 7,9 C 10,6 C 89 % 1004,2 hPa 0,0 l/m 4,3 km/h (1 Bft) NO 41 0 min 0,000 mm 0,0 UV-I 21 W/m 6,2 C 7,9 C 6,4 km/h (2 Bft) 94,87 %
26.04.2017 06:38 7,9 C 10,6 C 89 % 1004,2 hPa 0,0 l/m 4,8 km/h (1 Bft) NO 41 0 min 0,000 mm 0,0 UV-I 23 W/m 6,2 C 7,9 C 6,4 km/h (2 Bft) 96,43 %
26.04.2017 06:40 8,0 C 10,6 C 88 % 1004,2 hPa 0,0 l/m 4,9 km/h (1 Bft) NO 42 0 min 0,000 mm 0,0 UV-I 23 W/m 6,1 C 8,0 C 6,4 km/h (2 Bft) 97,37 %
26.04.2017 06:42 8,1 C 10,6 C 88 % 1004,3 hPa 0,0 l/m 3,7 km/h (1 Bft) NO 40 0 min 0,000 mm 0,0 UV-I 24 W/m 6,2 C 8,1 C 6,4 km/h (2 Bft) 93,62 %
26.04.2017 06:44 8,1 C 10,6 C 88 % 1004,3 hPa 0,0 l/m 4,1 km/h (1 Bft) NO 37 0 min 0,000 mm 0,0 UV-I 25 W/m 6,2 C 8,1 C 6,4 km/h (2 Bft) 95,74 %
26.04.2017 06:46 8,1 C 10,6 C 88 % 1004,4 hPa 0,0 l/m 4,6 km/h (1 Bft) N-NO 23 0 min 0,000 mm 0,0 UV-I 26 W/m 6,2 C 8,1 C 8,0 km/h (2 Bft) 93,62 %
26.04.2017 06:48 8,1 C 10,6 C 88 % 1004,4 hPa 0,0 l/m 2,3 km/h (1 Bft) N-NO 23 0 min 0,000 mm 0,0 UV-I 27 W/m 6,2 C 8,1 C 4,8 km/h (1 Bft) 92,00 %
26.04.2017 06:50 8,2 C 10,6 C 88 % 1004,4 hPa 0,0 l/m 1,5 km/h (1 Bft) N-NO 23 0 min 0,000 mm 0,0 UV-I 29 W/m 6,3 C 8,2 C 4,8 km/h (1 Bft) 90,57 %
26.04.2017 06:52 8,2 C 10,6 C 88 % 1004,4 hPa 0,0 l/m 2,8 km/h (1 Bft) N-NO 23 0 min 0,000 mm 0,0 UV-I 32 W/m 6,3 C 8,2 C 4,8 km/h (1 Bft) 95,12 %
26.04.2017 06:54 8,2 C 10,6 C 88 % 1004,3 hPa 0,0 l/m 5,3 km/h (1 Bft) NO 34 0 min 0,000 mm 0,0 UV-I 38 W/m 6,3 C 8,2 C 8,0 km/h (2 Bft) 96,00 %
26.04.2017 06:56 8,2 C 10,6 C 88 % 1004,4 hPa 0,0 l/m 3,8 km/h (1 Bft) NO 34 0 min 0,000 mm 0,0 UV-I 42 W/m 6,3 C 8,2 C 6,4 km/h (2 Bft) 95,74 %
26.04.2017 06:58 8,2 C 10,6 C 88 % 1004,4 hPa 0,0 l/m 4,2 km/h (1 Bft) NO 34 0 min 0,000 mm 0,0 UV-I 42 W/m 6,3 C 8,2 C 6,4 km/h (2 Bft) 95,74 %
26.04.2017 07:00 8,2 C 10,6 C 88 % 1004,4 hPa 0,0 l/m 4,0 km/h (1 Bft) N-NO 26 0 min 0,025 mm 0,0 UV-I 45 W/m 6,3 C 8,2 C 6,4 km/h (2 Bft) 93,62 %
26.04.2017 07:02 8,2 C 10,6 C 88 % 1004,4 hPa 0,0 l/m 4,1 km/h (1 Bft) N-NO 26 0 min 0,000 mm 0,0 UV-I 50 W/m 6,3 C 8,2 C 6,4 km/h (2 Bft) 91,49 %
26.04.2017 07:04 8,2 C 10,6 C 88 % 1004,5 hPa 0,0 l/m 4,2 km/h (1 Bft) N-NO 28 0 min 0,000 mm 0,0 UV-I 52 W/m 6,3 C 8,2 C 6,4 km/h (2 Bft) 94,74 %
26.04.2017 07:06 8,3 C 10,6 C 88 % 1004,5 hPa 0,0 l/m 2,7 km/h (1 Bft) N-NO 28 0 min 0,000 mm 0,0 UV-I 54 W/m 6,4 C 8,3 C 6,4 km/h (2 Bft) 96,23 %
26.04.2017 07:08 8,3 C 10,6 C 88 % 1004,5 hPa 0,0 l/m 4,1 km/h (1 Bft) N-NO 27 0 min 0,000 mm 0,0 UV-I 55 W/m 6,4 C 8,3 C 6,4 km/h (2 Bft) 94,00 %
26.04.2017 07:10 8,3 C 10,6 C 88 % 1004,5 hPa 0,0 l/m 3,4 km/h (1 Bft) N-NO 29 0 min 0,000 mm 0,0 UV-I 49 W/m 6,4 C 8,3 C 6,4 km/h (2 Bft) 97,44 %
26.04.2017 07:12 8,3 C 10,6 C 88 % 1004,5 hPa 0,0 l/m 6,3 km/h (2 Bft) N-NO 24 0 min 0,000 mm 0,0 UV-I 48 W/m 6,4 C 8,3 C 9,7 km/h (2 Bft) 89,36 %
26.04.2017 07:14 8,3 C 10,6 C 87 % 1004,4 hPa 0,0 l/m 6,4 km/h (2 Bft) N-NO 27 0 min 0,000 mm 0,0 UV-I 52 W/m 6,3 C 8,3 C 8,0 km/h (2 Bft) 94,34 %
26.04.2017 07:16 8,3 C 10,6 C 86 % 1004,5 hPa 0,0 l/m 7,2 km/h (2 Bft) NO 51 0 min 0,000 mm 0,0 UV-I 54 W/m 6,1 C 7,7 C 9,7 km/h (2 Bft) 92,00 %
26.04.2017 07:18 8,4 C 10,6 C 86 % 1004,5 hPa 0,0 l/m 4,1 km/h (1 Bft) NO 51 0 min 0,000 mm 0,0 UV-I 53 W/m 6,2 C 8,4 C 6,4 km/h (2 Bft) 89,47 %
26.04.2017 07:20 8,4 C 10,6 C 86 % 1004,6 hPa 0,0 l/m 4,6 km/h (1 Bft) NO 38 0 min 0,000 mm 0,0 UV-I 49 W/m 6,2 C 8,4 C 6,4 km/h (2 Bft) 100,00 %
26.04.2017 07:22 8,4 C 10,6 C 87 % 1004,7 hPa 0,0 l/m 3,6 km/h (1 Bft) NO 38 0 min 0,000 mm 0,0 UV-I 45 W/m 6,4 C 8,4 C 6,4 km/h (2 Bft) 98,11 %
26.04.2017 07:24 8,5 C 10,6 C 87 % 1004,7 hPa 0,0 l/m 6,6 km/h (2 Bft) N-NO 30 0 min 0,000 mm 0,0 UV-I 45 W/m 6,5 C 8,4 C 12,9 km/h (3 Bft) 95,45 %
26.04.2017 07:26 8,5 C 10,6 C 86 % 1004,7 hPa 0,0 l/m 6,2 km/h (2 Bft) NO 37 0 min 0,000 mm 0,0 UV-I 45 W/m 6,3 C 8,5 C 9,7 km/h (2 Bft) 98,00 %
26.04.2017 07:28 8,5 C 10,6 C 86 % 1004,6 hPa 0,0 l/m 6,8 km/h (2 Bft) NO 44 0 min 0,000 mm 0,0 UV-I 44 W/m 6,3 C 8,2 C 12,9 km/h (3 Bft) 90,24 %
26.04.2017 07:30 8,5 C 10,6 C 86 % 1004,6 hPa 0,0 l/m 6,4 km/h (2 Bft) NO 50 0 min 0,000 mm 0,0 UV-I 44 W/m 6,3 C 8,5 C 6,4 km/h (2 Bft) 100,00 %
26.04.2017 07:34 8,6 C 10,6 C 86 % 1004,6 hPa 0,0 l/m 5,8 km/h (2 Bft) NO 42 0 min 0,000 mm 0,0 UV-I 43 W/m 6,4 C 8,6 C 8,0 km/h (2 Bft) 96,97 %
26.04.2017 07:36 8,5 C 10,6 C 86 % 1004,7 hPa 0,0 l/m 2,7 km/h (1 Bft) N-NO 22 0 min 0,000 mm 0,0 UV-I 44 W/m 6,3 C 8,5 C 8,0 km/h (2 Bft) 94,34 %
26.04.2017 07:38 8,6 C 10,6 C 86 % 1004,6 hPa 0,0 l/m 6,8 km/h (2 Bft) N-NO 31 0 min 0,000 mm 0,0 UV-I 43 W/m 6,4 C 8,3 C 11,3 km/h (2 Bft) 97,37 %
26.04.2017 07:40 8,6 C 10,6 C 85 % 1004,7 hPa 0,0 l/m 7,0 km/h (2 Bft) N-NO 26 0 min 0,000 mm 0,0 UV-I 41 W/m 6,2 C 8,1 C 11,3 km/h (2 Bft) 96,23 %
26.04.2017 07:42 8,6 C 10,6 C 86 % 1004,6 hPa 0,0 l/m 6,0 km/h (2 Bft) N-NO 30 0 min 0,000 mm 0,0 UV-I 44 W/m 6,4 C 8,6 C 8,0 km/h (2 Bft) 98,00 %
26.04.2017 07:44 8,6 C 10,6 C 86 % 1004,6 hPa 0,0 l/m 7,4 km/h (2 Bft) N-NO 27 0 min 0,000 mm 0,0 UV-I 52 W/m 6,4 C 7,8 C 9,7 km/h (2 Bft) 97,37 %
26.04.2017 07:46 8,6 C 10,6 C 86 % 1004,6 hPa 0,0 l/m 5,4 km/h (1 Bft) N-NO 18 0 min 0,000 mm 0,0 UV-I 48 W/m 6,4 C 8,6 C 9,7 km/h (2 Bft) 100,00 %
26.04.2017 07:48 8,6 C 10,6 C 87 % 1004,6 hPa 0,0 l/m 5,4 km/h (1 Bft) NO 36 0 min 0,000 mm 0,0 UV-I 50 W/m 6,6 C 8,6 C 9,7 km/h (2 Bft) 100,00 %
26.04.2017 07:50 8,6 C 10,6 C 87 % 1004,6 hPa 0,0 l/m 2,8 km/h (1 Bft) N-NO 28 0 min 0,000 mm 0,0 UV-I 58 W/m 6,6 C 8,6 C 6,4 km/h (2 Bft) 100,00 %
26.04.2017 07:52 8,6 C 10,6 C 86 % 1004,6 hPa 0,0 l/m 2,7 km/h (1 Bft) N-NO 27 0 min 0,000 mm 0,0 UV-I 66 W/m 6,4 C 8,6 C 8,0 km/h (2 Bft) 100,00 %
26.04.2017 07:54 8,6 C 10,6 C 86 % 1004,8 hPa 0,0 l/m 1,0 km/h (0 Bft) NO 42 0 min 0,000 mm 0,0 UV-I 66 W/m 6,4 C 8,6 C 3,2 km/h (1 Bft) 100,00 %
26.04.2017 07:56 8,6 C 10,6 C 85 % 1004,8 hPa 0,0 l/m 1,5 km/h (1 Bft) N 5 0 min 0,000 mm 0,0 UV-I 69 W/m 6,2 C 8,6 C 4,8 km/h (1 Bft) 98,00 %
26.04.2017 07:58 8,6 C 10,6 C 86 % 1004,8 hPa 0,0 l/m 0,7 km/h (0 Bft) N 5 0 min 0,000 mm 0,0 UV-I 80 W/m 6,4 C 8,6 C 3,2 km/h (1 Bft) 96,00 %
26.04.2017 08:00 8,7 C 10,6 C 86 % 1004,9 hPa 0,0 l/m 1,3 km/h (1 Bft) N 5 0 min 0,026 mm 0,0 UV-I 89 W/m 6,5 C 8,7 C 4,8 km/h (1 Bft) 100,00 %
26.04.2017 08:02 8,7 C 10,6 C 86 % 1004,8 hPa 0,0 l/m 0,6 km/h (0 Bft) N 5 0 min 0,000 mm 0,0 UV-I 92 W/m 6,5 C 8,7 C 3,2 km/h (1 Bft) 97,37 %
26.04.2017 08:04 8,7 C 10,6 C 86 % 1004,8 hPa 0,0 l/m 0,6 km/h (0 Bft) N 5 0 min 0,000 mm 0,0 UV-I 97 W/m 6,5 C 8,7 C 1,6 km/h (1 Bft) 100,00 %
26.04.2017 08:06 8,8 C 10,6 C 87 % 1004,8 hPa 0,0 l/m 0,1 km/h (0 Bft) N 5 0 min 0,000 mm 0,0 UV-I 92 W/m 6,8 C 8,8 C 1,6 km/h (1 Bft) 96,00 %
26.04.2017 08:08 8,8 C 10,6 C 87 % 1004,8 hPa 0,0 l/m 1,2 km/h (1 Bft) N 5 0 min 0,000 mm 0,0 UV-I 83 W/m 6,8 C 8,8 C 3,2 km/h (1 Bft) 100,00 %
26.04.2017 08:10 8,8 C 10,6 C 86 % 1004,7 hPa 0,0 l/m 0,9 km/h (0 Bft) N 5 0 min 0,000 mm 0,0 UV-I 86 W/m 6,6 C 8,8 C 3,2 km/h (1 Bft) 100,00 %
26.04.2017 08:12 8,8 C 10,6 C 86 % 1004,7 hPa 0,0 l/m 1,2 km/h (1 Bft) N 5 0 min 0,000 mm 0,0 UV-I 95 W/m 6,6 C 8,8 C 4,8 km/h (1 Bft) 100,00 %
26.04.2017 08:14 8,8 C 10,6 C 87 % 1004,7 hPa 0,0 l/m 0,1 km/h (0 Bft) N 5 0 min 0,000 mm 0,0 UV-I 87 W/m 6,8 C 8,8 C 1,6 km/h (1 Bft) 96,23 %
26.04.2017 08:16 8,8 C 10,6 C 86 % 1004,7 hPa 0,0 l/m 0,4 km/h (0 Bft) N 5 0 min 0,000 mm 0,0 UV-I 90 W/m 6,6 C 8,8 C 1,6 km/h (1 Bft) 100,00 %
26.04.2017 08:18 8,8 C 10,6 C 85 % 1004,8 hPa 0,0 l/m 2,0 km/h (1 Bft) N-NO 13 0 min 0,000 mm 0,0 UV-I 83 W/m 6,4 C 8,8 C 6,4 km/h (2 Bft) 98,00 %
26.04.2017 08:20 8,8 C 10,6 C 86 % 1004,8 hPa 0,0 l/m 0,5 km/h (0 Bft) N-NO 13 0 min 0,000 mm 0,0 UV-I 75 W/m 6,6 C 8,8 C 1,6 km/h (1 Bft) 100,00 %
26.04.2017 08:22 8,8 C 10,6 C 86 % 1004,8 hPa 0,0 l/m 0,7 km/h (0 Bft) N-NO 13 0 min 0,000 mm 0,0 UV-I 94 W/m 6,6 C 8,8 C 3,2 km/h (1 Bft) 97,37 %
26.04.2017 08:24 8,8 C 10,6 C 86 % 1004,9 hPa 0,0 l/m 0,4 km/h (0 Bft) N-NO 13 0 min 0,000 mm 0,0 UV-I 76 W/m 6,6 C 8,8 C 3,2 km/h (1 Bft) 100,00 %
26.04.2017 08:26 8,9 C 10,6 C 85 % 1005,0 hPa 0,0 l/m 0,4 km/h (0 Bft) N-NO 13 0 min 0,000 mm 0,0 UV-I 80 W/m 6,5 C 8,9 C 1,6 km/h (1 Bft) 98,21 %
26.04.2017 08:28 8,9 C 10,6 C 85 % 1005,1 hPa 0,0 l/m 1,1 km/h (1 Bft) N-NO 13 0 min 0,000 mm 0,0 UV-I 87 W/m 6,5 C 8,9 C 4,8 km/h (1 Bft) 97,87 %
26.04.2017 08:30 8,9 C 10,6 C 85 % 1005,1 hPa 0,0 l/m 0,8 km/h (0 Bft) N-NO 13 0 min 0,000 mm 0,0 UV-I 74 W/m 6,5 C 8,9 C 3,2 km/h (1 Bft) 97,87 %
26.04.2017 08:32 8,9 C 10,6 C 85 % 1005,1 hPa 0,0 l/m 0,6 km/h (0 Bft) N-NO 13 0 min 0,000 mm 0,0 UV-I 61 W/m 6,5 C 8,9 C 4,8 km/h (1 Bft) 97,44 %
26.04.2017 08:34 8,9 C 10,6 C 85 % 1005,2 hPa 0,0 l/m 1,8 km/h (1 Bft) N-NO 13 0 min 0,000 mm 0,0 UV-I 70 W/m 6,5 C 8,9 C 4,8 km/h (1 Bft) 100,00 %
26.04.2017 08:35 8,9 C 10,6 C 85 % 1005,2 hPa 0,0 l/m 1,6 km/h (1 Bft) N-NO 22 0 min 0,000 mm 0,0 UV-I 67 W/m 6,5 C 8,9 C 4,8 km/h (1 Bft) 100,00 %
26.04.2017 08:40 9,1 C 10,6 C 85 % 1005,2 hPa 0,0 l/m 0,3 km/h (0 Bft) N-NO 13 0 min 0,000 mm 0,0 UV-I 105 W/m 6,7 C 9,1 C 1,6 km/h (1 Bft) 99,29 %
26.04.2017 08:42 9,1 C 10,6 C 85 % 1005,2 hPa 0,0 l/m 0,2 km/h (0 Bft) N-NO 13 0 min 0,000 mm 0,0 UV-I 90 W/m 6,7 C 9,1 C 1,6 km/h (1 Bft) 100,00 %
26.04.2017 08:44 9,2 C 10,6 C 85 % 1005,2 hPa 0,0 l/m 2,6 km/h (1 Bft) N-NO 13 0 min 0,000 mm 0,0 UV-I 72 W/m 6,8 C 9,2 C 4,8 km/h (1 Bft) 98,11 %
26.04.2017 08:46 9,1 C 10,6 C 85 % 1005,1 hPa 0,0 l/m 2,3 km/h (1 Bft) N-NO 13 0 min 0,000 mm 0,0 UV-I 67 W/m 6,7 C 9,1 C 4,8 km/h (1 Bft) 98,00 %
26.04.2017 08:48 9,1 C 10,6 C 85 % 1005,0 hPa 0,0 l/m 3,9 km/h (1 Bft) N-NO 17 0 min 0,000 mm 0,0 UV-I 82 W/m 6,7 C 9,1 C 6,4 km/h (2 Bft) 97,56 %
26.04.2017 08:50 9,1 C 10,6 C 85 % 1005,0 hPa 0,0 l/m 0,9 km/h (0 Bft) N-NO 17 0 min 0,000 mm 0,0 UV-I 80 W/m 6,7 C 9,1 C 4,8 km/h (1 Bft) 96,00 %
26.04.2017 08:52 9,1 C 10,6 C 85 % 1005,1 hPa 0,0 l/m 1,1 km/h (1 Bft) N-NO 17 0 min 0,000 mm 0,0 UV-I 86 W/m 6,7 C 9,1 C 3,2 km/h (1 Bft) 97,87 %
26.04.2017 08:54 9,1 C 10,6 C 85 % 1005,2 hPa 0,0 l/m 1,0 km/h (0 Bft) N-NO 17 0 min 0,000 mm 0,0 UV-I 88 W/m 6,7 C 9,1 C 1,6 km/h (1 Bft) 94,74 %
26.04.2017 08:56 9,1 C 10,6 C 84 % 1005,2 hPa 0,0 l/m 0,3 km/h (0 Bft) N-NO 17 0 min 0,000 mm 0,0 UV-I 84 W/m 6,5 C 9,1 C 1,6 km/h (1 Bft) 98,11 %
26.04.2017 08:58 9,1 C 10,6 C 85 % 1005,2 hPa 0,0 l/m 1,0 km/h (0 Bft) N-NO 17 0 min 0,000 mm 0,0 UV-I 87 W/m 6,7 C 9,1 C 4,8 km/h (1 Bft) 95,74 %
26.04.2017 09:00 9,2 C 10,6 C 85 % 1005,2 hPa 0,0 l/m 1,7 km/h (1 Bft) N-NO 16 0 min 0,051 mm 0,0 UV-I 96 W/m 6,8 C 9,2 C 4,8 km/h (1 Bft) 98,00 %
26.04.2017 09:02 9,2 C 10,6 C 85 % 1005,2 hPa 0,0 l/m 0,2 km/h (0 Bft) N-NO 16 0 min 0,000 mm 0,0 UV-I 88 W/m 6,8 C 9,2 C 1,6 km/h (1 Bft) 94,29 %
26.04.2017 09:04 9,2 C 10,6 C 85 % 1005,3 hPa 0,0 l/m 0,0 km/h (0 Bft) N-NO 16 0 min 0,000 mm 0,0 UV-I 92 W/m 6,8 C 9,2 C 0,0 km/h (0 Bft) 96,00 %
26.04.2017 09:06 9,2 C 10,6 C 86 % 1005,1 hPa 0,0 l/m 0,3 km/h (0 Bft) N-NO 16 0 min 0,000 mm 0,0 UV-I 98 W/m 7,0 C 9,2 C 1,6 km/h (1 Bft) 96,00 %
26.04.2017 09:08 9,2 C 10,6 C 86 % 1005,2 hPa 0,0 l/m 0,7 km/h (0 Bft) N-NO 16 0 min 0,000 mm 0,0 UV-I 100 W/m 7,0 C 9,2 C 1,6 km/h (1 Bft) 92,45 %
26.04.2017 09:10 9,2 C 10,6 C 86 % 1005,1 hPa 0,0 l/m 0,4 km/h (0 Bft) N-NO 16 0 min 0,000 mm 0,0 UV-I 88 W/m 7,0 C 9,2 C 3,2 km/h (1 Bft) 97,87 %
26.04.2017 09:12 9,2 C 10,6 C 85 % 1005,2 hPa 0,0 l/m 0,6 km/h (0 Bft) N-NO 16 0 min 0,000 mm 0,0 UV-I 88 W/m 6,8 C 9,2 C 1,6 km/h (1 Bft) 95,74 %
26.04.2017 09:14 9,2 C 10,6 C 85 % 1005,1 hPa 0,0 l/m 0,7 km/h (0 Bft) N-NO 16 0 min 0,000 mm 0,0 UV-I 91 W/m 6,8 C 9,2 C 3,2 km/h (1 Bft) 97,62 %
26.04.2017 09:16 9,2 C 10,6 C 85 % 1005,1 hPa 0,0 l/m 0,7 km/h (0 Bft) N-NO 16 0 min 0,000 mm 0,0 UV-I 105 W/m 6,8 C 9,2 C 3,2 km/h (1 Bft) 93,62 %
26.04.2017 09:18 9,2 C 10,6 C 86 % 1005,1 hPa 0,0 l/m 0,2 km/h (0 Bft) N-NO 16 0 min 0,000 mm 0,0 UV-I 118 W/m 7,0 C 9,2 C 1,6 km/h (1 Bft) 94,00 %
26.04.2017 09:20 9,3 C 10,6 C 86 % 1005,1 hPa 0,0 l/m 0,4 km/h (0 Bft) N-NO 16 0 min 0,000 mm 0,3 UV-I 129 W/m 7,1 C 9,3 C 1,6 km/h (1 Bft) 94,74 %
26.04.2017 09:22 9,3 C 10,6 C 86 % 1005,1 hPa 0,0 l/m 2,2 km/h (1 Bft) N-NO 16 0 min 0,000 mm 0,3 UV-I 125 W/m 7,1 C 9,3 C 6,4 km/h (2 Bft) 98,00 %
26.04.2017 09:24 9,3 C 10,6 C 85 % 1005,0 hPa 0,0 l/m 2,4 km/h (1 Bft) N-NO 16 0 min 0,000 mm 0,5 UV-I 121 W/m 6,9 C 9,3 C 6,4 km/h (2 Bft) 98,00 %
26.04.2017 09:26 9,3 C 10,6 C 86 % 1005,0 hPa 0,0 l/m 2,4 km/h (1 Bft) N-NO 16 0 min 0,000 mm 0,5 UV-I 118 W/m 7,1 C 9,3 C 6,4 km/h (2 Bft) 100,00 %
26.04.2017 09:28 9,4 C 10,6 C 86 % 1005,0 hPa 0,0 l/m 0,7 km/h (0 Bft) N-NO 15 0 min 0,000 mm 0,5 UV-I 114 W/m 7,2 C 9,4 C 3,2 km/h (1 Bft) 98,00 %
26.04.2017 09:30 9,4 C 10,6 C 86 % 1005,0 hPa 0,0 l/m 2,5 km/h (1 Bft) N-NO 15 0 min 0,000 mm 0,5 UV-I 118 W/m 7,2 C 9,4 C 8,0 km/h (2 Bft) 100,00 %
26.04.2017 09:32 9,4 C 10,6 C 86 % 1004,9 hPa 0,0 l/m 2,7 km/h (1 Bft) N-NO 15 0 min 0,000 mm 0,5 UV-I 125 W/m 7,2 C 9,4 C 6,4 km/h (2 Bft) 100,00 %
26.04.2017 09:34 9,5 C 10,6 C 86 % 1004,9 hPa 0,0 l/m 4,4 km/h (1 Bft) N-NO 28 0 min 0,000 mm 0,5 UV-I 129 W/m 7,3 C 9,5 C 6,4 km/h (2 Bft) 100,00 %
26.04.2017 09:36 9,5 C 10,6 C 85 % 1005,0 hPa 0,0 l/m 4,0 km/h (1 Bft) N-NO 27 0 min 0,000 mm 0,5 UV-I 129 W/m 7,1 C 9,5 C 6,4 km/h (2 Bft) 100,00 %
26.04.2017 09:38 9,5 C 10,6 C 85 % 1005,0 hPa 0,0 l/m 5,9 km/h (2 Bft) N-NO 25 0 min 0,000 mm 0,6 UV-I 139 W/m 7,1 C 9,5 C 9,7 km/h (2 Bft) 100,00 %
26.04.2017 09:40 9,5 C 10,6 C 85 % 1005,0 hPa 0,0 l/m 4,2 km/h (1 Bft) N-NO 26 0 min 0,000 mm 0,6 UV-I 136 W/m 7,1 C 9,5 C 8,0 km/h (2 Bft) 98,31 %
26.04.2017 09:42 9,5 C 10,6 C 84 % 1005,1 hPa 0,0 l/m 5,8 km/h (2 Bft) N-NO 24 0 min 0,000 mm 0,5 UV-I 126 W/m 6,9 C 9,5 C 8,0 km/h (2 Bft) 96,00 %
26.04.2017 09:44 9,5 C 10,6 C 85 % 1005,1 hPa 0,0 l/m 4,7 km/h (1 Bft) N-NO 24 0 min 0,000 mm 0,5 UV-I 116 W/m 7,1 C 9,5 C 8,0 km/h (2 Bft) 100,00 %
26.04.2017 09:46 9,5 C 10,6 C 84 % 1005,1 hPa 0,0 l/m 2,9 km/h (1 Bft) N-NO 25 0 min 0,000 mm 0,5 UV-I 113 W/m 6,9 C 9,5 C 6,4 km/h (2 Bft) 97,92 %
26.04.2017 09:48 9,6 C 10,6 C 85 % 1005,2 hPa 0,0 l/m 1,0 km/h (0 Bft) N-NO 24 0 min 0,000 mm 0,5 UV-I 124 W/m 7,2 C 9,6 C 4,8 km/h (1 Bft) 100,00 %
26.04.2017 09:50 9,6 C 10,6 C 85 % 1005,2 hPa 0,0 l/m 4,4 km/h (1 Bft) N-NO 24 0 min 0,000 mm 0,5 UV-I 127 W/m 7,2 C 9,6 C 8,0 km/h (2 Bft) 100,00 %
26.04.2017 09:52 9,6 C 10,6 C 85 % 1005,2 hPa 0,0 l/m 3,9 km/h (1 Bft) NO 39 0 min 0,000 mm 0,5 UV-I 124 W/m 7,2 C 9,6 C 6,4 km/h (2 Bft) 100,00 %
26.04.2017 09:54 9,6 C 10,6 C 84 % 1005,1 hPa 0,0 l/m 9,2 km/h (2 Bft) NO 51 0 min 0,000 mm 0,5 UV-I 129 W/m 7,0 C 7,6 C 14,5 km/h (3 Bft) 98,11 %
26.04.2017 09:56 9,6 C 10,6 C 85 % 1005,0 hPa 0,0 l/m 6,0 km/h (2 Bft) N-NO 32 0 min 0,000 mm 0,6 UV-I 140 W/m 7,2 C 9,6 C 8,0 km/h (2 Bft) 94,74 %
26.04.2017 09:58 9,7 C 10,6 C 86 % 1005,0 hPa 0,0 l/m 5,8 km/h (2 Bft) NO 34 0 min 0,000 mm 0,6 UV-I 151 W/m 7,5 C 9,7 C 9,7 km/h (2 Bft) 98,11 %
26.04.2017 10:00 9,7 C 10,6 C 86 % 1005,0 hPa 0,0 l/m 7,8 km/h (2 Bft) N-NO 32 0 min 0,050 mm 0,7 UV-I 152 W/m 7,5 C 8,7 C 12,9 km/h (3 Bft) 91,49 %
26.04.2017 10:02 9,7 C 10,6 C 84 % 1005,1 hPa 0,0 l/m 6,8 km/h (2 Bft) NO 51 0 min 0,000 mm 0,7 UV-I 152 W/m 7,1 C 9,4 C 9,7 km/h (2 Bft) 95,45 %
26.04.2017 10:04 9,7 C 10,6 C 84 % 1005,2 hPa 0,0 l/m 5,3 km/h (1 Bft) N-NO 21 0 min 0,000 mm 0,6 UV-I 145 W/m 7,1 C 9,7 C 11,3 km/h (2 Bft) 98,21 %
26.04.2017 10:06 9,7 C 10,6 C 84 % 1005,2 hPa 0,0 l/m 4,9 km/h (1 Bft) NO 46 0 min 0,000 mm 0,6 UV-I 140 W/m 7,1 C 9,7 C 6,4 km/h (2 Bft) 94,29 %
26.04.2017 10:08 9,7 C 10,6 C 84 % 1005,3 hPa 0,0 l/m 5,8 km/h (2 Bft) NO 44 0 min 0,000 mm 0,6 UV-I 126 W/m 7,1 C 9,7 C 8,0 km/h (2 Bft) 96,61 %
26.04.2017 10:10 9,7 C 10,6 C 85 % 1005,2 hPa 0,0 l/m 3,7 km/h (1 Bft) NO 44 0 min 0,000 mm 0,6 UV-I 128 W/m 7,3 C 9,7 C 6,4 km/h (2 Bft) 97,37 %
26.04.2017 10:12 9,7 C 10,6 C 85 % 1005,3 hPa 0,0 l/m 7,0 km/h (2 Bft) NO 40 0 min 0,000 mm 0,6 UV-I 132 W/m 7,3 C 9,3 C 9,7 km/h (2 Bft) 94,00 %
26.04.2017 10:14 9,7 C 10,6 C 85 % 1005,2 hPa 0,0 l/m 6,3 km/h (2 Bft) NO 45 0 min 0,000 mm 0,6 UV-I 128 W/m 7,3 C 9,7 C 9,7 km/h (2 Bft) 98,00 %
26.04.2017 10:16 9,8 C 10,6 C 85 % 1005,2 hPa 0,0 l/m 4,1 km/h (1 Bft) NO 43 0 min 0,000 mm 0,6 UV-I 131 W/m 7,4 C 9,8 C 8,0 km/h (2 Bft) 92,68 %
26.04.2017 10:18 9,8 C 10,6 C 85 % 1005,2 hPa 0,0 l/m 4,2 km/h (1 Bft) NO 49 0 min 0,000 mm 0,6 UV-I 136 W/m 7,4 C 9,8 C 6,4 km/h (2 Bft) 98,00 %
26.04.2017 10:20 9,8 C 10,6 C 84 % 1005,2 hPa 0,0 l/m 4,5 km/h (1 Bft) NO 34 0 min 0,000 mm 0,6 UV-I 143 W/m 7,2 C 9,8 C 8,0 km/h (2 Bft) 98,00 %
26.04.2017 10:22 9,8 C 10,6 C 84 % 1005,2 hPa 0,0 l/m 7,3 km/h (2 Bft) O-NO 63 0 min 0,000 mm 0,7 UV-I 151 W/m 7,2 C 9,1 C 12,9 km/h (3 Bft) 95,74 %
26.04.2017 10:24 9,8 C 10,6 C 83 % 1005,3 hPa 0,0 l/m 5,1 km/h (1 Bft) O-NO 65 0 min 0,000 mm 0,7 UV-I 148 W/m 7,1 C 9,8 C 9,7 km/h (2 Bft) 95,74 %
26.04.2017 10:26 9,7 C 10,6 C 83 % 1005,3 hPa 0,0 l/m 7,7 km/h (2 Bft) O-NO 62 0 min 0,000 mm 0,7 UV-I 141 W/m 7,0 C 8,7 C 12,9 km/h (3 Bft) 95,74 %
26.04.2017 10:28 9,7 C 10,6 C 83 % 1005,2 hPa 0,0 l/m 8,3 km/h (2 Bft) NO 40 0 min 0,000 mm 0,7 UV-I 144 W/m 7,0 C 8,3 C 11,3 km/h (2 Bft) 97,87 %
26.04.2017 10:30 9,7 C 10,6 C 83 % 1005,2 hPa 0,0 l/m 9,0 km/h (2 Bft) O-NO 75 0 min 0,000 mm 0,7 UV-I 132 W/m 7,0 C 7,9 C 14,5 km/h (3 Bft) 92,31 %
26.04.2017 10:32 9,7 C 10,6 C 84 % 1005,2 hPa 0,0 l/m 7,2 km/h (2 Bft) O-NO 70 0 min 0,000 mm 0,8 UV-I 138 W/m 7,1 C 9,1 C 9,7 km/h (2 Bft) 96,23 %
26.04.2017 10:34 9,7 C 10,6 C 84 % 1005,3 hPa 0,0 l/m 7,4 km/h (2 Bft) NO 53 0 min 0,000 mm 0,8 UV-I 140 W/m 7,1 C 9,0 C 9,7 km/h (2 Bft) 97,56 %
26.04.2017 10:36 9,7 C 10,6 C 84 % 1005,4 hPa 0,0 l/m 7,0 km/h (2 Bft) O-NO 59 0 min 0,000 mm 0,7 UV-I 125 W/m 7,1 C 9,3 C 11,3 km/h (2 Bft) 98,21 %
26.04.2017 10:38 9,7 C 10,6 C 84 % 1005,4 hPa 0,0 l/m 6,9 km/h (2 Bft) O-NO 57 0 min 0,000 mm 0,7 UV-I 115 W/m 7,1 C 9,3 C 9,7 km/h (2 Bft) 95,45 %
26.04.2017 10:40 9,7 C 10,6 C 84 % 1005,4 hPa 0,0 l/m 8,0 km/h (2 Bft) NO 54 0 min 0,000 mm 0,6 UV-I 103 W/m 7,1 C 8,5 C 12,9 km/h (3 Bft) 97,87 %
26.04.2017 10:42 9,6 C 10,6 C 85 % 1005,5 hPa 0,0 l/m 10,1 km/h (2 Bft) NO 45 0 min 0,000 mm 0,6 UV-I 104 W/m 7,2 C 7,1 C 16,1 km/h (3 Bft) 94,74 %
26.04.2017 10:44 9,6 C 10,6 C 85 % 1005,5 hPa 0,0 l/m 10,5 km/h (2 Bft) NO 45 0 min 0,000 mm 0,6 UV-I 110 W/m 7,2 C 6,9 C 17,7 km/h (3 Bft) 95,45 %
26.04.2017 10:46 9,4 C 10,6 C 85 % 1005,5 hPa 0,0 l/m 12,7 km/h (3 Bft) N-NO 26 0 min 0,000 mm 0,7 UV-I 120 W/m 7,0 C 5,5 C 17,7 km/h (3 Bft) 98,11 %
26.04.2017 10:48 9,4 C 10,6 C 85 % 1005,5 hPa 0,0 l/m 11,7 km/h (2 Bft) NO 55 0 min 0,000 mm 0,8 UV-I 138 W/m 7,0 C 6,0 C 16,1 km/h (3 Bft) 96,23 %
26.04.2017 10:50 9,4 C 10,6 C 84 % 1005,5 hPa 0,0 l/m 7,1 km/h (2 Bft) O-NO 60 0 min 0,000 mm 0,8 UV-I 152 W/m 6,8 C 8,9 C 14,5 km/h (3 Bft) 95,45 %
26.04.2017 10:52 9,4 C 10,6 C 85 % 1005,5 hPa 0,0 l/m 9,5 km/h (2 Bft) NO 36 0 min 0,000 mm 0,9 UV-I 192 W/m 7,0 C 7,2 C 16,1 km/h (3 Bft) 97,56 %
26.04.2017 10:54 9,5 C 10,6 C 86 % 1005,4 hPa 0,0 l/m 10,3 km/h (2 Bft) O-NO 63 0 min 0,000 mm 1,1 UV-I 211 W/m 7,3 C 6,9 C 14,5 km/h (3 Bft) 91,49 %
26.04.2017 10:56 9,6 C 10,6 C 85 % 1005,4 hPa 0,0 l/m 7,3 km/h (2 Bft) O-NO 59 0 min 0,000 mm 1,0 UV-I 188 W/m 7,2 C 8,9 C 11,3 km/h (2 Bft) 94,34 %
26.04.2017 10:58 9,6 C 10,6 C 85 % 1005,4 hPa 0,0 l/m 8,7 km/h (2 Bft) NO 46 0 min 0,000 mm 0,9 UV-I 164 W/m 7,2 C 8,0 C 14,5 km/h (3 Bft) 95,74 %
26.04.2017 11:00 9,6 C 10,6 C 85 % 1005,4 hPa 0,0 l/m 7,3 km/h (2 Bft) N-NO 29 0 min 0,077 mm 0,8 UV-I 150 W/m 7,2 C 8,9 C 11,3 km/h (2 Bft) 93,62 %
26.04.2017 11:02 9,6 C 10,6 C 86 % 1005,5 hPa 0,0 l/m 8,6 km/h (2 Bft) NO 42 0 min 0,000 mm 0,8 UV-I 144 W/m 7,4 C 8,0 C 12,9 km/h (3 Bft) 95,12 %
26.04.2017 11:05 9,6 C 10,6 C 85 % 1005,5 hPa 0,0 l/m 8,0 km/h (2 Bft) NO 45 0 min 0,000 mm 0,7 UV-I 133 W/m 7,2 C 8,4 C 12,9 km/h (3 Bft) 97,37 %
26.04.2017 11:06 9,6 C 10,6 C 84 % 1005,5 hPa 0,0 l/m 9,4 km/h (2 Bft) O-NO 62 0 min 0,000 mm 0,7 UV-I 130 W/m 7,0 C 7,5 C 11,3 km/h (2 Bft) 95,24 %
26.04.2017 11:08 9,6 C 10,6 C 85 % 1005,5 hPa 0,0 l/m 9,2 km/h (2 Bft) NO 35 0 min 0,000 mm 0,8 UV-I 141 W/m 7,2 C 7,6 C 12,9 km/h (3 Bft) 94,64 %
26.04.2017 11:10 9,5 C 10,6 C 85 % 1005,4 hPa 0,0 l/m 7,5 km/h (2 Bft) O-NO 69 0 min 0,000 mm 0,9 UV-I 152 W/m 7,1 C 8,7 C 12,9 km/h (3 Bft) 94,29 %
26.04.2017 11:14 9,4 C 10,6 C 85 % 1005,5 hPa 0,0 l/m 9,8 km/h (2 Bft) NO 56 0 min 0,000 mm 0,9 UV-I 151 W/m 7,0 C 7,1 C 14,5 km/h (3 Bft) 96,36 %
26.04.2017 11:15 9,4 C 10,6 C 85 % 1005,5 hPa 0,0 l/m 9,7 km/h (2 Bft) O-NO 67 0 min 0,000 mm 0,9 UV-I 156 W/m 7,0 C 7,1 C 16,1 km/h (3 Bft) 94,74 %
26.04.2017 11:16 9,4 C 10,6 C 85 % 1005,5 hPa 0,0 l/m 7,9 km/h (2 Bft) NO 48 0 min 0,000 mm 0,9 UV-I 161 W/m 7,0 C 8,3 C 9,7 km/h (2 Bft) 92,68 %
26.04.2017 11:18 9,5 C 10,6 C 85 % 1005,5 hPa 0,0 l/m 9,5 km/h (2 Bft) O-NO 65 0 min 0,000 mm 0,9 UV-I 163 W/m 7,1 C 7,3 C 14,5 km/h (3 Bft) 95,92 %
26.04.2017 11:20 9,5 C 10,6 C 85 % 1005,5 hPa 0,0 l/m 6,4 km/h (2 Bft) NO 53 0 min 0,000 mm 0,9 UV-I 137 W/m 7,1 C 9,5 C 14,5 km/h (3 Bft) 94,34 %
26.04.2017 11:22 9,4 C 10,6 C 85 % 1005,5 hPa 0,0 l/m 6,6 km/h (2 Bft) NO 52 0 min 0,000 mm 0,8 UV-I 134 W/m 7,0 C 9,3 C 14,5 km/h (3 Bft) 94,29 %
26.04.2017 11:24 9,4 C 10,6 C 84 % 1005,6 hPa 0,0 l/m 11,5 km/h (2 Bft) NO 49 0 min 0,000 mm 0,7 UV-I 116 W/m 6,8 C 6,1 C 16,1 km/h (3 Bft) 98,18 %
26.04.2017 11:26 9,3 C 10,6 C 84 % 1005,5 hPa 0,0 l/m 10,3 km/h (2 Bft) NO 52 0 min 0,000 mm 0,7 UV-I 119 W/m 6,7 C 6,6 C 14,5 km/h (3 Bft) 100,00 %
26.04.2017 11:29 9,3 C 10,6 C 85 % 1005,6 hPa 0,0 l/m 9,1 km/h (2 Bft) NO 35 0 min 0,000 mm 0,7 UV-I 123 W/m 6,9 C 7,4 C 14,5 km/h (3 Bft) 95,16 %
26.04.2017 11:30 9,3 C 10,6 C 85 % 1005,6 hPa 0,0 l/m 8,7 km/h (2 Bft) O-NO 65 0 min 0,000 mm 0,8 UV-I 131 W/m 6,9 C 7,6 C 9,7 km/h (2 Bft) 97,11 %
26.04.2017 11:32 9,3 C 10,6 C 85 % 1005,6 hPa 0,0 l/m 9,0 km/h (2 Bft) O-NO 75 0 min 0,000 mm 0,9 UV-I 154 W/m 6,9 C 7,4 C 12,9 km/h (3 Bft) 98,57 %
26.04.2017 11:34 9,3 C 10,6 C 84 % 1005,6 hPa 0,0 l/m 7,9 km/h (2 Bft) NO 48 0 min 0,000 mm 0,8 UV-I 148 W/m 6,7 C 8,2 C 11,3 km/h (2 Bft) 100,00 %
26.04.2017 11:36 9,3 C 10,6 C 85 % 1005,6 hPa 0,0 l/m 8,3 km/h (2 Bft) N-NO 13 0 min 0,000 mm 0,7 UV-I 133 W/m 6,9 C 7,9 C 12,9 km/h (3 Bft) 98,11 %
26.04.2017 11:39 9,3 C 10,6 C 86 % 1005,6 hPa 0,0 l/m 9,5 km/h (2 Bft) NO 37 0 min 0,000 mm 0,9 UV-I 160 W/m 7,1 C 7,1 C 16,1 km/h (3 Bft) 100,00 %
26.04.2017 11:40 9,3 C 10,6 C 86 % 1005,6 hPa 0,0 l/m 6,9 km/h (2 Bft) NO 50 0 min 0,000 mm 1,1 UV-I 189 W/m 7,1 C 8,9 C 9,7 km/h (2 Bft) 100,00 %
26.04.2017 11:42 9,3 C 10,6 C 85 % 1005,6 hPa 0,0 l/m 9,0 km/h (2 Bft) NO 34 0 min 0,000 mm 1,0 UV-I 158 W/m 6,9 C 7,4 C 14,5 km/h (3 Bft) 100,00 %
26.04.2017 11:44 9,3 C 10,6 C 86 % 1005,7 hPa 0,0 l/m 8,4 km/h (2 Bft) NO 38 0 min 0,000 mm 1,0 UV-I 175 W/m 7,1 C 7,8 C 11,3 km/h (2 Bft) 91,43 %
26.04.2017 11:46 9,3 C 10,6 C 85 % 1005,7 hPa 0,0 l/m 9,2 km/h (2 Bft) NO 40 0 min 0,000 mm 1,1 UV-I 194 W/m 6,9 C 7,3 C 16,1 km/h (3 Bft) 98,11 %
26.04.2017 11:48 9,3 C 10,6 C 85 % 1005,6 hPa 0,0 l/m 13,2 km/h (3 Bft) N-NO 25 0 min 0,000 mm 1,2 UV-I 225 W/m 6,9 C 5,1 C 17,7 km/h (3 Bft) 95,45 %
26.04.2017 11:50 9,3 C 10,6 C 85 % 1005,7 hPa 0,0 l/m 10,2 km/h (2 Bft) NO 40 0 min 0,000 mm 1,2 UV-I 205 W/m 6,9 C 6,7 C 17,7 km/h (3 Bft) 92,86 %
26.04.2017 11:52 9,3 C 10,6 C 85 % 1005,7 hPa 0,0 l/m 8,7 km/h (2 Bft) N-NO 21 0 min 0,000 mm 1,1 UV-I 202 W/m 6,9 C 7,6 C 14,5 km/h (3 Bft) 97,37 %
26.04.2017 11:54 9,3 C 10,6 C 85 % 1005,7 hPa 0,0 l/m 10,1 km/h (2 Bft) N-NO 23 0 min 0,000 mm 1,1 UV-I 188 W/m 6,9 C 6,8 C 19,3 km/h (3 Bft) 100,00 %
26.04.2017 11:56 9,3 C 10,6 C 84 % 1005,7 hPa 0,0 l/m 8,0 km/h (2 Bft) O-NO 63 0 min 0,000 mm 1,2 UV-I 213 W/m 6,7 C 8,1 C 14,5 km/h (3 Bft) 93,62 %
26.04.2017 11:58 9,3 C 10,6 C 84 % 1005,7 hPa 0,0 l/m 9,5 km/h (2 Bft) N-NO 28 0 min 0,000 mm 1,3 UV-I 232 W/m 6,7 C 7,1 C 16,1 km/h (3 Bft) 100,00 %
26.04.2017 12:00 9,4 C 10,6 C 86 % 1005,7 hPa 0,0 l/m 9,5 km/h (2 Bft) NO 37 0 min 0,076 mm 1,4 UV-I 248 W/m 7,2 C 7,2 C 14,5 km/h (3 Bft) 100,00 %
26.04.2017 12:02 9,6 C 10,6 C 86 % 1005,6 hPa 0,0 l/m 8,4 km/h (2 Bft) N-NO 23 0 min 0,000 mm 1,5 UV-I 262 W/m 7,4 C 8,2 C 16,1 km/h (3 Bft) 95,12 %
26.04.2017 12:05 9,7 C 10,6 C 85 % 1005,6 hPa 0,0 l/m 9,7 km/h (2 Bft) NO 45 0 min 0,000 mm 1,6 UV-I 275 W/m 7,3 C 7,4 C 17,7 km/h (3 Bft) 99,12 %
26.04.2017 12:08 9,6 C 10,6 C 84 % 1005,6 hPa 0,0 l/m 8,6 km/h (2 Bft) O-NO 62 0 min 0,000 mm 1,5 UV-I 266 W/m 7,0 C 8,0 C 14,5 km/h (3 Bft) 98,44 %
26.04.2017 12:10 9,6 C 10,6 C 84 % 1005,5 hPa 0,0 l/m 8,1 km/h (2 Bft) NO 44 0 min 0,000 mm 1,5 UV-I 243 W/m 7,0 C 8,4 C 9,7 km/h (2 Bft) 100,00 %
26.04.2017 12:12 9,6 C 10,6 C 85 % 1005,5 hPa 0,0 l/m 9,7 km/h (2 Bft) N-NO 30 0 min 0,000 mm 1,6 UV-I 251 W/m 7,2 C 7,3 C 16,1 km/h (3 Bft) 100,00 %
26.04.2017 12:14 9,7 C 10,6 C 85 % 1005,5 hPa 0,0 l/m 9,4 km/h (2 Bft) NO 39 0 min 0,000 mm 1,6 UV-I 249 W/m 7,3 C 7,6 C 16,1 km/h (3 Bft) 100,00 %
26.04.2017 12:16 9,8 C 10,6 C 85 % 1005,5 hPa 0,0 l/m 8,9 km/h (2 Bft) NO 43 0 min 0,000 mm 1,6 UV-I 271 W/m 7,4 C 8,0 C 12,9 km/h (3 Bft) 100,00 %
26.04.2017 12:18 9,8 C 10,6 C 85 % 1005,5 hPa 0,0 l/m 7,6 km/h (2 Bft) NO 39 0 min 0,000 mm 1,6 UV-I 258 W/m 7,4 C 8,9 C 9,7 km/h (2 Bft) 100,00 %
26.04.2017 12:20 9,8 C 10,6 C 83 % 1005,5 hPa 0,0 l/m 9,4 km/h (2 Bft) NO 40 0 min 0,000 mm 1,8 UV-I 295 W/m 7,1 C 7,7 C 16,1 km/h (3 Bft) 100,00 %
26.04.2017 12:22 9,6 C 10,6 C 82 % 1005,5 hPa 0,0 l/m 11,1 km/h (2 Bft) O-NO 67 0 min 0,000 mm 1,8 UV-I 291 W/m 6,7 C 6,5 C 16,1 km/h (3 Bft) 100,00 %
26.04.2017 12:24 9,6 C 10,6 C 83 % 1005,5 hPa 0,0 l/m 9,1 km/h (2 Bft) NO 56 0 min 0,000 mm 1,7 UV-I 282 W/m 6,9 C 7,7 C 16,1 km/h (3 Bft) 100,00 %
26.04.2017 12:26 9,6 C 10,6 C 83 % 1005,5 hPa 0,0 l/m 6,4 km/h (2 Bft) NO 46 0 min 0,000 mm 1,8 UV-I 289 W/m 6,9 C 9,6 C 11,3 km/h (2 Bft) 98,11 %
26.04.2017 12:28 9,8 C 10,6 C 84 % 1005,6 hPa 0,0 l/m 7,8 km/h (2 Bft) NO 46 0 min 0,000 mm 1,7 UV-I 279 W/m 7,2 C 8,8 C 12,9 km/h (3 Bft) 97,56 %
26.04.2017 12:30 9,8 C 10,6 C 83 % 1005,6 hPa 0,0 l/m 7,5 km/h (2 Bft) NO 49 0 min 0,000 mm 1,6 UV-I 269 W/m 7,1 C 9,0 C 12,9 km/h (3 Bft) 100,00 %
26.04.2017 12:32 9,8 C 10,6 C 83 % 1005,7 hPa 0,0 l/m 7,5 km/h (2 Bft) O-NO 57 0 min 0,000 mm 1,5 UV-I 254 W/m 7,1 C 9,0 C 11,3 km/h (2 Bft) 100,00 %
26.04.2017 12:34 9,8 C 10,6 C 82 % 1005,6 hPa 0,0 l/m 9,5 km/h (2 Bft) NO 53 0 min 0,000 mm 1,5 UV-I 242 W/m 6,9 C 7,7 C 16,1 km/h (3 Bft) 97,78 %
26.04.2017 12:36 9,7 C 10,6 C 82 % 1005,7 hPa 0,0 l/m 10,3 km/h (2 Bft) NO 44 0 min 0,000 mm 1,5 UV-I 249 W/m 6,8 C 7,1 C 16,1 km/h (3 Bft) 100,00 %
26.04.2017 12:38 9,6 C 10,6 C 82 % 1005,8 hPa 0,0 l/m 8,6 km/h (2 Bft) NO 56 0 min 0,000 mm 1,5 UV-I 245 W/m 6,7 C 8,0 C 12,9 km/h (3 Bft) 100,00 %
26.04.2017 12:40 9,6 C 10,6 C 84 % 1005,8 hPa 0,0 l/m 8,2 km/h (2 Bft) O-NO 78 0 min 0,000 mm 1,5 UV-I 246 W/m 7,0 C 8,3 C 12,9 km/h (3 Bft) 100,00 %
26.04.2017 12:42 9,6 C 10,6 C 83 % 1005,8 hPa 0,0 l/m 7,7 km/h (2 Bft) NO 45 0 min 0,000 mm 1,6 UV-I 264 W/m 6,9 C 8,6 C 14,5 km/h (3 Bft) 100,00 %
26.04.2017 12:44 9,7 C 10,6 C 84 % 1005,9 hPa 0,0 l/m 5,0 km/h (1 Bft) N-NO 19 0 min 0,000 mm 1,7 UV-I 281 W/m 7,1 C 9,7 C 8,0 km/h (2 Bft) 100,00 %
26.04.2017 12:46 9,8 C 10,6 C 85 % 1005,8 hPa 0,0 l/m 7,2 km/h (2 Bft) N-NO 22 0 min 0,000 mm 1,7 UV-I 289 W/m 7,4 C 9,2 C 11,3 km/h (2 Bft) 98,00 %
26.04.2017 12:48 9,8 C 10,6 C 84 % 1005,8 hPa 0,0 l/m 4,8 km/h (1 Bft) N-NO 19 0 min 0,000 mm 1,7 UV-I 295 W/m 7,2 C 9,8 C 8,0 km/h (2 Bft) 97,87 %
26.04.2017 12:50 9,8 C 10,6 C 84 % 1005,8 hPa 0,0 l/m 5,3 km/h (1 Bft) NO 49 0 min 0,000 mm 1,7 UV-I 272 W/m 7,2 C 9,8 C 8,0 km/h (2 Bft) 95,12 %
26.04.2017 12:52 9,8 C 10,6 C 83 % 1005,8 hPa 0,0 l/m 7,0 km/h (2 Bft) N-NO 19 0 min 0,000 mm 1,5 UV-I 243 W/m 7,1 C 9,4 C 9,7 km/h (2 Bft) 96,23 %
26.04.2017 12:54 9,8 C 10,6 C 83 % 1005,7 hPa 0,0 l/m 3,0 km/h (1 Bft) N-NO 13 0 min 0,000 mm 1,7 UV-I 292 W/m 7,1 C 9,8 C 6,4 km/h (2 Bft) 100,00 %
26.04.2017 12:56 9,8 C 10,6 C 83 % 1005,8 hPa 0,0 l/m 0,5 km/h (0 Bft) N 11 0 min 0,000 mm 1,7 UV-I 296 W/m 7,1 C 9,8 C 3,2 km/h (1 Bft) 94,00 %
26.04.2017 12:58 9,8 C 10,6 C 84 % 1005,8 hPa 0,0 l/m 3,6 km/h (1 Bft) NO 50 0 min 0,000 mm 1,6 UV-I 271 W/m 7,2 C 9,8 C 8,0 km/h (2 Bft) 97,73 %
26.04.2017 13:00 9,9 C 10,6 C 84 % 1005,8 hPa 0,0 l/m 6,4 km/h (2 Bft) N-NO 21 0 min 0,127 mm 1,6 UV-I 260 W/m 7,3 C 9,9 C 11,3 km/h (2 Bft) 95,74 %
26.04.2017 13:02 10,0 C 10,6 C 83 % 1005,8 hPa 0,0 l/m 3,1 km/h (1 Bft) NO 34 0 min 0,000 mm 1,6 UV-I 261 W/m 7,2 C 10,0 C 11,3 km/h (2 Bft) 95,74 %
26.04.2017 13:04 10,1 C 10,6 C 84 % 1005,8 hPa 0,0 l/m 5,4 km/h (1 Bft) N-NO 20 0 min 0,000 mm 1,6 UV-I 267 W/m 7,5 C 10,1 C 11,3 km/h (2 Bft) 96,23 %
26.04.2017 13:06 10,2 C 10,6 C 83 % 1005,8 hPa 0,0 l/m 7,6 km/h (2 Bft) NO 49 0 min 0,000 mm 1,5 UV-I 244 W/m 7,4 C 9,3 C 11,3 km/h (2 Bft) 94,74 %
26.04.2017 13:08 10,1 C 10,6 C 83 % 1005,8 hPa 0,0 l/m 9,5 km/h (2 Bft) N 10 0 min 0,000 mm 1,5 UV-I 244 W/m 7,3 C 8,0 C 14,5 km/h (3 Bft) 98,21 %
26.04.2017 13:10 10,1 C 10,6 C 84 % 1005,8 hPa 0,0 l/m 7,9 km/h (2 Bft) N-NO 30 0 min 0,000 mm 1,6 UV-I 266 W/m 7,5 C 9,0 C 12,9 km/h (3 Bft) 97,73 %
26.04.2017 13:12 9,9 C 10,6 C 83 % 1005,7 hPa 0,0 l/m 6,9 km/h (2 Bft) NO 37 0 min 0,000 mm 1,6 UV-I 265 W/m 7,2 C 9,5 C 9,7 km/h (2 Bft) 93,18 %
26.04.2017 13:14 10,1 C 10,6 C 84 % 1005,7 hPa 0,0 l/m 4,5 km/h (1 Bft) N-NO 30 0 min 0,000 mm 1,6 UV-I 266 W/m 7,5 C 10,1 C 9,7 km/h (2 Bft) 95,74 %
26.04.2017 13:16 10,2 C 10,6 C 83 % 1005,8 hPa 0,0 l/m 1,9 km/h (1 Bft) N 351 0 min 0,000 mm 1,5 UV-I 259 W/m 7,4 C 10,2 C 4,8 km/h (1 Bft) 97,22 %
26.04.2017 13:18 9,9 C 10,6 C 81 % 1005,8 hPa 0,0 l/m 1,0 km/h (0 Bft) N 355 0 min 0,000 mm 1,5 UV-I 254 W/m 6,8 C 9,9 C 3,2 km/h (1 Bft) 98,44 %
26.04.2017 13:20 9,9 C 10,6 C 82 % 1005,7 hPa 0,0 l/m 3,3 km/h (1 Bft) N 5 0 min 0,000 mm 1,5 UV-I 239 W/m 7,0 C 9,9 C 6,4 km/h (2 Bft) 100,00 %
26.04.2017 13:22 10,0 C 10,6 C 84 % 1005,8 hPa 0,0 l/m 7,8 km/h (2 Bft) NO 37 0 min 0,000 mm 1,4 UV-I 229 W/m 7,4 C 9,0 C 12,9 km/h (3 Bft) 100,00 %
26.04.2017 13:24 10,0 C 10,6 C 84 % 1005,8 hPa 0,0 l/m 5,7 km/h (1 Bft) N-NO 32 0 min 0,000 mm 1,4 UV-I 221 W/m 7,4 C 10,0 C 8,0 km/h (2 Bft) 98,21 %
26.04.2017 13:26 9,9 C 10,6 C 83 % 1005,8 hPa 0,0 l/m 4,6 km/h (1 Bft) NO 44 0 min 0,000 mm 1,3 UV-I 214 W/m 7,2 C 9,9 C 9,7 km/h (2 Bft) 100,00 %
26.04.2017 13:28 9,9 C 10,6 C 83 % 1005,8 hPa 0,0 l/m 4,8 km/h (1 Bft) N-NO 24 0 min 0,000 mm 1,2 UV-I 202 W/m 7,2 C 9,9 C 8,0 km/h (2 Bft) 95,74 %
26.04.2017 13:30 9,9 C 10,6 C 83 % 1005,8 hPa 0,0 l/m 6,8 km/h (2 Bft) NO 55 0 min 0,000 mm 1,1 UV-I 180 W/m 7,2 C 9,6 C 9,7 km/h (2 Bft) 100,00 %
26.04.2017 13:32 9,9 C 10,6 C 84 % 1005,8 hPa 0,0 l/m 1,8 km/h (1 Bft) NO 34 0 min 0,000 mm 1,1 UV-I 172 W/m 7,3 C 9,9 C 6,4 km/h (2 Bft) 100,00 %
26.04.2017 13:34 9,8 C 10,6 C 83 % 1005,9 hPa 0,0 l/m 0,4 km/h (0 Bft) NO 34 0 min 0,000 mm 1,0 UV-I 166 W/m 7,1 C 9,8 C 1,6 km/h (1 Bft) 100,00 %
26.04.2017 13:36 9,8 C 10,6 C 83 % 1006,0 hPa 0,0 l/m 0,3 km/h (0 Bft) N-NO 32 0 min 0,000 mm 1,0 UV-I 157 W/m 7,1 C 9,8 C 1,6 km/h (1 Bft) 96,00 %
26.04.2017 13:38 9,8 C 10,6 C 83 % 1006,0 hPa 0,0 l/m 1,3 km/h (1 Bft) N-NW 331 0 min 0,000 mm 0,9 UV-I 151 W/m 7,1 C 9,8 C 4,8 km/h (1 Bft) 95,45 %
26.04.2017 13:40 9,8 C 10,6 C 83 % 1006,0 hPa 0,0 l/m 0,2 km/h (0 Bft) N-NW 331 0 min 0,000 mm 0,9 UV-I 141 W/m 7,1 C 9,8 C 1,6 km/h (1 Bft) 100,00 %
26.04.2017 13:42 9,8 C 10,6 C 83 % 1006,1 hPa 0,0 l/m 4,3 km/h (1 Bft) N-NO 30 0 min 0,000 mm 0,7 UV-I 119 W/m 7,1 C 9,8 C 6,4 km/h (2 Bft) 100,00 %
26.04.2017 13:44 9,8 C 10,6 C 85 % 1006,2 hPa 0,0 l/m 1,0 km/h (0 Bft) N-NO 26 0 min 0,000 mm 0,7 UV-I 112 W/m 7,4 C 9,8 C 3,2 km/h (1 Bft) 98,00 %
26.04.2017 13:46 9,8 C 10,6 C 84 % 1006,1 hPa 0,0 l/m 1,8 km/h (1 Bft) N-NW 335 0 min 0,000 mm 0,6 UV-I 105 W/m 7,2 C 9,8 C 4,8 km/h (1 Bft) 100,00 %
26.04.2017 13:48 9,7 C 10,6 C 83 % 1006,2 hPa 0,0 l/m 1,5 km/h (1 Bft) NW 321 0 min 0,000 mm 0,6 UV-I 98 W/m 7,0 C 9,7 C 4,8 km/h (1 Bft) 97,37 %
26.04.2017 13:50 9,7 C 10,6 C 82 % 1006,2 hPa 0,0 l/m 2,7 km/h (1 Bft) N-NW 330 0 min 0,000 mm 0,6 UV-I 93 W/m 6,8 C 9,7 C 4,8 km/h (1 Bft) 98,00 %
26.04.2017 13:52 9,6 C 10,6 C 82 % 1006,3 hPa 0,0 l/m 3,0 km/h (1 Bft) NW 324 0 min 0,000 mm 0,6 UV-I 93 W/m 6,7 C 9,6 C 4,8 km/h (1 Bft) 96,00 %
26.04.2017 13:54 9,6 C 10,6 C 83 % 1006,3 hPa 0,0 l/m 1,8 km/h (1 Bft) NW 311 0 min 0,000 mm 0,6 UV-I 106 W/m 6,9 C 9,6 C 3,2 km/h (1 Bft) 100,00 %
26.04.2017 13:56 9,6 C 10,6 C 83 % 1006,4 hPa 0,0 l/m 2,4 km/h (1 Bft) W-NW 296 0 min 0,000 mm 0,6 UV-I 112 W/m 6,9 C 9,6 C 4,8 km/h (1 Bft) 100,00 %
26.04.2017 13:58 9,6 C 10,6 C 83 % 1006,4 hPa 0,0 l/m 1,8 km/h (1 Bft) NW 311 0 min 0,000 mm 0,6 UV-I 93 W/m 6,9 C 9,6 C 4,8 km/h (1 Bft) 96,00 %
26.04.2017 14:00 9,5 C 10,6 C 83 % 1006,5 hPa 0,0 l/m 2,6 km/h (1 Bft) NW 319 0 min 0,101 mm 0,6 UV-I 93 W/m 6,8 C 9,5 C 6,4 km/h (2 Bft) 100,00 %
26.04.2017 14:02 9,5 C 10,6 C 83 % 1006,5 hPa 0,0 l/m 3,3 km/h (1 Bft) NW 307 0 min 0,000 mm 0,6 UV-I 105 W/m 6,8 C 9,5 C 8,0 km/h (2 Bft) 96,77 %
26.04.2017 14:04 9,5 C 10,6 C 83 % 1006,6 hPa 0,0 l/m 2,8 km/h (1 Bft) N-NW 333 0 min 0,000 mm 0,6 UV-I 103 W/m 6,8 C 9,5 C 4,8 km/h (1 Bft) 100,00 %
26.04.2017 14:06 9,5 C 10,6 C 85 % 1006,6 hPa 0,0 l/m 2,1 km/h (1 Bft) N 9 0 min 0,000 mm 0,6 UV-I 103 W/m 7,1 C 9,5 C 6,4 km/h (2 Bft) 100,00 %
26.04.2017 14:08 9,5 C 10,6 C 84 % 1006,6 hPa 0,0 l/m 1,6 km/h (1 Bft) NW 319 0 min 0,000 mm 0,6 UV-I 97 W/m 6,9 C 9,5 C 6,4 km/h (2 Bft) 100,00 %
26.04.2017 14:10 9,4 C 10,6 C 84 % 1006,6 hPa 0,0 l/m 2,2 km/h (1 Bft) N-NW 333 0 min 0,000 mm 0,5 UV-I 90 W/m 6,8 C 9,4 C 6,4 km/h (2 Bft) 100,00 %
26.04.2017 14:12 9,4 C 10,6 C 84 % 1006,6 hPa 0,0 l/m 3,3 km/h (1 Bft) NW 312 0 min 0,000 mm 0,5 UV-I 90 W/m 6,8 C 9,4 C 6,4 km/h (2 Bft) 100,00 %
26.04.2017 14:14 9,4 C 10,6 C 84 % 1006,7 hPa 0,0 l/m 4,2 km/h (1 Bft) N-NW 347 0 min 0,000 mm 0,5 UV-I 88 W/m 6,8 C 9,4 C 6,4 km/h (2 Bft) 100,00 %
26.04.2017 14:16 9,4 C 10,6 C 84 % 1006,7 hPa 0,0 l/m 2,2 km/h (1 Bft) N-NW 337 0 min 0,000 mm 0,5 UV-I 84 W/m 6,8 C 9,4 C 4,8 km/h (1 Bft) 95,74 %
26.04.2017 14:18 9,4 C 10,6 C 85 % 1006,7 hPa 0,0 l/m 1,4 km/h (1 Bft) NW 309 0 min 0,000 mm 0,5 UV-I 84 W/m 7,0 C 9,4 C 4,8 km/h (1 Bft) 100,00 %
26.04.2017 14:20 9,4 C 10,6 C 85 % 1006,7 hPa 0,0 l/m 1,7 km/h (1 Bft) NW 307 0 min 0,000 mm 0,5 UV-I 87 W/m 7,0 C 9,4 C 4,8 km/h (1 Bft) 100,00 %
26.04.2017 14:22 9,4 C 10,6 C 85 % 1006,7 hPa 0,0 l/m 2,2 km/h (1 Bft) NW 321 0 min 0,000 mm 0,5 UV-I 96 W/m 7,0 C 9,4 C 4,8 km/h (1 Bft) 96,00 %
26.04.2017 14:24 9,4 C 10,6 C 85 % 1006,7 hPa 0,0 l/m 1,6 km/h (1 Bft) NW 321 0 min 0,000 mm 0,6 UV-I 108 W/m 7,0 C 9,4 C 3,2 km/h (1 Bft) 100,00 %
26.04.2017 14:26 9,4 C 10,6 C 85 % 1006,7 hPa 0,0 l/m 1,9 km/h (1 Bft) N-NW 328 0 min 0,000 mm 0,7 UV-I 117 W/m 7,0 C 9,4 C 4,8 km/h (1 Bft) 98,00 %
26.04.2017 14:28 9,4 C 10,6 C 85 % 1006,8 hPa 0,0 l/m 2,1 km/h (1 Bft) NW 317 0 min 0,000 mm 0,6 UV-I 101 W/m 7,0 C 9,4 C 4,8 km/h (1 Bft) 98,00 %
26.04.2017 14:30 9,4 C 10,6 C 85 % 1006,7 hPa 0,0 l/m 2,5 km/h (1 Bft) NW 326 0 min 0,000 mm 0,5 UV-I 91 W/m 7,0 C 9,4 C 3,2 km/h (1 Bft) 97,73 %
26.04.2017 14:32 9,4 C 10,6 C 85 % 1006,7 hPa 0,0 l/m 4,0 km/h (1 Bft) NW 311 0 min 0,000 mm 0,5 UV-I 86 W/m 7,0 C 9,4 C 8,0 km/h (2 Bft) 100,00 %
26.04.2017 14:34 9,3 C 10,6 C 85 % 1006,8 hPa 0,0 l/m 3,3 km/h (1 Bft) NW 315 0 min 0,000 mm 0,0 UV-I 75 W/m 6,9 C 9,3 C 12,9 km/h (3 Bft) 97,44 %
26.04.2017 14:36 9,3 C 10,6 C 86 % 1006,8 hPa 0,0 l/m 3,3 km/h (1 Bft) NW 322 0 min 0,000 mm 0,0 UV-I 67 W/m 7,1 C 9,3 C 9,7 km/h (2 Bft) 96,23 %
26.04.2017 14:38 9,3 C 10,6 C 86 % 1006,8 hPa 0,0 l/m 3,6 km/h (1 Bft) NW 309 0 min 0,000 mm 0,0 UV-I 67 W/m 7,1 C 9,3 C 6,4 km/h (2 Bft) 97,73 %
26.04.2017 14:40 9,3 C 10,6 C 86 % 1006,8 hPa 0,0 l/m 3,7 km/h (1 Bft) NW 313 0 min 0,000 mm 0,0 UV-I 69 W/m 7,1 C 9,3 C 8,0 km/h (2 Bft) 98,11 %
26.04.2017 14:42 9,2 C 10,6 C 86 % 1006,9 hPa 0,0 l/m 2,7 km/h (1 Bft) W-NW 295 0 min 0,000 mm 0,0 UV-I 66 W/m 7,0 C 9,2 C 6,4 km/h (2 Bft) 95,74 %
26.04.2017 14:44 9,2 C 10,6 C 86 % 1006,9 hPa 0,0 l/m 3,4 km/h (1 Bft) W-NW 288 0 min 0,000 mm 0,0 UV-I 65 W/m 7,0 C 9,2 C 6,4 km/h (2 Bft) 97,73 %
26.04.2017 14:46 9,2 C 10,6 C 86 % 1006,9 hPa 0,0 l/m 2,4 km/h (1 Bft) W-NW 288 0 min 0,000 mm 0,0 UV-I 66 W/m 7,0 C 9,2 C 4,8 km/h (1 Bft) 97,50 %
26.04.2017 14:48 9,2 C 10,6 C 86 % 1006,9 hPa 0,0 l/m 0,6 km/h (0 Bft) W-NW 285 0 min 0,000 mm 0,0 UV-I 64 W/m 7,0 C 9,2 C 3,2 km/h (1 Bft) 97,87 %
26.04.2017 14:50 9,2 C 10,6 C 86 % 1006,9 hPa 0,0 l/m 0,6 km/h (0 Bft) W-NW 285 0 min 0,000 mm 0,0 UV-I 65 W/m 7,0 C 9,2 C 3,2 km/h (1 Bft) 95,74 %
26.04.2017 14:52 9,1 C 10,6 C 86 % 1006,9 hPa 0,0 l/m 1,8 km/h (1 Bft) W-NW 299 0 min 0,000 mm 0,0 UV-I 69 W/m 6,9 C 9,1 C 4,8 km/h (1 Bft) 94,00 %
26.04.2017 14:54 9,1 C 10,6 C 86 % 1006,9 hPa 0,0 l/m 2,8 km/h (1 Bft) NW 313 0 min 0,000 mm 0,0 UV-I 74 W/m 6,9 C 9,1 C 6,4 km/h (2 Bft) 94,00 %
26.04.2017 14:56 9,0 C 10,6 C 85 % 1007,0 hPa 0,0 l/m 2,2 km/h (1 Bft) N-NW 348 0 min 0,000 mm 0,0 UV-I 69 W/m 6,6 C 9,0 C 6,4 km/h (2 Bft) 96,00 %
26.04.2017 14:58 9,0 C 10,6 C 86 % 1006,9 hPa 0,0 l/m 2,7 km/h (1 Bft) W-NW 298 0 min 0,000 mm 0,0 UV-I 65 W/m 6,8 C 9,0 C 6,4 km/h (2 Bft) 94,74 %
26.04.2017 15:00 9,1 C 10,6 C 86 % 1006,9 hPa 0,0 l/m 0,9 km/h (0 Bft) W-NW 298 0 min 0,051 mm 0,0 UV-I 67 W/m 6,9 C 9,1 C 3,2 km/h (1 Bft) 95,74 %
26.04.2017 15:02 9,1 C 10,6 C 86 % 1007,0 hPa 0,0 l/m 3,5 km/h (1 Bft) SW 219 0 min 0,000 mm 0,0 UV-I 64 W/m 6,9 C 9,1 C 8,0 km/h (2 Bft) 96,00 %
26.04.2017 15:04 9,1 C 10,6 C 85 % 1007,0 hPa 0,0 l/m 5,6 km/h (1 Bft) W-SW 237 0 min 0,000 mm 0,0 UV-I 59 W/m 6,7 C 9,1 C 12,9 km/h (3 Bft) 95,12 %
26.04.2017 15:06 9,0 C 10,6 C 85 % 1007,1 hPa 0,0 l/m 6,8 km/h (2 Bft) W-NW 293 0 min 0,000 mm 0,0 UV-I 62 W/m 6,6 C 8,7 C 12,9 km/h (3 Bft) 96,61 %
26.04.2017 15:08 9,0 C 10,6 C 85 % 1007,2 hPa 0,0 l/m 6,1 km/h (2 Bft) W 261 0 min 0,000 mm 0,0 UV-I 65 W/m 6,6 C 9,0 C 11,3 km/h (2 Bft) 97,14 %
26.04.2017 15:10 8,9 C 10,6 C 85 % 1007,2 hPa 0,0 l/m 7,0 km/h (2 Bft) W-SW 239 0 min 0,000 mm 0,0 UV-I 67 W/m 6,5 C 8,4 C 12,9 km/h (3 Bft) 96,00 %
26.04.2017 15:12 8,9 C 10,6 C 85 % 1007,2 hPa 0,0 l/m 6,3 km/h (2 Bft) W-SW 253 0 min 0,000 mm 0,2 UV-I 84 W/m 6,5 C 8,9 C 11,3 km/h (2 Bft) 94,00 %
26.04.2017 15:14 8,8 C 10,6 C 86 % 1007,1 hPa 0,0 l/m 6,2 km/h (2 Bft) W-SW 254 0 min 0,000 mm 0,3 UV-I 88 W/m 6,6 C 8,8 C 12,9 km/h (3 Bft) 97,44 %
26.04.2017 15:16 8,8 C 10,6 C 86 % 1007,2 hPa 0,0 l/m 4,7 km/h (1 Bft) W 281 0 min 0,000 mm 0,0 UV-I 83 W/m 6,6 C 8,8 C 6,4 km/h (2 Bft) 93,18 %
26.04.2017 15:18 8,7 C 10,6 C 87 % 1007,2 hPa 0,0 l/m 9,5 km/h (2 Bft) W 262 0 min 0,000 mm 0,4 UV-I 89 W/m 6,7 C 6,5 C 17,7 km/h (3 Bft) 93,22 %
26.04.2017 15:20 8,7 C 10,6 C 86 % 1007,2 hPa 0,0 l/m 9,7 km/h (2 Bft) SW 234 0 min 0,000 mm 0,5 UV-I 93 W/m 6,5 C 6,3 C 16,1 km/h (3 Bft) 95,12 %
26.04.2017 15:22 8,7 C 10,6 C 86 % 1007,3 hPa 0,0 l/m 5,6 km/h (1 Bft) W-NW 301 0 min 0,000 mm 0,5 UV-I 97 W/m 6,5 C 8,7 C 11,3 km/h (2 Bft) 96,23 %
26.04.2017 15:24 8,7 C 10,6 C 87 % 1007,3 hPa 0,0 l/m 3,3 km/h (1 Bft) W-NW 300 0 min 0,000 mm 0,5 UV-I 95 W/m 6,7 C 8,7 C 6,4 km/h (2 Bft) 92,11 %
26.04.2017 15:26 8,7 C 10,6 C 88 % 1007,3 hPa 0,0 l/m 4,7 km/h (1 Bft) W-NW 296 0 min 0,000 mm 0,5 UV-I 90 W/m 6,8 C 8,7 C 12,9 km/h (3 Bft) 96,00 %
26.04.2017 15:28 8,7 C 10,6 C 88 % 1007,3 hPa 0,0 l/m 5,4 km/h (1 Bft) W-SW 238 0 min 0,000 mm 0,2 UV-I 85 W/m 6,8 C 8,7 C 11,3 km/h (2 Bft) 96,00 %
26.04.2017 15:30 8,7 C 10,6 C 87 % 1007,4 hPa 0,0 l/m 8,7 km/h (2 Bft) W-SW 245 0 min 0,000 mm 0,0 UV-I 82 W/m 6,7 C 7,0 C 16,1 km/h (3 Bft) 94,00 %
26.04.2017 15:32 8,7 C 10,6 C 87 % 1007,4 hPa 0,0 l/m 7,6 km/h (2 Bft) W 266 0 min 0,000 mm 0,0 UV-I 75 W/m 6,7 C 7,8 C 14,5 km/h (3 Bft) 96,23 %
26.04.2017 15:34 8,7 C 10,6 C 87 % 1007,5 hPa 0,0 l/m 7,2 km/h (2 Bft) NW 307 0 min 0,000 mm 0,0 UV-I 71 W/m 6,7 C 8,1 C 11,3 km/h (2 Bft) 97,37 %
26.04.2017 15:36 8,7 C 10,6 C 87 % 1007,4 hPa 0,0 l/m 7,3 km/h (2 Bft) W 261 0 min 0,000 mm 0,0 UV-I 76 W/m 6,7 C 8,0 C 12,9 km/h (3 Bft) 96,23 %
26.04.2017 15:38 8,7 C 10,6 C 87 % 1007,4 hPa 0,0 l/m 4,5 km/h (1 Bft) W-SW 255 0 min 0,000 mm 0,0 UV-I 76 W/m 6,7 C 8,7 C 9,7 km/h (2 Bft) 97,14 %
26.04.2017 15:40 8,7 C 10,6 C 87 % 1007,5 hPa 0,0 l/m 4,1 km/h (1 Bft) SW 230 0 min 0,000 mm 0,0 UV-I 71 W/m 6,7 C 8,7 C 8,0 km/h (2 Bft) 95,74 %
26.04.2017 15:42 8,7 C 10,6 C 87 % 1007,6 hPa 0,0 l/m 4,9 km/h (1 Bft) SW 231 0 min 0,000 mm 0,0 UV-I 67 W/m 6,7 C 8,7 C 14,5 km/h (3 Bft) 96,00 %
26.04.2017 15:44 8,6 C 10,6 C 87 % 1007,5 hPa 0,0 l/m 6,3 km/h (2 Bft) SW 236 0 min 0,000 mm 0,0 UV-I 73 W/m 6,6 C 8,6 C 12,9 km/h (3 Bft) 100,00 %
26.04.2017 15:46 8,6 C 10,6 C 87 % 1007,5 hPa 0,0 l/m 6,0 km/h (2 Bft) N-NW 332 0 min 0,000 mm 0,0 UV-I 84 W/m 6,6 C 8,6 C 12,9 km/h (3 Bft) 97,37 %
26.04.2017 15:48 8,5 C 10,6 C 88 % 1007,5 hPa 0,0 l/m 6,8 km/h (2 Bft) W 280 0 min 0,000 mm 0,0 UV-I 85 W/m 6,6 C 8,2 C 12,9 km/h (3 Bft) 100,00 %
26.04.2017 15:50 8,5 C 10,6 C 88 % 1007,7 hPa 0,0 l/m 7,1 km/h (2 Bft) W-SW 257 0 min 0,000 mm 0,0 UV-I 68 W/m 6,6 C 8,0 C 14,5 km/h (3 Bft) 100,00 %
26.04.2017 15:52 8,4 C 10,6 C 89 % 1007,7 hPa 0,0 l/m 5,2 km/h (1 Bft) W 276 0 min 0,000 mm 0,0 UV-I 61 W/m 6,7 C 8,4 C 12,9 km/h (3 Bft) 98,21 %
26.04.2017 15:54 8,4 C 10,6 C 89 % 1007,7 hPa 0,0 l/m 3,5 km/h (1 Bft) W 269 0 min 0,000 mm 0,0 UV-I 62 W/m 6,7 C 8,4 C 6,4 km/h (2 Bft) 100,00 %
26.04.2017 15:56 8,3 C 10,6 C 89 % 1007,7 hPa 0,0 l/m 5,2 km/h (1 Bft) W 273 0 min 0,000 mm 0,0 UV-I 62 W/m 6,6 C 8,3 C 11,3 km/h (2 Bft) 100,00 %
26.04.2017 15:58 8,2 C 10,6 C 90 % 1007,8 hPa 0,0 l/m 4,8 km/h (1 Bft) W-NW 296 0 min 0,000 mm 0,0 UV-I 55 W/m 6,7 C 8,2 C 12,9 km/h (3 Bft) 98,00 %
26.04.2017 16:00 8,2 C 10,6 C 91 % 1007,8 hPa 0,0 l/m 2,2 km/h (1 Bft) W 263 0 min 0,051 mm 0,0 UV-I 52 W/m 6,8 C 8,2 C 4,8 km/h (1 Bft) 100,00 %
26.04.2017 16:02 8,2 C 10,6 C 91 % 1007,8 hPa 0,0 l/m 4,6 km/h (1 Bft) W 263 0 min 0,000 mm 0,0 UV-I 63 W/m 6,8 C 8,2 C 6,4 km/h (2 Bft) 97,14 %
26.04.2017 16:04 8,1 C 10,6 C 91 % 1007,8 hPa 0,0 l/m 4,6 km/h (1 Bft) W-NW 287 0 min 0,000 mm 0,0 UV-I 69 W/m 6,7 C 8,1 C 11,3 km/h (2 Bft) 100,00 %
26.04.2017 16:06 8,1 C 10,6 C 92 % 1007,8 hPa 0,0 l/m 2,0 km/h (1 Bft) W 272 0 min 0,000 mm 0,0 UV-I 64 W/m 6,9 C 8,1 C 4,8 km/h (1 Bft) 100,00 %
26.04.2017 16:08 8,0 C 10,6 C 92 % 1007,9 hPa 0,0 l/m 2,6 km/h (1 Bft) W-NW 283 0 min 0,000 mm 0,0 UV-I 58 W/m 6,8 C 8,0 C 4,8 km/h (1 Bft) 98,00 %
26.04.2017 16:10 8,0 C 10,6 C 92 % 1007,9 hPa 0,0 l/m 3,7 km/h (1 Bft) W 270 0 min 0,000 mm 0,0 UV-I 55 W/m 6,8 C 8,0 C 9,7 km/h (2 Bft) 100,00 %
26.04.2017 16:12 8,0 C 10,6 C 93 % 1008,0 hPa 0,0 l/m 3,4 km/h (1 Bft) W 270 0 min 0,000 mm 0,0 UV-I 44 W/m 6,9 C 8,0 C 4,8 km/h (1 Bft) 100,00 %
26.04.2017 16:14 7,9 C 10,6 C 93 % 1008,0 hPa 0,0 l/m 2,8 km/h (1 Bft) W 270 0 min 0,000 mm 0,0 UV-I 40 W/m 6,8 C 7,9 C 4,8 km/h (1 Bft) 98,11 %
26.04.2017 16:16 7,9 C 10,6 C 93 % 1008,0 hPa 0,0 l/m 1,6 km/h (1 Bft) W 271 0 min 0,000 mm 0,0 UV-I 46 W/m 6,8 C 7,9 C 4,8 km/h (1 Bft) 100,00 %
26.04.2017 16:18 7,9 C 10,6 C 93 % 1008,0 hPa 0,0 l/m 3,4 km/h (1 Bft) W-SW 254 0 min 0,000 mm 0,0 UV-I 45 W/m 6,8 C 7,9 C 6,4 km/h (2 Bft) 98,00 %
26.04.2017 16:20 7,8 C 10,6 C 93 % 1008,0 hPa 0,0 l/m 1,4 km/h (1 Bft) W 261 0 min 0,000 mm 0,0 UV-I 40 W/m 6,7 C 7,8 C 4,8 km/h (1 Bft) 98,00 %
26.04.2017 16:22 7,8 C 10,6 C 93 % 1008,0 hPa 0,0 l/m 2,6 km/h (1 Bft) W-NW 288 0 min 0,000 mm 0,0 UV-I 47 W/m 6,7 C 7,8 C 4,8 km/h (1 Bft) 100,00 %
26.04.2017 16:24 7,8 C 10,6 C 94 % 1008,0 hPa 0,0 l/m 2,0 km/h (1 Bft) W-NW 302 0 min 0,000 mm 0,0 UV-I 49 W/m 6,9 C 7,8 C 4,8 km/h (1 Bft) 97,87 %
26.04.2017 16:26 7,8 C 10,6 C 94 % 1008,1 hPa 0,0 l/m 2,3 km/h (1 Bft) NW 317 0 min 0,000 mm 0,0 UV-I 40 W/m 6,9 C 7,8 C 6,4 km/h (2 Bft) 97,87 %
26.04.2017 16:28 7,8 C 10,6 C 94 % 1008,1 hPa 0,0 l/m 0,2 km/h (0 Bft) NW 317 0 min 0,000 mm 0,0 UV-I 42 W/m 6,9 C 7,8 C 1,6 km/h (1 Bft) 100,00 %
26.04.2017 16:30 7,8 C 10,6 C 94 % 1008,1 hPa 0,0 l/m 1,6 km/h (1 Bft) W-NW 287 0 min 0,000 mm 0,0 UV-I 40 W/m 6,9 C 7,8 C 4,8 km/h (1 Bft) 98,00 %
26.04.2017 16:32 7,8 C 10,6 C 94 % 1008,1 hPa 0,0 l/m 1,8 km/h (1 Bft) NW 304 0 min 0,000 mm 0,0 UV-I 37 W/m 6,9 C 7,8 C 4,8 km/h (1 Bft) 93,62 %
26.04.2017 16:34 7,7 C 10,6 C 94 % 1008,1 hPa 0,0 l/m 3,0 km/h (1 Bft) NW 309 0 min 0,000 mm 0,0 UV-I 39 W/m 6,8 C 7,7 C 6,4 km/h (2 Bft) 94,87 %
26.04.2017 16:36 7,7 C 10,6 C 94 % 1008,2 hPa 0,2 l/m 0,7 km/h (0 Bft) NW 309 0 min 0,000 mm 0,0 UV-I 40 W/m 6,8 C 7,7 C 3,2 km/h (1 Bft) 100,00 %
26.04.2017 16:38 7,7 C 10,6 C 94 % 1008,2 hPa 0,0 l/m 1,4 km/h (1 Bft) NW 321 0 min 0,000 mm 0,0 UV-I 39 W/m 6,8 C 7,7 C 4,8 km/h (1 Bft) 96,23 %
26.04.2017 16:40 7,6 C 10,6 C 94 % 1008,2 hPa 0,0 l/m 1,8 km/h (1 Bft) NW 321 0 min 0,000 mm 0,0 UV-I 36 W/m 6,7 C 7,6 C 6,4 km/h (2 Bft) 97,92 %
26.04.2017 16:42 7,6 C 10,6 C 94 % 1008,2 hPa 0,0 l/m 1,2 km/h (1 Bft) NW 304 0 min 0,000 mm 0,0 UV-I 34 W/m 6,7 C 7,6 C 3,2 km/h (1 Bft) 100,00 %
26.04.2017 16:44 7,6 C 10,6 C 94 % 1008,2 hPa 0,0 l/m 0,9 km/h (0 Bft) N-NW 327 0 min 0,000 mm 0,0 UV-I 32 W/m 6,7 C 7,6 C 4,8 km/h (1 Bft) 100,00 %
26.04.2017 16:46 7,6 C 10,6 C 94 % 1008,2 hPa 0,2 l/m 0,0 km/h (0 Bft) N-NW 327 0 min 0,000 mm 0,0 UV-I 33 W/m 6,7 C 7,6 C 0,0 km/h (0 Bft) 91,49 %
26.04.2017 16:48 7,5 C 10,6 C 95 % 1008,3 hPa 0,0 l/m 0,6 km/h (0 Bft) N-NW 327 0 min 0,000 mm 0,0 UV-I 35 W/m 6,8 C 7,5 C 3,2 km/h (1 Bft) 94,34 %
26.04.2017 16:50 7,5 C 10,6 C 94 % 1008,3 hPa 0,0 l/m 0,7 km/h (0 Bft) N-NW 327 0 min 0,000 mm 0,0 UV-I 32 W/m 6,6 C 7,5 C 1,6 km/h (1 Bft) 100,00 %
26.04.2017 16:52 7,5 C 10,6 C 95 % 1008,3 hPa 0,0 l/m 0,0 km/h (0 Bft) N-NW 327 0 min 0,000 mm 0,0 UV-I 31 W/m 6,8 C 7,5 C 1,6 km/h (1 Bft) 94,74 %
26.04.2017 16:54 7,5 C 10,6 C 95 % 1008,4 hPa 0,0 l/m 0,5 km/h (0 Bft) N-NW 327 0 min 0,000 mm 0,0 UV-I 33 W/m 6,8 C 7,5 C 3,2 km/h (1 Bft) 95,74 %
26.04.2017 16:56 7,6 C 10,6 C 95 % 1008,3 hPa 0,2 l/m 1,1 km/h (1 Bft) N-NW 327 0 min 0,000 mm 0,0 UV-I 33 W/m 6,9 C 7,6 C 3,2 km/h (1 Bft) 95,74 %
26.04.2017 16:58 7,4 C 10,6 C 95 % 1008,3 hPa 0,0 l/m 0,0 km/h (0 Bft) N-NW 327 0 min 0,000 mm 0,0 UV-I 32 W/m 6,7 C 7,4 C 1,6 km/h (1 Bft) 94,00 %
26.04.2017 17:00 7,4 C 10,6 C 95 % 1008,3 hPa 0,0 l/m 1,5 km/h (1 Bft) N-NW 327 0 min 0,000 mm 0,0 UV-I 32 W/m 6,7 C 7,4 C 3,2 km/h (1 Bft) 95,74 %
26.04.2017 17:02 7,4 C 10,6 C 95 % 1008,3 hPa 0,2 l/m 0,0 km/h (0 Bft) N-NW 327 0 min 0,025 mm 0,0 UV-I 31 W/m 6,7 C 7,4 C 1,6 km/h (1 Bft) 95,12 %
26.04.2017 17:04 7,4 C 10,6 C 95 % 1008,3 hPa 0,0 l/m 0,5 km/h (0 Bft) N-NW 327 0 min 0,000 mm 0,0 UV-I 30 W/m 6,7 C 7,4 C 3,2 km/h (1 Bft) 92,00 %
26.04.2017 17:06 7,4 C 10,6 C 95 % 1008,3 hPa 0,0 l/m 1,0 km/h (0 Bft) N-NW 327 0 min 0,000 mm 0,0 UV-I 30 W/m 6,7 C 7,4 C 1,6 km/h (1 Bft) 96,23 %
26.04.2017 17:08 7,4 C 10,6 C 95 % 1008,3 hPa 0,0 l/m 1,6 km/h (1 Bft) NW 318 0 min 0,000 mm 0,0 UV-I 28 W/m 6,7 C 7,4 C 3,2 km/h (1 Bft) 95,12 %
26.04.2017 17:10 7,4 C 10,6 C 95 % 1008,3 hPa 0,0 l/m 0,1 km/h (0 Bft) NW 318 0 min 0,000 mm 0,0 UV-I 26 W/m 6,7 C 7,4 C 1,6 km/h (1 Bft) 91,49 %
26.04.2017 17:12 7,4 C 10,6 C 95 % 1008,4 hPa 0,0 l/m 0,5 km/h (0 Bft) NW 318 0 min 0,000 mm 0,0 UV-I 26 W/m 6,7 C 7,4 C 3,2 km/h (1 Bft) 93,75 %
26.04.2017 17:14 7,4 C 10,6 C 95 % 1008,4 hPa 0,0 l/m 0,8 km/h (0 Bft) NW 318 0 min 0,000 mm 0,0 UV-I 26 W/m 6,7 C 7,4 C 3,2 km/h (1 Bft) 92,31 %
26.04.2017 17:16 7,4 C 10,6 C 95 % 1008,4 hPa 0,0 l/m 0,0 km/h (0 Bft) NW 318 0 min 0,000 mm 0,0 UV-I 26 W/m 6,7 C 7,4 C 0,0 km/h (0 Bft) 97,22 %
26.04.2017 17:18 7,4 C 10,6 C 95 % 1008,4 hPa 0,0 l/m 0,5 km/h (0 Bft) NW 318 0 min 0,000 mm 0,0 UV-I 28 W/m 6,7 C 7,4 C 3,2 km/h (1 Bft) 92,45 %
26.04.2017 17:20 7,4 C 10,6 C 95 % 1008,4 hPa 0,0 l/m 0,1 km/h (0 Bft) NW 318 0 min 0,000 mm 0,0 UV-I 28 W/m 6,7 C 7,4 C 1,6 km/h (1 Bft) 92,00 %
26.04.2017 17:22 7,4 C 10,6 C 95 % 1008,4 hPa 0,0 l/m 0,1 km/h (0 Bft) NW 318 0 min 0,000 mm 0,0 UV-I 30 W/m 6,7 C 7,4 C 1,6 km/h (1 Bft) 90,00 %
26.04.2017 17:24 7,4 C 10,6 C 95 % 1008,4 hPa 0,0 l/m 0,0 km/h (0 Bft) NW 318 0 min 0,000 mm 0,0 UV-I 28 W/m 6,7 C 7,4 C 1,6 km/h (1 Bft) 94,74 %
26.04.2017 17:26 7,4 C 10,6 C 95 % 1008,5 hPa 0,2 l/m 0,0 km/h (0 Bft) NW 318 0 min 0,000 mm 0,0 UV-I 32 W/m 6,7 C 7,4 C 0,0 km/h (0 Bft) 98,11 %
26.04.2017 17:28 7,4 C 10,6 C 95 % 1008,5 hPa 0,0 l/m 0,3 km/h (0 Bft) NW 318 0 min 0,000 mm 0,0 UV-I 29 W/m 6,7 C 7,4 C 1,6 km/h (1 Bft) 95,74 %
26.04.2017 17:30 7,4 C 10,6 C 95 % 1008,5 hPa 0,0 l/m 0,1 km/h (0 Bft) NW 318 0 min 0,000 mm 0,0 UV-I 25 W/m 6,7 C 7,4 C 1,6 km/h (1 Bft) 97,87 %
26.04.2017 17:32 7,4 C 10,6 C 95 % 1008,5 hPa 0,0 l/m 0,0 km/h (0 Bft) NW 318 0 min 0,000 mm 0,0 UV-I 25 W/m 6,7 C 7,4 C 1,6 km/h (1 Bft) 100,00 %
26.04.2017 17:34 7,4 C 10,6 C 96 % 1008,6 hPa 0,0 l/m 0,8 km/h (0 Bft) NW 318 0 min 0,000 mm 0,0 UV-I 25 W/m 6,8 C 7,4 C 3,2 km/h (1 Bft) 98,21 %
26.04.2017 17:36 7,4 C 10,6 C 96 % 1008,6 hPa 0,0 l/m 0,3 km/h (0 Bft) NW 318 0 min 0,000 mm 0,0 UV-I 25 W/m 6,8 C 7,4 C 1,6 km/h (1 Bft) 97,73 %
26.04.2017 17:38 7,4 C 10,6 C 95 % 1008,6 hPa 0,0 l/m 0,3 km/h (0 Bft) NW 318 0 min 0,000 mm 0,0 UV-I 25 W/m 6,7 C 7,4 C 1,6 km/h (1 Bft) 100,00 %
26.04.2017 17:40 7,3 C 10,6 C 96 % 1008,6 hPa 0,0 l/m 0,3 km/h (0 Bft) NW 318 0 min 0,000 mm 0,0 UV-I 25 W/m 6,7 C 7,3 C 1,6 km/h (1 Bft) 100,00 %
26.04.2017 17:42 7,3 C 10,6 C 95 % 1008,6 hPa 0,2 l/m 0,0 km/h (0 Bft) NW 318 0 min 0,000 mm 0,0 UV-I 25 W/m 6,6 C 7,3 C 0,0 km/h (0 Bft) 95,12 %
26.04.2017 17:44 7,3 C 10,6 C 95 % 1008,7 hPa 0,0 l/m 1,3 km/h (1 Bft) NW 319 0 min 0,000 mm 0,0 UV-I 25 W/m 6,6 C 7,3 C 3,2 km/h (1 Bft) 96,00 %
26.04.2017 17:46 7,3 C 10,6 C 95 % 1008,7 hPa 0,0 l/m 1,0 km/h (0 Bft) NW 319 0 min 0,000 mm 0,0 UV-I 26 W/m 6,6 C 7,3 C 3,2 km/h (1 Bft) 100,00 %
26.04.2017 17:48 7,3 C 10,6 C 95 % 1008,7 hPa 0,0 l/m 0,2 km/h (0 Bft) NW 319 0 min 0,000 mm 0,0 UV-I 25 W/m 6,6 C 7,3 C 1,6 km/h (1 Bft) 100,00 %
26.04.2017 17:50 7,2 C 10,6 C 95 % 1008,7 hPa 0,0 l/m 0,3 km/h (0 Bft) NW 319 0 min 0,000 mm 0,0 UV-I 29 W/m 6,5 C 7,2 C 1,6 km/h (1 Bft) 92,31 %
26.04.2017 17:52 7,2 C 10,6 C 95 % 1008,7 hPa 0,2 l/m 0,2 km/h (0 Bft) NW 319 0 min 0,000 mm 0,0 UV-I 32 W/m 6,5 C 7,2 C 1,6 km/h (1 Bft) 100,00 %
26.04.2017 17:54 7,2 C 10,6 C 95 % 1008,7 hPa 0,0 l/m 0,6 km/h (0 Bft) NW 319 0 min 0,000 mm 0,0 UV-I 32 W/m 6,5 C 7,2 C 3,2 km/h (1 Bft) 97,87 %
26.04.2017 17:56 7,3 C 10,6 C 96 % 1008,8 hPa 0,0 l/m 0,1 km/h (0 Bft) NW 319 0 min 0,000 mm 0,0 UV-I 32 W/m 6,7 C 7,3 C 1,6 km/h (1 Bft) 100,00 %
26.04.2017 17:58 7,3 C 10,6 C 96 % 1008,7 hPa 0,0 l/m 0,0 km/h (0 Bft) NW 319 0 min 0,000 mm 0,0 UV-I 32 W/m 6,7 C 7,3 C 0,0 km/h (0 Bft) 94,74 %
26.04.2017 18:00 7,3 C 10,6 C 96 % 1008,8 hPa 0,0 l/m 0,2 km/h (0 Bft) NW 319 0 min 0,000 mm 0,0 UV-I 27 W/m 6,7 C 7,3 C 1,6 km/h (1 Bft) 97,87 %
26.04.2017 18:02 7,3 C 10,6 C 95 % 1008,8 hPa 0,2 l/m 2,3 km/h (1 Bft) NW 325 0 min 0,000 mm 0,0 UV-I 23 W/m 6,6 C 7,3 C 4,8 km/h (1 Bft) 100,00 %
26.04.2017 18:04 7,2 C 10,6 C 96 % 1008,8 hPa 0,0 l/m 0,6 km/h (0 Bft) NW 325 0 min 0,000 mm 0,0 UV-I 21 W/m 6,6 C 7,2 C 1,6 km/h (1 Bft) 97,56 %
26.04.2017 18:06 7,2 C 10,6 C 96 % 1008,8 hPa 0,0 l/m 0,4 km/h (0 Bft) NW 325 0 min 0,000 mm 0,0 UV-I 22 W/m 6,6 C 7,2 C 1,6 km/h (1 Bft) 94,00 %
26.04.2017 18:08 7,2 C 10,6 C 95 % 1008,8 hPa 0,0 l/m 0,1 km/h (0 Bft) NW 325 0 min 0,000 mm 0,0 UV-I 26 W/m 6,5 C 7,2 C 1,6 km/h (1 Bft) 96,00 %
26.04.2017 18:10 7,1 C 10,6 C 95 % 1008,8 hPa 0,0 l/m 0,0 km/h (0 Bft) NW 325 0 min 0,000 mm 0,0 UV-I 29 W/m 6,4 C 7,1 C 1,6 km/h (1 Bft) 100,00 %
26.04.2017 18:12 7,1 C 10,6 C 96 % 1008,8 hPa 0,0 l/m 0,3 km/h (0 Bft) NW 325 0 min 0,000 mm 0,0 UV-I 26 W/m 6,5 C 7,1 C 1,6 km/h (1 Bft) 97,87 %
26.04.2017 18:14 7,2 C 10,6 C 96 % 1008,9 hPa 0,2 l/m 0,6 km/h (0 Bft) NW 325 0 min 0,000 mm 0,0 UV-I 25 W/m 6,6 C 7,2 C 1,6 km/h (1 Bft) 91,43 %
26.04.2017 18:16 7,1 C 10,6 C 96 % 1008,9 hPa 0,0 l/m 0,3 km/h (0 Bft) NW 325 0 min 0,000 mm 0,0 UV-I 32 W/m 6,5 C 7,1 C 1,6 km/h (1 Bft) 98,21 %
26.04.2017 18:18 7,1 C 10,6 C 96 % 1008,8 hPa 0,0 l/m 0,4 km/h (0 Bft) NW 325 0 min 0,000 mm 0,0 UV-I 40 W/m 6,5 C 7,1 C 1,6 km/h (1 Bft) 96,00 %
26.04.2017 18:20 7,1 C 10,6 C 96 % 1008,9 hPa 0,2 l/m 0,0 km/h (0 Bft) NW 325 0 min 0,000 mm 0,0 UV-I 44 W/m 6,5 C 7,1 C 1,6 km/h (1 Bft) 97,56 %
26.04.2017 18:22 7,1 C 10,6 C 96 % 1008,8 hPa 0,0 l/m 0,2 km/h (0 Bft) N-NW 328 0 min 0,000 mm 0,0 UV-I 42 W/m 6,5 C 7,1 C 3,2 km/h (1 Bft) 94,00 %
26.04.2017 18:24 7,1 C 10,6 C 96 % 1008,9 hPa 0,0 l/m 0,2 km/h (0 Bft) N-NW 328 0 min 0,000 mm 0,0 UV-I 40 W/m 6,5 C 7,1 C 1,6 km/h (1 Bft) 97,14 %
26.04.2017 18:26 7,1 C 10,6 C 95 % 1008,9 hPa 0,0 l/m 0,5 km/h (0 Bft) N-NW 328 0 min 0,000 mm 0,0 UV-I 40 W/m 6,4 C 7,1 C 1,6 km/h (1 Bft) 94,92 %
26.04.2017 18:28 7,1 C 10,6 C 95 % 1008,9 hPa 0,0 l/m 0,6 km/h (0 Bft) N-NW 328 0 min 0,000 mm 0,0 UV-I 39 W/m 6,4 C 7,1 C 1,6 km/h (1 Bft) 100,00 %
26.04.2017 18:30 7,1 C 10,6 C 95 % 1009,0 hPa 0,0 l/m 0,0 km/h (0 Bft) N-NW 328 0 min 0,000 mm 0,0 UV-I 34 W/m 6,4 C 7,1 C 0,0 km/h (0 Bft) 95,71 %
26.04.2017 18:32 7,2 C 10,6 C 96 % 1009,0 hPa 0,0 l/m 0,2 km/h (0 Bft) N-NW 328 0 min 0,000 mm 0,0 UV-I 30 W/m 6,6 C 7,2 C 3,2 km/h (1 Bft) 97,87 %
26.04.2017 18:34 7,2 C 10,6 C 96 % 1009,0 hPa 0,0 l/m 1,9 km/h (1 Bft) N-NW 328 0 min 0,000 mm 0,0 UV-I 26 W/m 6,6 C 7,2 C 3,2 km/h (1 Bft) 95,74 %
26.04.2017 18:36 7,1 C 10,6 C 95 % 1009,0 hPa 0,2 l/m 0,7 km/h (0 Bft) N-NW 328 0 min 0,000 mm 0,0 UV-I 25 W/m 6,4 C 7,1 C 3,2 km/h (1 Bft) 97,44 %
26.04.2017 18:40 7,2 C 10,6 C 95 % 1009,0 hPa 0,0 l/m 0,0 km/h (0 Bft) N-NW 337 0 min 0,000 mm 0,0 UV-I 26 W/m 6,5 C 7,2 C 3,2 km/h (1 Bft) 98,25 %
26.04.2017 18:45 7,2 C 10,6 C 95 % 1009,1 hPa 0,2 l/m 0,0 km/h (0 Bft) N-NW 337 0 min 0,000 mm 0,0 UV-I 24 W/m 6,5 C 7,2 C 1,6 km/h (1 Bft) 98,25 %
26.04.2017 18:50 7,2 C 10,6 C 96 % 1009,2 hPa 0,0 l/m 0,0 km/h (0 Bft) N-NW 337 0 min 0,000 mm 0,0 UV-I 21 W/m 6,6 C 7,2 C 1,6 km/h (1 Bft) 96,49 %
26.04.2017 18:55 7,2 C 10,6 C 96 % 1009,2 hPa 0,0 l/m 0,0 km/h (0 Bft) N 0 0 min 0,000 mm 0,0 UV-I 20 W/m 6,6 C 7,2 C 0,0 km/h (0 Bft) 98,25 %
26.04.2017 19:00 7,2 C 10,6 C 96 % 1009,1 hPa 0,0 l/m 0,0 km/h (0 Bft) N 0 0 min 0,000 mm 0,0 UV-I 26 W/m 6,6 C 7,2 C 0,0 km/h (0 Bft) 100,00 %
26.04.2017 19:06 7,1 C 10,6 C 96 % 1009,2 hPa 0,2 l/m 0,2 km/h (0 Bft) N-NW 328 0 min 0,000 mm 0,0 UV-I 26 W/m 6,5 C 7,1 C 1,6 km/h (1 Bft) 94,00 %
26.04.2017 19:08 7,1 C 10,6 C 96 % 1009,3 hPa 0,0 l/m 1,7 km/h (1 Bft) N-NW 328 0 min 0,000 mm 0,0 UV-I 26 W/m 6,5 C 7,1 C 3,2 km/h (1 Bft) 91,49 %
26.04.2017 19:10 7,1 C 10,6 C 95 % 1009,3 hPa 0,0 l/m 0,2 km/h (0 Bft) N-NW 328 0 min 0,000 mm 0,0 UV-I 28 W/m 6,4 C 7,1 C 1,6 km/h (1 Bft) 92,68 %
26.04.2017 19:12 7,0 C 10,6 C 95 % 1009,3 hPa 0,0 l/m 0,9 km/h (0 Bft) N-NW 328 0 min 0,000 mm 0,0 UV-I 26 W/m 6,3 C 7,0 C 3,2 km/h (1 Bft) 94,34 %
26.04.2017 19:14 7,0 C 10,6 C 96 % 1009,2 hPa 0,0 l/m 0,0 km/h (0 Bft) N-NW 328 0 min 0,000 mm 0,0 UV-I 30 W/m 6,4 C 7,0 C 0,0 km/h (0 Bft) 91,49 %
26.04.2017 19:16 7,0 C 10,6 C 96 % 1009,3 hPa 0,0 l/m 0,0 km/h (0 Bft) N-NW 328 0 min 0,000 mm 0,0 UV-I 32 W/m 6,4 C 7,0 C 0,0 km/h (0 Bft) 95,12 %
26.04.2017 19:18 7,1 C 10,6 C 96 % 1009,3 hPa 0,0 l/m 0,0 km/h (0 Bft) N-NW 328 0 min 0,000 mm 0,0 UV-I 24 W/m 6,5 C 7,1 C 1,6 km/h (1 Bft) 96,23 %
26.04.2017 19:20 7,1 C 10,6 C 96 % 1009,4 hPa 0,0 l/m 0,4 km/h (0 Bft) N-NW 328 0 min 0,000 mm 0,0 UV-I 17 W/m 6,5 C 7,1 C 1,6 km/h (1 Bft) 94,74 %
26.04.2017 19:22 7,1 C 10,6 C 96 % 1009,4 hPa 0,2 l/m 0,2 km/h (0 Bft) N-NW 328 0 min 0,000 mm 0,0 UV-I 14 W/m 6,5 C 7,1 C 1,6 km/h (1 Bft) 95,74 %
26.04.2017 19:24 7,1 C 10,6 C 96 % 1009,4 hPa 0,0 l/m 0,0 km/h (0 Bft) N-NW 328 0 min 0,000 mm 0,0 UV-I 12 W/m 6,5 C 7,1 C 0,0 km/h (0 Bft) 98,00 %
26.04.2017 19:26 7,1 C 10,6 C 96 % 1009,4 hPa 0,0 l/m 0,3 km/h (0 Bft) N-NW 328 0 min 0,000 mm 0,0 UV-I 12 W/m 6,5 C 7,1 C 1,6 km/h (1 Bft) 93,62 %
26.04.2017 19:28 7,1 C 10,6 C 96 % 1009,5 hPa 0,0 l/m 0,0 km/h (0 Bft) N-NW 328 0 min 0,000 mm 0,0 UV-I 12 W/m 6,5 C 7,1 C 0,0 km/h (0 Bft) 97,92 %
26.04.2017 19:30 7,1 C 10,6 C 96 % 1009,5 hPa 0,0 l/m 0,1 km/h (0 Bft) N-NW 328 0 min 0,000 mm 0,0 UV-I 12 W/m 6,5 C 7,1 C 1,6 km/h (1 Bft) 96,00 %
26.04.2017 19:32 7,0 C 10,6 C 96 % 1009,5 hPa 0,0 l/m 0,0 km/h (0 Bft) N-NW 328 0 min 0,000 mm 0,0 UV-I 11 W/m 6,4 C 7,0 C 0,0 km/h (0 Bft) 95,92 %
26.04.2017 19:34 7,0 C 10,6 C 96 % 1009,5 hPa 0,0 l/m 0,0 km/h (0 Bft) N-NW 328 0 min 0,000 mm 0,0 UV-I 11 W/m 6,4 C 7,0 C 0,0 km/h (0 Bft) 97,92 %
26.04.2017 19:36 6,9 C 10,6 C 96 % 1009,5 hPa 0,0 l/m 0,0 km/h (0 Bft) N-NW 328 0 min 0,000 mm 0,0 UV-I 11 W/m 6,3 C 6,9 C 0,0 km/h (0 Bft) 91,49 %
26.04.2017 19:38 6,9 C 10,6 C 96 % 1009,5 hPa 0,0 l/m 0,0 km/h (0 Bft) N-NW 328 0 min 0,000 mm 0,0 UV-I 11 W/m 6,3 C 6,9 C 0,0 km/h (0 Bft) 100,00 %
26.04.2017 19:40 6,9 C 10,6 C 96 % 1009,6 hPa 0,0 l/m 0,0 km/h (0 Bft) N-NW 328 0 min 0,000 mm 0,0 UV-I 10 W/m 6,3 C 6,9 C 0,0 km/h (0 Bft) 100,00 %
26.04.2017 19:42 6,9 C 10,6 C 96 % 1009,7 hPa 0,0 l/m 0,0 km/h (0 Bft) N-NW 328 0 min 0,000 mm 0,0 UV-I 8 W/m 6,3 C 6,9 C 1,6 km/h (1 Bft) 94,74 %
26.04.2017 19:44 6,9 C 10,6 C 96 % 1009,6 hPa 0,0 l/m 0,0 km/h (0 Bft) N-NW 328 0 min 0,000 mm 0,0 UV-I 7 W/m 6,3 C 6,9 C 0,0 km/h (0 Bft) 94,34 %
26.04.2017 19:46 6,9 C 10,6 C 96 % 1009,6 hPa 0,0 l/m 0,3 km/h (0 Bft) N-NW 328 0 min 0,000 mm 0,0 UV-I 7 W/m 6,3 C 6,9 C 1,6 km/h (1 Bft) 100,00 %
26.04.2017 19:48 6,9 C 10,6 C 96 % 1009,7 hPa 0,0 l/m 0,0 km/h (0 Bft) N-NW 328 0 min 0,000 mm 0,0 UV-I 7 W/m 6,3 C 6,9 C 1,6 km/h (1 Bft) 100,00 %
26.04.2017 19:50 6,9 C 10,6 C 96 % 1009,6 hPa 0,0 l/m 0,0 km/h (0 Bft) N-NW 328 0 min 0,000 mm 0,0 UV-I 7 W/m 6,3 C 6,9 C 0,0 km/h (0 Bft) 96,00 %
26.04.2017 19:52 6,8 C 10,6 C 96 % 1009,7 hPa 0,0 l/m 0,0 km/h (0 Bft) N-NW 328 0 min 0,000 mm 0,0 UV-I 7 W/m 6,2 C 6,8 C 1,6 km/h (1 Bft) 97,87 %
26.04.2017 19:54 6,8 C 10,6 C 96 % 1009,7 hPa 0,2 l/m 0,7 km/h (0 Bft) N-NW 328 0 min 0,000 mm 0,0 UV-I 7 W/m 6,2 C 6,8 C 1,6 km/h (1 Bft) 96,00 %
26.04.2017 19:56 6,8 C 10,6 C 96 % 1009,7 hPa 0,0 l/m 0,5 km/h (0 Bft) N-NW 328 0 min 0,000 mm 0,0 UV-I 7 W/m 6,2 C 6,8 C 1,6 km/h (1 Bft) 100,00 %
26.04.2017 19:58 6,8 C 10,6 C 96 % 1009,6 hPa 0,0 l/m 0,0 km/h (0 Bft) N-NW 328 0 min 0,000 mm 0,0 UV-I 7 W/m 6,2 C 6,8 C 0,0 km/h (0 Bft) 97,37 %
26.04.2017 20:00 6,8 C 10,6 C 96 % 1009,6 hPa 0,0 l/m 0,0 km/h (0 Bft) N-NW 328 0 min 0,000 mm 0,0 UV-I 7 W/m 6,2 C 6,8 C 0,0 km/h (0 Bft) 94,00 %
26.04.2017 20:02 6,8 C 10,6 C 96 % 1009,7 hPa 0,0 l/m 0,3 km/h (0 Bft) N-NW 328 0 min 0,000 mm 0,0 UV-I 7 W/m 6,2 C 6,8 C 1,6 km/h (1 Bft) 96,00 %
26.04.2017 20:04 6,8 C 10,6 C 96 % 1009,6 hPa 0,0 l/m 0,0 km/h (0 Bft) N-NW 328 0 min 0,000 mm 0,0 UV-I 7 W/m 6,2 C 6,8 C 0,0 km/h (0 Bft) 100,00 %
26.04.2017 20:06 6,8 C 10,0 C 96 % 1009,7 hPa 0,0 l/m 0,2 km/h (0 Bft) N-NW 328 0 min 0,000 mm 0,0 UV-I 5 W/m 6,2 C 6,8 C 1,6 km/h (1 Bft) 100,00 %
26.04.2017 20:08 6,8 C 10,0 C 96 % 1009,6 hPa 0,0 l/m 0,4 km/h (0 Bft) N-NW 328 0 min 0,000 mm 0,0 UV-I 5 W/m 6,2 C 6,8 C 1,6 km/h (1 Bft) 94,87 %
26.04.2017 20:10 6,8 C 10,0 C 96 % 1009,7 hPa 0,0 l/m 0,0 km/h (0 Bft) N-NW 328 0 min 0,000 mm 0,0 UV-I 1 W/m 6,2 C 6,8 C 1,6 km/h (1 Bft) 94,00 %
26.04.2017 20:12 6,8 C 10,0 C 96 % 1009,7 hPa 0,0 l/m 0,0 km/h (0 Bft) N-NW 328 0 min 0,000 mm 0,0 UV-I 0 W/m 6,2 C 6,8 C 1,6 km/h (1 Bft) 100,00 %
26.04.2017 20:14 6,7 C 10,0 C 96 % 1009,7 hPa 0,0 l/m 0,0 km/h (0 Bft) N-NW 328 0 min 0,000 mm 0,0 UV-I 0 W/m 6,1 C 6,7 C 0,0 km/h (0 Bft) 100,00 %
26.04.2017 20:16 6,7 C 10,0 C 96 % 1009,7 hPa 0,0 l/m 0,2 km/h (0 Bft) N-NW 328 0 min 0,000 mm 0,0 UV-I 0 W/m 6,1 C 6,7 C 1,6 km/h (1 Bft) 100,00 %
26.04.2017 20:18 6,7 C 10,0 C 96 % 1009,8 hPa 0,0 l/m 0,0 km/h (0 Bft) N-NW 328 0 min 0,000 mm 0,0 UV-I 0 W/m 6,1 C 6,7 C 0,0 km/h (0 Bft) 96,00 %
26.04.2017 20:20 6,8 C 10,0 C 96 % 1009,8 hPa 0,0 l/m 0,0 km/h (0 Bft) N-NW 328 0 min 0,000 mm 0,0 UV-I 0 W/m 6,2 C 6,8 C 1,6 km/h (1 Bft) 97,87 %
26.04.2017 20:22 6,8 C 10,0 C 96 % 1009,9 hPa 0,0 l/m 0,0 km/h (0 Bft) N-NW 328 0 min 0,000 mm 0,0 UV-I 0 W/m 6,2 C 6,8 C 0,0 km/h (0 Bft) 100,00 %
26.04.2017 20:24 6,7 C 10,0 C 96 % 1009,9 hPa 0,0 l/m 0,0 km/h (0 Bft) N-NW 328 0 min 0,000 mm 0,0 UV-I 0 W/m 6,1 C 6,7 C 0,0 km/h (0 Bft) 94,00 %
26.04.2017 20:26 6,7 C 10,0 C 96 % 1009,9 hPa 0,0 l/m 0,0 km/h (0 Bft) N-NW 328 0 min 0,000 mm 0,0 UV-I 0 W/m 6,1 C 6,7 C 0,0 km/h (0 Bft) 97,56 %
26.04.2017 20:28 6,7 C 10,0 C 96 % 1009,9 hPa 0,0 l/m 0,0 km/h (0 Bft) N-NW 328 0 min 0,000 mm 0,0 UV-I 0 W/m 6,1 C 6,7 C 0,0 km/h (0 Bft) 100,00 %
26.04.2017 20:30 6,8 C 10,0 C 96 % 1009,9 hPa 0,0 l/m 0,0 km/h (0 Bft) N-NW 328 0 min 0,000 mm 0,0 UV-I 0 W/m 6,2 C 6,8 C 0,0 km/h (0 Bft) 92,00 %
26.04.2017 20:32 6,7 C 10,0 C 96 % 1009,8 hPa 0,0 l/m 0,0 km/h (0 Bft) N-NW 328 0 min 0,000 mm 0,0 UV-I 0 W/m 6,1 C 6,7 C 0,0 km/h (0 Bft) 97,37 %
26.04.2017 20:34 6,8 C 10,0 C 96 % 1009,9 hPa 0,0 l/m 0,1 km/h (0 Bft) N-NW 328 0 min 0,000 mm 0,0 UV-I 0 W/m 6,2 C 6,8 C 1,6 km/h (1 Bft) 96,00 %
26.04.2017 20:36 6,7 C 10,0 C 96 % 1009,9 hPa 0,0 l/m 0,2 km/h (0 Bft) N-NW 328 0 min 0,000 mm 0,0 UV-I 0 W/m 6,1 C 6,7 C 1,6 km/h (1 Bft) 96,00 %
26.04.2017 20:38 6,7 C 10,0 C 96 % 1009,9 hPa 0,0 l/m 0,2 km/h (0 Bft) N-NW 328 0 min 0,000 mm 0,0 UV-I 0 W/m 6,1 C 6,7 C 1,6 km/h (1 Bft) 100,00 %
26.04.2017 20:40 6,7 C 10,0 C 96 % 1009,9 hPa 0,0 l/m 0,4 km/h (0 Bft) N-NW 328 0 min 0,000 mm 0,0 UV-I 0 W/m 6,1 C 6,7 C 1,6 km/h (1 Bft) 96,43 %
26.04.2017 20:42 6,7 C 10,0 C 96 % 1009,9 hPa 0,0 l/m 0,2 km/h (0 Bft) N-NW 328 0 min 0,000 mm 0,0 UV-I 0 W/m 6,1 C 6,7 C 3,2 km/h (1 Bft) 100,00 %
26.04.2017 20:44 6,7 C 10,0 C 96 % 1009,9 hPa 0,0 l/m 0,0 km/h (0 Bft) N-NW 328 0 min 0,000 mm 0,0 UV-I 0 W/m 6,1 C 6,7 C 0,0 km/h (0 Bft) 100,00 %
26.04.2017 20:46 6,7 C 10,0 C 96 % 1009,9 hPa 0,0 l/m 0,3 km/h (0 Bft) N-NW 328 0 min 0,000 mm 0,0 UV-I 0 W/m 6,1 C 6,7 C 1,6 km/h (1 Bft) 98,08 %
26.04.2017 20:48 6,7 C 10,0 C 96 % 1009,9 hPa 0,0 l/m 0,8 km/h (0 Bft) N-NW 328 0 min 0,000 mm 0,0 UV-I 0 W/m 6,1 C 6,7 C 3,2 km/h (1 Bft) 100,00 %
26.04.2017 20:50 6,7 C 10,0 C 96 % 1009,9 hPa 0,0 l/m 0,1 km/h (0 Bft) N-NW 328 0 min 0,000 mm 0,0 UV-I 0 W/m 6,1 C 6,7 C 1,6 km/h (1 Bft) 100,00 %
26.04.2017 20:52 6,7 C 10,0 C 96 % 1010,1 hPa 0,0 l/m 1,5 km/h (1 Bft) N-NW 328 0 min 0,000 mm 0,0 UV-I 0 W/m 6,1 C 6,7 C 3,2 km/h (1 Bft) 95,74 %
26.04.2017 20:54 6,7 C 10,0 C 96 % 1010,1 hPa 0,0 l/m 4,3 km/h (1 Bft) O-NO 63 0 min 0,000 mm 0,0 UV-I 0 W/m 6,1 C 6,7 C 6,4 km/h (2 Bft) 98,00 %
26.04.2017 20:56 6,6 C 10,0 C 96 % 1010,2 hPa 0,0 l/m 4,8 km/h (1 Bft) O-NO 63 0 min 0,000 mm 0,0 UV-I 0 W/m 6,0 C 6,6 C 6,4 km/h (2 Bft) 100,00 %
26.04.2017 20:58 6,6 C 10,0 C 96 % 1010,1 hPa 0,0 l/m 4,8 km/h (1 Bft) O-NO 59 0 min 0,000 mm 0,0 UV-I 0 W/m 6,0 C 6,6 C 6,4 km/h (2 Bft) 92,11 %
26.04.2017 21:00 6,6 C 10,0 C 96 % 1010,1 hPa 0,0 l/m 6,2 km/h (2 Bft) NO 55 0 min 0,000 mm 0,0 UV-I 0 W/m 6,0 C 6,6 C 8,0 km/h (2 Bft) 96,23 %
26.04.2017 21:02 6,5 C 10,0 C 96 % 1010,1 hPa 0,0 l/m 5,8 km/h (2 Bft) O-NO 63 0 min 0,000 mm 0,0 UV-I 0 W/m 5,9 C 6,5 C 8,0 km/h (2 Bft) 94,00 %
26.04.2017 21:04 6,4 C 10,0 C 96 % 1010,1 hPa 0,0 l/m 5,6 km/h (1 Bft) O-NO 59 0 min 0,000 mm 0,0 UV-I 0 W/m 5,8 C 6,4 C 8,0 km/h (2 Bft) 97,87 %
26.04.2017 21:06 6,4 C 10,0 C 96 % 1010,2 hPa 0,0 l/m 5,0 km/h (1 Bft) O-NO 60 0 min 0,000 mm 0,0 UV-I 0 W/m 5,8 C 6,4 C 6,4 km/h (2 Bft) 91,43 %
26.04.2017 21:08 6,4 C 10,0 C 96 % 1010,2 hPa 0,0 l/m 5,3 km/h (1 Bft) O-NO 62 0 min 0,000 mm 0,0 UV-I 0 W/m 5,8 C 6,4 C 8,0 km/h (2 Bft) 96,00 %
26.04.2017 21:10 6,4 C 10,0 C 96 % 1010,3 hPa 0,0 l/m 4,9 km/h (1 Bft) O-NO 63 0 min 0,000 mm 0,0 UV-I 0 W/m 5,8 C 6,4 C 8,0 km/h (2 Bft) 96,00 %
26.04.2017 21:12 6,4 C 10,0 C 96 % 1010,3 hPa 0,0 l/m 5,8 km/h (2 Bft) O-NO 67 0 min 0,000 mm 0,0 UV-I 0 W/m 5,8 C 6,4 C 8,0 km/h (2 Bft) 95,12 %
26.04.2017 21:14 6,3 C 10,0 C 96 % 1010,3 hPa 0,0 l/m 5,7 km/h (1 Bft) NO 51 0 min 0,000 mm 0,0 UV-I 0 W/m 5,7 C 6,3 C 8,0 km/h (2 Bft) 98,21 %
26.04.2017 21:16 6,3 C 10,0 C 96 % 1010,2 hPa 0,0 l/m 5,9 km/h (2 Bft) NO 51 0 min 0,000 mm 0,0 UV-I 0 W/m 5,7 C 6,3 C 9,7 km/h (2 Bft) 91,49 %
26.04.2017 21:18 6,2 C 10,0 C 96 % 1010,1 hPa 0,0 l/m 6,6 km/h (2 Bft) O-NO 59 0 min 0,000 mm 0,0 UV-I 0 W/m 5,6 C 6,1 C 9,7 km/h (2 Bft) 90,24 %
26.04.2017 21:20 6,2 C 10,0 C 96 % 1010,1 hPa 0,0 l/m 6,1 km/h (2 Bft) O-NO 59 0 min 0,000 mm 0,0 UV-I 0 W/m 5,6 C 6,2 C 8,0 km/h (2 Bft) 98,00 %
26.04.2017 21:22 6,2 C 10,0 C 96 % 1010,1 hPa 0,0 l/m 5,8 km/h (2 Bft) O-NO 67 0 min 0,000 mm 0,0 UV-I 0 W/m 5,6 C 6,2 C 8,0 km/h (2 Bft) 95,74 %
26.04.2017 21:24 6,2 C 10,0 C 96 % 1010,1 hPa 0,0 l/m 5,2 km/h (1 Bft) O-NO 65 0 min 0,000 mm 0,0 UV-I 0 W/m 5,6 C 6,2 C 8,0 km/h (2 Bft) 97,87 %
26.04.2017 21:26 6,2 C 10,0 C 96 % 1010,2 hPa 0,2 l/m 6,8 km/h (2 Bft) O-NO 71 0 min 0,000 mm 0,0 UV-I 0 W/m 5,6 C 5,9 C 8,0 km/h (2 Bft) 96,00 %
26.04.2017 21:28 6,2 C 10,0 C 96 % 1010,3 hPa 0,0 l/m 5,5 km/h (1 Bft) O-NO 69 0 min 0,000 mm 0,0 UV-I 0 W/m 5,6 C 6,2 C 8,0 km/h (2 Bft) 92,86 %
26.04.2017 21:30 6,3 C 10,0 C 96 % 1010,3 hPa 0,0 l/m 4,9 km/h (1 Bft) O 98 0 min 0,000 mm 0,0 UV-I 0 W/m 5,7 C 6,3 C 8,0 km/h (2 Bft) 95,74 %
26.04.2017 21:32 6,2 C 10,0 C 96 % 1010,3 hPa 0,0 l/m 4,3 km/h (1 Bft) O-NO 65 0 min 0,000 mm 0,0 UV-I 0 W/m 5,6 C 6,2 C 8,0 km/h (2 Bft) 95,74 %
26.04.2017 21:34 6,2 C 10,0 C 96 % 1010,4 hPa 0,0 l/m 2,5 km/h (1 Bft) O-NO 65 0 min 0,000 mm 0,0 UV-I 0 W/m 5,6 C 6,2 C 4,8 km/h (1 Bft) 95,74 %
26.04.2017 21:36 6,3 C 10,0 C 96 % 1010,4 hPa 0,0 l/m 3,5 km/h (1 Bft) O-NO 66 0 min 0,000 mm 0,0 UV-I 0 W/m 5,7 C 6,3 C 6,4 km/h (2 Bft) 97,87 %
26.04.2017 21:38 6,2 C 10,0 C 96 % 1010,3 hPa 0,0 l/m 4,7 km/h (1 Bft) O-NO 57 0 min 0,000 mm 0,0 UV-I 0 W/m 5,6 C 6,2 C 8,0 km/h (2 Bft) 100,00 %
26.04.2017 21:40 6,2 C 10,0 C 96 % 1010,3 hPa 0,0 l/m 5,5 km/h (1 Bft) O-NO 61 0 min 0,000 mm 0,0 UV-I 0 W/m 5,6 C 6,2 C 6,4 km/h (2 Bft) 98,00 %
26.04.2017 21:42 6,2 C 10,0 C 96 % 1010,2 hPa 0,0 l/m 6,5 km/h (2 Bft) O-NO 74 0 min 0,000 mm 0,0 UV-I 0 W/m 5,6 C 6,1 C 11,3 km/h (2 Bft) 98,11 %
26.04.2017 21:44 6,2 C 10,0 C 96 % 1010,3 hPa 0,0 l/m 5,3 km/h (1 Bft) O-NO 65 0 min 0,000 mm 0,0 UV-I 0 W/m 5,6 C 6,2 C 8,0 km/h (2 Bft) 97,56 %
26.04.2017 21:46 6,2 C 10,0 C 96 % 1010,2 hPa 0,0 l/m 6,2 km/h (2 Bft) O-NO 74 0 min 0,000 mm 0,0 UV-I 0 W/m 5,6 C 6,2 C 8,0 km/h (2 Bft) 100,00 %
26.04.2017 21:48 6,2 C 10,0 C 96 % 1010,2 hPa 0,0 l/m 5,0 km/h (1 Bft) O-NO 71 0 min 0,000 mm 0,0 UV-I 0 W/m 5,6 C 6,2 C 6,4 km/h (2 Bft) 98,11 %
26.04.2017 21:50 6,2 C 10,0 C 96 % 1010,2 hPa 0,0 l/m 6,2 km/h (2 Bft) O-NO 72 0 min 0,000 mm 0,0 UV-I 0 W/m 5,6 C 6,2 C 8,0 km/h (2 Bft) 98,00 %
26.04.2017 21:52 6,2 C 10,0 C 96 % 1010,2 hPa 0,0 l/m 6,0 km/h (2 Bft) O-NO 76 0 min 0,000 mm 0,0 UV-I 0 W/m 5,6 C 6,2 C 8,0 km/h (2 Bft) 97,37 %
26.04.2017 21:54 6,1 C 10,0 C 96 % 1010,3 hPa 0,0 l/m 4,8 km/h (1 Bft) O-NO 76 0 min 0,000 mm 0,0 UV-I 0 W/m 5,5 C 6,1 C 6,4 km/h (2 Bft) 97,87 %
26.04.2017 21:56 6,1 C 10,0 C 96 % 1010,3 hPa 0,0 l/m 2,9 km/h (1 Bft) O-NO 76 0 min 0,000 mm 0,0 UV-I 0 W/m 5,5 C 6,1 C 4,8 km/h (1 Bft) 98,00 %
26.04.2017 21:58 6,2 C 10,0 C 96 % 1010,3 hPa 0,0 l/m 2,7 km/h (1 Bft) O-NO 76 0 min 0,000 mm 0,0 UV-I 0 W/m 5,6 C 6,2 C 4,8 km/h (1 Bft) 97,87 %
26.04.2017 22:00 6,2 C 10,0 C 96 % 1010,3 hPa 0,0 l/m 3,3 km/h (1 Bft) O-NO 76 0 min 0,000 mm 0,0 UV-I 0 W/m 5,6 C 6,2 C 6,4 km/h (2 Bft) 96,23 %
26.04.2017 22:02 6,2 C 10,0 C 96 % 1010,3 hPa 0,0 l/m 4,1 km/h (1 Bft) O-NO 76 0 min 0,000 mm 0,0 UV-I 0 W/m 5,6 C 6,2 C 6,4 km/h (2 Bft) 94,44 %
26.04.2017 22:04 6,2 C 10,0 C 96 % 1010,3 hPa 0,0 l/m 4,0 km/h (1 Bft) O-NO 67 0 min 0,000 mm 0,0 UV-I 0 W/m 5,6 C 6,2 C 6,4 km/h (2 Bft) 98,00 %
26.04.2017 22:06 6,1 C 10,0 C 96 % 1010,3 hPa 0,0 l/m 3,4 km/h (1 Bft) O-NO 67 0 min 0,000 mm 0,0 UV-I 0 W/m 5,5 C 6,1 C 6,4 km/h (2 Bft) 95,92 %
26.04.2017 22:08 6,2 C 10,0 C 96 % 1010,3 hPa 0,0 l/m 2,0 km/h (1 Bft) O-NO 67 0 min 0,000 mm 0,0 UV-I 0 W/m 5,6 C 6,2 C 4,8 km/h (1 Bft) 94,87 %
26.04.2017 22:10 6,2 C 10,0 C 96 % 1010,3 hPa 0,0 l/m 3,5 km/h (1 Bft) O-NO 67 0 min 0,000 mm 0,0 UV-I 0 W/m 5,6 C 6,2 C 4,8 km/h (1 Bft) 97,73 %
26.04.2017 22:12 6,1 C 10,0 C 96 % 1010,3 hPa 0,0 l/m 2,8 km/h (1 Bft) O-NO 67 0 min 0,000 mm 0,0 UV-I 0 W/m 5,5 C 6,1 C 4,8 km/h (1 Bft) 96,43 %
26.04.2017 22:14 6,1 C 10,0 C 96 % 1010,4 hPa 0,2 l/m 3,5 km/h (1 Bft) O-NO 68 0 min 0,000 mm 0,0 UV-I 0 W/m 5,5 C 6,1 C 4,8 km/h (1 Bft) 98,00 %
26.04.2017 22:16 6,1 C 10,0 C 96 % 1010,3 hPa 0,0 l/m 3,2 km/h (1 Bft) O-NO 69 0 min 0,000 mm 0,0 UV-I 0 W/m 5,5 C 6,1 C 4,8 km/h (1 Bft) 92,00 %
26.04.2017 22:18 6,1 C 10,0 C 96 % 1010,4 hPa 0,0 l/m 4,9 km/h (1 Bft) O 91 0 min 0,000 mm 0,0 UV-I 0 W/m 5,5 C 6,1 C 6,4 km/h (2 Bft) 94,74 %
26.04.2017 22:20 6,1 C 10,0 C 96 % 1010,4 hPa 0,0 l/m 7,1 km/h (2 Bft) O-SO 107 0 min 0,000 mm 0,0 UV-I 0 W/m 5,5 C 5,5 C 11,3 km/h (2 Bft) 94,34 %
26.04.2017 22:22 6,0 C 10,0 C 96 % 1010,3 hPa 0,0 l/m 5,8 km/h (2 Bft) O 83 0 min 0,000 mm 0,0 UV-I 0 W/m 5,4 C 6,0 C 11,3 km/h (2 Bft) 98,00 %
26.04.2017 22:24 6,0 C 10,0 C 96 % 1010,3 hPa 0,2 l/m 3,8 km/h (1 Bft) O 82 0 min 0,000 mm 0,0 UV-I 0 W/m 5,4 C 6,0 C 6,4 km/h (2 Bft) 95,12 %
26.04.2017 22:26 6,0 C 10,0 C 96 % 1010,3 hPa 0,0 l/m 5,0 km/h (1 Bft) O 82 0 min 0,000 mm 0,0 UV-I 0 W/m 5,4 C 6,0 C 8,0 km/h (2 Bft) 95,12 %
26.04.2017 22:28 5,9 C 10,0 C 96 % 1010,2 hPa 0,0 l/m 4,8 km/h (1 Bft) O-NO 69 0 min 0,000 mm 0,0 UV-I 0 W/m 5,3 C 5,9 C 6,4 km/h (2 Bft) 96,00 %
26.04.2017 22:30 5,9 C 10,0 C 96 % 1010,2 hPa 0,0 l/m 4,5 km/h (1 Bft) O-NO 69 0 min 0,000 mm 0,0 UV-I 0 W/m 5,3 C 5,9 C 6,4 km/h (2 Bft) 96,23 %
26.04.2017 22:32 5,9 C 10,0 C 96 % 1010,3 hPa 0,0 l/m 3,8 km/h (1 Bft) O-NO 76 0 min 0,000 mm 0,0 UV-I 0 W/m 5,3 C 5,9 C 6,4 km/h (2 Bft) 97,87 %
26.04.2017 22:34 5,9 C 10,0 C 96 % 1010,2 hPa 0,0 l/m 6,3 km/h (2 Bft) O 86 0 min 0,000 mm 0,0 UV-I 0 W/m 5,3 C 5,9 C 9,7 km/h (2 Bft) 95,74 %
26.04.2017 22:36 5,9 C 10,0 C 96 % 1010,2 hPa 0,0 l/m 5,0 km/h (1 Bft) O-NO 72 0 min 0,000 mm 0,0 UV-I 0 W/m 5,3 C 5,9 C 9,7 km/h (2 Bft) 97,56 %
26.04.2017 22:38 5,9 C 10,0 C 96 % 1010,3 hPa 0,2 l/m 2,8 km/h (1 Bft) O 86 0 min 0,000 mm 0,0 UV-I 0 W/m 5,3 C 5,9 C 6,4 km/h (2 Bft) 94,87 %
26.04.2017 22:40 5,9 C 10,0 C 96 % 1010,2 hPa 0,0 l/m 4,3 km/h (1 Bft) O-SO 110 0 min 0,000 mm 0,0 UV-I 0 W/m 5,3 C 5,9 C 6,4 km/h (2 Bft) 98,08 %
26.04.2017 22:42 5,9 C 10,0 C 96 % 1010,3 hPa 0,2 l/m 3,8 km/h (1 Bft) O-SO 110 0 min 0,000 mm 0,0 UV-I 0 W/m 5,3 C 5,9 C 6,4 km/h (2 Bft) 96,43 %
26.04.2017 22:44 5,9 C 10,0 C 96 % 1010,3 hPa 0,0 l/m 3,2 km/h (1 Bft) O-SO 110 0 min 0,000 mm 0,0 UV-I 0 W/m 5,3 C 5,9 C 4,8 km/h (1 Bft) 95,74 %
26.04.2017 22:46 5,9 C 10,0 C 96 % 1010,3 hPa 0,0 l/m 1,9 km/h (1 Bft) O-SO 110 0 min 0,000 mm 0,0 UV-I 0 W/m 5,3 C 5,9 C 4,8 km/h (1 Bft) 100,00 %
26.04.2017 22:48 5,9 C 10,0 C 96 % 1010,3 hPa 0,0 l/m 3,9 km/h (1 Bft) O-SO 110 0 min 0,000 mm 0,0 UV-I 0 W/m 5,3 C 5,9 C 4,8 km/h (1 Bft) 96,23 %
26.04.2017 22:50 5,9 C 10,0 C 96 % 1010,4 hPa 0,0 l/m 2,7 km/h (1 Bft) O-SO 110 0 min 0,000 mm 0,0 UV-I 0 W/m 5,3 C 5,9 C 4,8 km/h (1 Bft) 96,00 %
26.04.2017 22:52 5,9 C 10,0 C 96 % 1010,4 hPa 0,2 l/m 4,2 km/h (1 Bft) O-SO 120 0 min 0,000 mm 0,0 UV-I 0 W/m 5,3 C 5,9 C 6,4 km/h (2 Bft) 98,00 %
26.04.2017 22:54 5,8 C 10,0 C 96 % 1010,4 hPa 0,0 l/m 4,3 km/h (1 Bft) O 92 0 min 0,000 mm 0,0 UV-I 0 W/m 5,2 C 5,8 C 8,0 km/h (2 Bft) 95,12 %
26.04.2017 22:56 5,8 C 10,0 C 96 % 1010,4 hPa 0,0 l/m 5,0 km/h (1 Bft) O 93 0 min 0,000 mm 0,0 UV-I 0 W/m 5,2 C 5,8 C 6,4 km/h (2 Bft) 96,00 %
26.04.2017 22:58 5,8 C 10,0 C 96 % 1010,4 hPa 0,2 l/m 4,5 km/h (1 Bft) O-SO 113 0 min 0,000 mm 0,0 UV-I 0 W/m 5,2 C 5,8 C 9,7 km/h (2 Bft) 97,56 %
26.04.2017 23:00 5,8 C 10,0 C 96 % 1010,4 hPa 0,0 l/m 2,4 km/h (1 Bft) O-SO 113 0 min 0,000 mm 0,0 UV-I 0 W/m 5,2 C 5,8 C 4,8 km/h (1 Bft) 97,87 %
26.04.2017 23:02 5,7 C 10,0 C 96 % 1010,4 hPa 0,0 l/m 2,6 km/h (1 Bft) O 89 0 min 0,000 mm 0,0 UV-I 0 W/m 5,1 C 5,7 C 4,8 km/h (1 Bft) 96,23 %
26.04.2017 23:04 5,7 C 10,0 C 96 % 1010,4 hPa 0,0 l/m 4,6 km/h (1 Bft) O 90 0 min 0,000 mm 0,0 UV-I 0 W/m 5,1 C 5,7 C 8,0 km/h (2 Bft) 97,37 %
26.04.2017 23:06 5,7 C 10,0 C 96 % 1010,3 hPa 0,2 l/m 3,2 km/h (1 Bft) O-NO 69 0 min 0,000 mm 0,0 UV-I 0 W/m 5,1 C 5,7 C 6,4 km/h (2 Bft) 98,11 %
26.04.2017 23:08 5,7 C 10,0 C 96 % 1010,3 hPa 0,0 l/m 3,3 km/h (1 Bft) O-NO 69 0 min 0,000 mm 0,0 UV-I 0 W/m 5,1 C 5,7 C 4,8 km/h (1 Bft) 97,87 %
26.04.2017 23:10 5,7 C 10,0 C 96 % 1010,3 hPa 0,0 l/m 3,2 km/h (1 Bft) O-NO 69 0 min 0,000 mm 0,0 UV-I 0 W/m 5,1 C 5,7 C 4,8 km/h (1 Bft) 97,73 %
26.04.2017 23:12 5,7 C 10,0 C 96 % 1010,3 hPa 0,0 l/m 5,9 km/h (2 Bft) O-NO 59 0 min 0,000 mm 0,0 UV-I 0 W/m 5,1 C 5,7 C 8,0 km/h (2 Bft) 94,34 %
26.04.2017 23:14 5,6 C 10,0 C 96 % 1010,3 hPa 0,2 l/m 4,3 km/h (1 Bft) O-NO 57 0 min 0,000 mm 0,0 UV-I 0 W/m 5,0 C 5,6 C 6,4 km/h (2 Bft) 94,74 %
26.04.2017 23:16 5,6 C 10,0 C 96 % 1010,4 hPa 0,0 l/m 4,2 km/h (1 Bft) NO 56 0 min 0,000 mm 0,0 UV-I 0 W/m 5,0 C 5,6 C 6,4 km/h (2 Bft) 98,00 %
26.04.2017 23:18 5,6 C 10,0 C 96 % 1010,4 hPa 0,0 l/m 4,0 km/h (1 Bft) O-NO 65 0 min 0,000 mm 0,0 UV-I 0 W/m 5,0 C 5,6 C 6,4 km/h (2 Bft) 95,74 %
26.04.2017 23:20 5,6 C 10,0 C 96 % 1010,4 hPa 0,0 l/m 3,4 km/h (1 Bft) O-NO 65 0 min 0,000 mm 0,0 UV-I 0 W/m 5,0 C 5,6 C 4,8 km/h (1 Bft) 96,23 %
26.04.2017 23:22 5,6 C 10,0 C 96 % 1010,3 hPa 0,0 l/m 3,9 km/h (1 Bft) O-NO 67 0 min 0,000 mm 0,0 UV-I 0 W/m 5,0 C 5,6 C 6,4 km/h (2 Bft) 97,22 %
26.04.2017 23:24 5,6 C 10,0 C 96 % 1010,4 hPa 0,0 l/m 3,3 km/h (1 Bft) O-NO 67 0 min 0,000 mm 0,0 UV-I 0 W/m 5,0 C 5,6 C 4,8 km/h (1 Bft) 96,15 %
26.04.2017 23:26 5,6 C 10,0 C 96 % 1010,4 hPa 0,0 l/m 5,0 km/h (1 Bft) O-NO 70 0 min 0,000 mm 0,0 UV-I 0 W/m 5,0 C 5,6 C 8,0 km/h (2 Bft) 96,23 %
26.04.2017 23:28 5,5 C 10,0 C 96 % 1010,5 hPa 0,0 l/m 5,9 km/h (2 Bft) O-NO 65 0 min 0,000 mm 0,0 UV-I 0 W/m 4,9 C 5,5 C 8,0 km/h (2 Bft) 97,62 %
26.04.2017 23:30 5,6 C 10,0 C 96 % 1010,6 hPa 0,0 l/m 3,2 km/h (1 Bft) O-NO 67 0 min 0,000 mm 0,0 UV-I 0 W/m 5,0 C 5,6 C 6,4 km/h (2 Bft) 98,00 %
26.04.2017 23:32 5,6 C 10,0 C 96 % 1010,6 hPa 0,0 l/m 0,6 km/h (0 Bft) O-NO 67 0 min 0,000 mm 0,0 UV-I 0 W/m 5,0 C 5,6 C 3,2 km/h (1 Bft) 94,74 %
26.04.2017 23:34 5,6 C 10,0 C 96 % 1010,6 hPa 0,2 l/m 0,7 km/h (0 Bft) O-NO 67 0 min 0,000 mm 0,0 UV-I 0 W/m 5,0 C 5,6 C 3,2 km/h (1 Bft) 94,00 %
26.04.2017 23:36 5,6 C 10,0 C 96 % 1010,6 hPa 0,0 l/m 0,5 km/h (0 Bft) O-NO 67 0 min 0,000 mm 0,0 UV-I 0 W/m 5,0 C 5,6 C 1,6 km/h (1 Bft) 92,00 %
26.04.2017 23:38 5,6 C 10,0 C 96 % 1010,7 hPa 0,0 l/m 1,9 km/h (1 Bft) O-NO 67 0 min 0,000 mm 0,0 UV-I 0 W/m 5,0 C 5,6 C 3,2 km/h (1 Bft) 100,00 %
26.04.2017 23:40 5,6 C 10,0 C 96 % 1010,8 hPa 0,0 l/m 1,1 km/h (1 Bft) O-NO 67 0 min 0,000 mm 0,0 UV-I 0 W/m 5,0 C 5,6 C 3,2 km/h (1 Bft) 98,21 %
26.04.2017 23:42 5,6 C 10,0 C 96 % 1010,8 hPa 0,2 l/m 1,3 km/h (1 Bft) O-NO 67 0 min 0,000 mm 0,0 UV-I 0 W/m 5,0 C 5,6 C 3,2 km/h (1 Bft) 100,00 %
26.04.2017 23:44 5,5 C 10,0 C 96 % 1010,8 hPa 0,0 l/m 2,7 km/h (1 Bft) O-NO 67 0 min 0,000 mm 0,0 UV-I 0 W/m 4,9 C 5,5 C 6,4 km/h (2 Bft) 98,11 %
26.04.2017 23:46 5,5 C 10,0 C 96 % 1010,8 hPa 0,0 l/m 5,0 km/h (1 Bft) O-NO 61 0 min 0,000 mm 0,0 UV-I 0 W/m 4,9 C 5,5 C 6,4 km/h (2 Bft) 96,00 %
26.04.2017 23:48 5,4 C 10,0 C 95 % 1010,8 hPa 0,0 l/m 4,8 km/h (1 Bft) O-NO 67 0 min 0,000 mm 0,0 UV-I 0 W/m 4,7 C 5,4 C 8,0 km/h (2 Bft) 100,00 %
26.04.2017 23:50 5,4 C 10,0 C 95 % 1010,7 hPa 0,2 l/m 6,1 km/h (2 Bft) O-NO 71 0 min 0,000 mm 0,0 UV-I 0 W/m 4,7 C 5,4 C 8,0 km/h (2 Bft) 98,11 %
26.04.2017 23:52 5,3 C 10,0 C 96 % 1010,6 hPa 0,0 l/m 5,4 km/h (1 Bft) O-NO 67 0 min 0,000 mm 0,0 UV-I 0 W/m 4,7 C 5,3 C 8,0 km/h (2 Bft) 100,00 %
26.04.2017 23:54 5,3 C 10,0 C 95 % 1010,5 hPa 0,0 l/m 6,6 km/h (2 Bft) O-NO 67 0 min 0,000 mm 0,0 UV-I 0 W/m 4,6 C 5,1 C 9,7 km/h (2 Bft) 100,00 %
26.04.2017 23:56 5,3 C 10,0 C 95 % 1010,6 hPa 0,2 l/m 5,2 km/h (1 Bft) O-NO 67 0 min 0,000 mm 0,0 UV-I 0 W/m 4,6 C 5,3 C 8,0 km/h (2 Bft) 97,37 %
26.04.2017 23:58 5,3 C 10,0 C 95 % 1010,7 hPa 0,0 l/m 3,4 km/h (1 Bft) O-NO 67 0 min 0,000 mm 0,0 UV-I 0 W/m 4,6 C 5,3 C 4,8 km/h (1 Bft) 100,00 %
_ Min-Zeit 23:52 01:22 13:18 02:48 - 00:16 - - - - - - 23:54 03:22 00:16 02:30
Minimum _ 5,3 C 9,4 C 81 % 1004,1 hPa - 0,0 km/h (0 Bft) - - - - - - 4,6 C 4,3 C 0,0 km/h (0 Bft) 88,00 %
_ Max-Zeit 13:06 02:18 00:00 23:40 16:36 11:48 - - 00:00 13:00 12:20 12:56 00:00 13:16 02:04 00:04
Maximum _ 10,2 C 10,6 C 96 % 1010,8 hPa 0,2 l/m 13,2 km/h
N-NO (3 Bft)
- - 0 min 0,127 mm 1,8 UV-I 296 W/m 9,5 C 10,2 C 19,3 km/h
NO (3 Bft)
100,00 %
Durchschnitt _ 8,3 C 10,4 C 90 % 1006,7 hPa #5,6 l/m 3,8 km/h (1 Bft) N-NO - #0 min. #0,660 mm 0,9 UV-I 92 W/m 6,7 C 8,0 C 6,9 km/h (2 Bft) 97,27 %